DL5344 / N181GJ 7700 Squawk Report (4th of December, 2021)

Aircraft CRJ9 Reg No. N181GJ Age N/A
Model Regional-Jet Jet engines 2 First flight 11-08
Registered 18-02-20 Rollout 10-08 Delivered 21-11-08
Construction No. 15204 Line No. N/A Series 900
ADSHEX A14502 Airline name Delta Connection Owner Endeavor Air
Airfield based Minneapolis-St.Paul Int'l~MN~N First tracked N/A

Flight history for N181GJ

Route Flight No Date Playback
Gainesville Rgnl (GNV) - Hartsfield Jackson Atlanta Intl (ATL) DL4880 2022-01-20 20:10:00
Mc Ghee Tyson (TYS) - Hartsfield Jackson Atlanta Intl (ATL) DL5126 2022-01-20 15:04:00
Hartsfield Jackson Atlanta Intl (ATL) - Mc Ghee Tyson (TYS) DL4919 2022-01-19 23:43:00
Fayetteville Regional Grannis Field (FAY) - Hartsfield Jackson Atlanta Intl (ATL) DL5385 2022-01-19 19:05:00
Springfield Branson Natl (SGF) - Hartsfield Jackson Atlanta Intl (ATL) DL4834 2022-01-19 13:30:00
Hartsfield Jackson Atlanta Intl (ATL) - Springfield Branson Natl (SGF) DL4671 2022-01-19 12:09:00
Hartsfield Jackson Atlanta Intl (ATL) - Albert J Ellis (OAJ) - Hartsfield Jackson Atlanta Intl (ATL) DL4703 2022-01-19 00:53:00
Fayetteville Regional Grannis Field (FAY) - Hartsfield Jackson Atlanta Intl (ATL) DL5385 2022-01-18 19:00:00
Lovell Field (CHA) - Hartsfield Jackson Atlanta Intl (ATL) DL4843 2022-01-18 12:51:00
Hartsfield Jackson Atlanta Intl (ATL) - Lovell Field (CHA) DL4893 2022-01-18 11:58:00
Westchester Co (HPN) - Hartsfield Jackson Atlanta Intl (ATL) DL4633 2022-01-18 02:24:00
Hartsfield Jackson Atlanta Intl (ATL) - Westchester Co (HPN) DL4632 2022-01-17 23:08:00
NW Arkansas Regional (XNA) - Hartsfield Jackson Atlanta Intl (ATL) DL5141 2022-01-17 19:34:00
Minneapolis-St.Paul Intl (MSP) - NW Arkansas Regional (XNA) DL4773 2022-01-17 16:51:00
Cincinnati Northern Kentucky Intl (CVG) - Minneapolis-St.Paul Intl (MSP) DL5233 2022-01-16 23:11:00
Minneapolis-St.Paul Intl (MSP) - Cincinnati Northern Kentucky Intl (CVG) DL4845 2022-01-16 20:22:00
Toronto Pearson International (YYZ) - Minneapolis-St.Paul Intl (MSP) DL4733 2022-01-16 15:32:00
Minneapolis-St.Paul Intl (MSP) - Toronto Pearson International (YYZ) DL4800 2022-01-16 13:27:00
Cincinnati Northern Kentucky Intl (CVG) - Minneapolis-St.Paul Intl (MSP) DL5233 2022-01-15 23:14:00
Minneapolis-St.Paul Intl (MSP) - Cincinnati Northern Kentucky Intl (CVG) DL5161 2022-01-15 20:27:00
Time Lat Lon Altitude Heading Speed Vertical Rate
2021-12-04 19:03:22 GMT 42.949188 -87.898460 0 214 8 192
2021-12-04 19:03:21 GMT 42.949219 -87.898430 0 214 8 192
2021-12-04 19:03:19 GMT 42.949291 -87.898392 0 214 8 192
2021-12-04 19:03:18 GMT 42.949329 -87.898376 0 216 8 192
2021-12-04 19:03:17 GMT 42.949402 -87.898361 0 220 8 192
2021-12-04 19:03:15 GMT 42.949429 -87.898354 0 222 8 192
2021-12-04 19:03:13 GMT 42.949509 -87.898331 0 229 8 192
2021-12-04 19:03:12 GMT 42.949532 -87.898308 0 232 9 192
2021-12-04 19:03:11 GMT 42.949558 -87.898293 0 234 9 192
2021-12-04 19:03:10 GMT 42.949612 -87.898209 0 238 10 192
2021-12-04 19:03:08 GMT 42.949650 -87.898163 0 246 9 192
2021-12-04 19:03:07 GMT 42.949692 -87.898117 0 254 9 192
2021-12-04 19:03:06 GMT 42.949741 -87.898018 0 266 9 192
2021-12-04 19:03:04 GMT 42.949760 -87.897987 0 274 10 192
2021-12-04 19:03:03 GMT 42.949772 -87.897926 0 274 11 192
2021-12-04 19:03:02 GMT 42.949749 -87.897797 0 275 9 192
2021-12-04 19:03:00 GMT 42.949749 -87.897751 0 273 11 192
2021-12-04 19:02:59 GMT 42.949741 -87.897690 0 271 11 192
2021-12-04 19:02:57 GMT 42.949749 -87.897522 0 274 9 192
2021-12-04 19:02:56 GMT 42.949741 -87.897469 0 274 9 192
2021-12-04 19:02:55 GMT 42.949730 -87.897423 0 272 10 192
2021-12-04 19:02:53 GMT 42.949730 -87.897301 0 270 10 192
2021-12-04 19:02:52 GMT 42.949718 -87.897209 0 269 9 192
2021-12-04 19:02:50 GMT 42.949718 -87.897110 0 270 10 192
2021-12-04 19:02:49 GMT 42.949718 -87.897057 0 270 10 192
2021-12-04 19:02:48 GMT 42.949711 -87.896980 0 266 10 192
2021-12-04 19:02:46 GMT 42.949711 -87.896858 0 266 9 192
2021-12-04 19:02:45 GMT 42.949718 -87.896812 0 270 10 192
2021-12-04 19:02:44 GMT 42.949730 -87.896667 0 268 9 192
2021-12-04 19:02:42 GMT 42.949711 -87.896629 0 268 10 192
2021-12-04 19:02:41 GMT 42.949718 -87.896584 0 278 10 192
2021-12-04 19:02:39 GMT 42.949730 -87.896446 0 286 11 192
2021-12-04 19:02:38 GMT 42.949699 -87.896317 0 299 11 192
2021-12-04 19:02:36 GMT 42.949680 -87.896248 0 309 10 192
2021-12-04 19:02:35 GMT 42.949669 -87.896172 0 322 9 192
2021-12-04 19:02:33 GMT 42.949612 -87.896080 0 334 9 192
2021-12-04 19:02:32 GMT 42.949581 -87.896057 0 341 11 192
2021-12-04 19:02:31 GMT 42.949501 -87.895981 0 355 10 192
2021-12-04 19:02:29 GMT 42.949459 -87.895973 0 359 10 192
2021-12-04 19:02:28 GMT 42.949421 -87.895950 0 5 12 192
2021-12-04 19:02:26 GMT 42.949329 -87.895950 0 6 14 192
2021-12-04 19:02:25 GMT 42.949268 -87.895950 0 9 14 192
2021-12-04 19:02:23 GMT 42.949139 -87.895988 0 4 14 192
2021-12-04 19:02:22 GMT 42.949081 -87.895988 0 5 15 192
2021-12-04 19:02:20 GMT 42.948860 -87.896011 0 9 16 192
2021-12-04 19:02:18 GMT 42.948799 -87.896042 0 5 17 192
2021-12-04 19:02:17 GMT 42.948730 -87.896072 0 2 18 192
2021-12-04 19:02:16 GMT 42.948559 -87.896072 0 7 17 192
2021-12-04 19:02:14 GMT 42.948490 -87.896072 0 8 17 192
2021-12-04 19:02:13 GMT 42.948421 -87.896103 0 5 17 192
2021-12-04 19:02:11 GMT 42.948261 -87.896111 0 8 18 192
2021-12-04 19:02:10 GMT 42.948181 -87.896133 0 8 18 192
2021-12-04 19:02:09 GMT 42.948090 -87.896141 0 8 18 192
2021-12-04 19:02:08 GMT 42.947941 -87.896172 0 9 19 192
2021-12-04 19:02:06 GMT 42.947849 -87.896187 0 8 19 192
2021-12-04 19:02:05 GMT 42.947762 -87.896202 0 9 20 192
2021-12-04 19:02:03 GMT 42.947590 -87.896263 0 5 20 192
2021-12-04 19:02:02 GMT 42.947498 -87.896278 0 3 19 192
2021-12-04 19:02:01 GMT 42.947330 -87.896294 0 3 21 192
2021-12-04 19:01:59 GMT 42.947231 -87.896294 0 6 21 192
2021-12-04 19:01:57 GMT 42.947029 -87.896317 0 7 20 192
2021-12-04 19:01:56 GMT 42.946930 -87.896332 0 8 19 192
2021-12-04 19:01:55 GMT 42.946758 -87.896370 0 7 19 192
2021-12-04 19:01:53 GMT 42.946671 -87.896393 0 6 18 192
2021-12-04 19:01:52 GMT 42.946579 -87.896400 0 7 18 192
2021-12-04 19:01:50 GMT 42.946411 -87.896431 0 7 18 192
2021-12-04 19:01:49 GMT 42.946331 -87.896439 0 9 18 192
2021-12-04 19:01:48 GMT 42.946251 -87.896461 0 5 18 192
2021-12-04 19:01:46 GMT 42.946091 -87.896500 0 1 18 192
2021-12-04 19:01:45 GMT 42.945930 -87.896500 0 12 18 192
2021-12-04 19:01:43 GMT 42.945782 -87.896530 0 27 19 192
2021-12-04 19:01:41 GMT 42.945702 -87.896568 0 32 18 192
2021-12-04 19:01:40 GMT 42.945621 -87.896622 0 39 17 192
2021-12-04 19:01:39 GMT 42.945549 -87.896690 0 44 16 192
2021-12-04 19:01:37 GMT 42.945431 -87.896812 0 56 17 192
2021-12-04 19:01:36 GMT 42.945381 -87.896889 0 61 17 192
2021-12-04 19:01:34 GMT 42.945301 -87.897087 0 64 15 192
2021-12-04 19:01:33 GMT 42.945259 -87.897163 0 68 16 192
2021-12-04 19:01:32 GMT 42.945210 -87.897339 0 72 17 192
2021-12-04 19:01:30 GMT 42.945190 -87.897430 0 69 18 192
2021-12-04 19:01:29 GMT 42.945160 -87.897530 0 70 18 192
2021-12-04 19:01:27 GMT 42.945099 -87.897743 0 72 19 192
2021-12-04 19:01:26 GMT 42.945068 -87.897850 0 74 19 192
2021-12-04 19:01:24 GMT 42.945042 -87.898079 0 70 21 192
2021-12-04 19:01:23 GMT 42.945000 -87.898193 0 70 21 192
2021-12-04 19:01:21 GMT 42.944931 -87.898438 0 73 21 192
2021-12-04 19:01:20 GMT 42.944901 -87.898560 0 73 21 192
2021-12-04 19:01:19 GMT 42.944881 -87.898689 0 72 22 192
2021-12-04 19:01:17 GMT 42.944820 -87.898956 0 71 20 192
2021-12-04 19:01:16 GMT 42.944778 -87.899101 0 70 19 192
2021-12-04 19:01:14 GMT 42.944729 -87.899307 0 71 19 192
2021-12-04 19:01:12 GMT 42.944672 -87.899551 0 71 19 192
2021-12-04 19:01:10 GMT 42.944611 -87.899780 0 73 19 192
2021-12-04 19:01:09 GMT 42.944592 -87.899902 0 70 18 192
2021-12-04 19:01:08 GMT 42.944561 -87.900009 0 71 18 192
2021-12-04 19:01:07 GMT 42.944538 -87.900131 0 70 17 192
2021-12-04 19:01:05 GMT 42.944481 -87.900330 0 71 17 192
2021-12-04 19:01:04 GMT 42.944462 -87.900436 0 71 17 192
2021-12-04 19:01:03 GMT 42.944431 -87.900528 0 74 17 192
2021-12-04 19:01:01 GMT 42.944389 -87.900757 0 70 15 192
2021-12-04 19:01:00 GMT 42.944370 -87.900848 0 68 15 192
2021-12-04 19:00:59 GMT 42.944340 -87.900932 0 68 17 192
2021-12-04 19:00:57 GMT 42.944260 -87.901154 0 72 14 192
2021-12-04 19:00:56 GMT 42.944260 -87.901230 0 72 14 192
2021-12-04 19:00:55 GMT 42.944241 -87.901314 0 71 15 192
2021-12-04 19:00:53 GMT 42.944191 -87.901497 0 71 13 192
2021-12-04 19:00:52 GMT 42.944172 -87.901573 0 70 13 192
2021-12-04 19:00:50 GMT 42.944130 -87.901733 0 74 13 192
2021-12-04 19:00:49 GMT 42.944092 -87.901810 0 77 12 192
2021-12-04 19:00:48 GMT 42.944099 -87.901871 0 73 14 192
2021-12-04 19:00:46 GMT 42.944061 -87.902061 0 69 12 192
2021-12-04 19:00:45 GMT 42.944038 -87.902138 0 69 10 192
2021-12-04 19:00:44 GMT 42.944000 -87.902252 0 76 12 192
2021-12-04 19:00:42 GMT 42.943989 -87.902367 0 70 10 192
2021-12-04 19:00:41 GMT 42.943981 -87.902412 0 71 11 192
2021-12-04 19:00:40 GMT 42.943932 -87.902542 0 75 10 192
2021-12-04 19:00:38 GMT 42.943939 -87.902611 0 66 10 192
2021-12-04 19:00:37 GMT 42.943920 -87.902687 0 69 8 192
2021-12-04 19:00:36 GMT 42.943890 -87.902779 0 70 8 192
2021-12-04 19:00:34 GMT 42.943871 -87.902832 0 70 7 192
2021-12-04 19:00:33 GMT 42.943871 -87.902901 0 66 5 192
2021-12-04 19:00:31 GMT 42.943840 -87.902977 0 63 3 192
2021-12-04 19:00:30 GMT 42.943829 -87.903008 0 63 2 192
2021-12-04 19:00:28 GMT 42.943810 -87.903061 0 63 1 192
2021-12-04 19:00:27 GMT 42.943821 -87.903091 0 64 1 192
2021-12-04 19:00:25 GMT 42.943790 -87.903069 0 65 0 192
2021-12-04 19:00:22 GMT 42.943802 -87.903069 0 65 0 192
2021-12-04 19:00:21 GMT 42.943810 -87.903069 0 65 0 192
2021-12-04 19:00:19 GMT 42.943779 -87.903069 0 64 1 192
2021-12-04 19:00:18 GMT 42.943810 -87.903061 0 63 0 192
2021-12-04 19:00:15 GMT 42.943821 -87.903061 0 63 0 192
2021-12-04 19:00:14 GMT 42.943821 -87.903053 0 62 0 192
2021-12-04 19:00:10 GMT 42.943821 -87.903061 0 62 0 192
2021-12-04 19:00:06 GMT 42.943821 -87.903069 0 62 0 192
2021-12-04 19:00:05 GMT 42.943810 -87.903069 0 62 0 192
2021-12-04 18:59:58 GMT 42.943821 -87.903061 0 62 0 192
2021-12-04 18:59:55 GMT 42.943829 -87.903061 0 62 0 192
2021-12-04 18:59:52 GMT 42.943821 -87.903069 0 62 0 192
2021-12-04 18:59:51 GMT 42.943821 -87.903061 0 62 0 192
2021-12-04 18:59:49 GMT 42.943829 -87.903053 0 62 0 192
2021-12-04 18:59:48 GMT 42.943821 -87.903053 0 62 0 192
2021-12-04 18:59:47 GMT 42.943810 -87.903053 0 62 1 192
2021-12-04 18:59:45 GMT 42.943829 -87.903053 0 62 0 192
2021-12-04 18:59:44 GMT 42.943821 -87.903053 0 62 0 192
2021-12-04 18:59:42 GMT 42.943829 -87.903053 0 63 3 192
2021-12-04 18:59:41 GMT 42.943810 -87.903053 0 62 4 192
2021-12-04 18:59:39 GMT 42.943821 -87.903069 0 62 5 192
2021-12-04 18:59:38 GMT 42.943821 -87.903091 0 60 7 192
2021-12-04 18:59:37 GMT 42.943810 -87.903122 0 65 8 192
2021-12-04 18:59:35 GMT 42.943779 -87.903191 0 70 10 192
2021-12-04 18:59:34 GMT 42.943722 -87.903267 0 82 7 192
2021-12-04 18:59:33 GMT 42.943748 -87.903282 0 73 11 192
2021-12-04 18:59:32 GMT 42.943729 -87.903343 0 74 12 192
2021-12-04 18:59:30 GMT 42.943710 -87.903458 0 72 14 192
2021-12-04 18:59:29 GMT 42.943699 -87.903542 0 72 15 192
2021-12-04 18:59:28 GMT 42.943649 -87.903732 0 71 14 192
2021-12-04 18:59:26 GMT 42.943649 -87.903793 0 67 17 192
2021-12-04 18:59:25 GMT 42.943600 -87.903877 0 74 18 192
2021-12-04 18:59:23 GMT 42.943550 -87.904068 0 73 20 192
2021-12-04 18:59:22 GMT 42.943531 -87.904213 0 72 19 192
2021-12-04 18:59:21 GMT 42.943501 -87.904327 0 72 18 192
2021-12-04 18:59:19 GMT 42.943451 -87.904556 0 71 18 192
2021-12-04 18:59:18 GMT 42.943420 -87.904663 0 73 18 192
2021-12-04 18:59:16 GMT 42.943378 -87.904892 0 70 17 192
2021-12-04 18:59:15 GMT 42.943359 -87.904999 0 67 16 192
2021-12-04 18:59:14 GMT 42.943329 -87.905098 0 67 16 192
2021-12-04 18:59:12 GMT 42.943272 -87.905289 0 68 15 192
2021-12-04 18:59:11 GMT 42.943249 -87.905373 0 69 16 192
2021-12-04 18:59:10 GMT 42.943211 -87.905479 0 74 14 192
2021-12-04 18:59:08 GMT 42.943192 -87.905640 0 70 14 192
2021-12-04 18:59:07 GMT 42.943161 -87.905739 0 72 12 192
2021-12-04 18:59:06 GMT 42.943130 -87.905830 0 74 11 192
2021-12-04 18:59:04 GMT 42.943100 -87.905952 0 77 12 192
2021-12-04 18:59:03 GMT 42.943081 -87.906036 0 75 11 192
2021-12-04 18:59:02 GMT 42.943062 -87.906189 0 69 10 192
2021-12-04 18:59:00 GMT 42.943062 -87.906273 0 66 9 192
2021-12-04 18:58:59 GMT 42.943031 -87.906311 0 70 9 192
2021-12-04 18:58:57 GMT 42.943001 -87.906410 0 73 9 192
2021-12-04 18:58:56 GMT 42.942959 -87.906479 0 79 7 192
2021-12-04 18:58:55 GMT 42.942970 -87.906540 0 70 6 192
2021-12-04 18:58:53 GMT 42.942951 -87.906631 0 92 3 192
2021-12-04 18:58:52 GMT 42.942940 -87.906647 0 95 3 192
2021-12-04 18:58:50 GMT 42.942940 -87.906700 0 103 1 192
2021-12-04 18:58:49 GMT 42.942921 -87.906708 0 106 2 192
2021-12-04 18:58:48 GMT 42.942909 -87.906731 0 107 0 192
2021-12-04 18:58:46 GMT 42.942909 -87.906738 0 107 0 192
2021-12-04 18:58:44 GMT 42.942921 -87.906738 0 107 0 192
2021-12-04 18:58:43 GMT 42.942921 -87.906731 0 107 0 192
2021-12-04 18:58:42 GMT 42.942909 -87.906754 0 107 1 192
2021-12-04 18:58:41 GMT 42.942902 -87.906731 0 107 1 192
2021-12-04 18:58:39 GMT 42.942902 -87.906754 0 102 1 192
2021-12-04 18:58:38 GMT 42.942909 -87.906754 0 98 2 192
2021-12-04 18:58:37 GMT 42.942909 -87.906723 0 95 0 192
2021-12-04 18:58:34 GMT 42.942902 -87.906723 0 93 0 192
2021-12-04 18:58:32 GMT 42.942909 -87.906700 0 94 3 192
2021-12-04 18:58:30 GMT 42.942909 -87.906731 0 92 3 192
2021-12-04 18:58:29 GMT 42.942890 -87.906754 0 87 4 192
2021-12-04 18:58:28 GMT 42.942902 -87.906769 0 81 6 192
2021-12-04 18:58:27 GMT 42.942879 -87.906776 0 77 8 192
2021-12-04 18:58:26 GMT 42.942879 -87.906860 0 61 12 192
2021-12-04 18:58:24 GMT 42.942890 -87.906921 0 50 14 192
2021-12-04 18:58:23 GMT 42.942848 -87.906960 0 54 15 192
2021-12-04 18:58:22 GMT 42.942768 -87.907089 0 47 15 192
2021-12-04 18:58:20 GMT 42.942719 -87.907158 0 43 15 192
2021-12-04 18:58:19 GMT 42.942699 -87.907219 0 32 17 192
2021-12-04 18:58:17 GMT 42.942509 -87.907402 0 6 16 192
2021-12-04 18:58:15 GMT 42.942459 -87.907417 0 358 18 192
2021-12-04 18:58:14 GMT 42.942390 -87.907448 0 348 19 192
2021-12-04 18:58:13 GMT 42.942329 -87.907440 0 345 20 192
2021-12-04 18:58:12 GMT 42.942150 -87.907387 0 331 17 192
2021-12-04 18:58:10 GMT 42.942089 -87.907341 0 328 17 192
2021-12-04 18:58:09 GMT 42.942001 -87.907257 0 320 14 192
2021-12-04 18:58:08 GMT 42.941910 -87.907150 0 302 14 192
2021-12-04 18:58:06 GMT 42.941830 -87.906982 0 279 12 192
2021-12-04 18:58:04 GMT 42.941792 -87.906891 0 265 12 192
2021-12-04 18:58:03 GMT 42.941792 -87.906769 0 261 12 192
2021-12-04 18:58:02 GMT 42.941799 -87.906578 0 253 16 192
2021-12-04 18:58:00 GMT 42.941818 -87.906487 0 250 19 192
2021-12-04 18:57:59 GMT 42.941830 -87.906349 0 247 22 192
2021-12-04 18:57:58 GMT 42.941921 -87.906052 0 250 28 192
2021-12-04 18:57:56 GMT 42.941971 -87.905891 0 250 33 192
2021-12-04 18:57:55 GMT 42.942009 -87.905724 0 251 41 192
2021-12-04 18:57:53 GMT 42.942131 -87.905273 0 251 54 192
2021-12-04 18:57:52 GMT 42.942188 -87.904984 0 251 61 192
2021-12-04 18:57:51 GMT 42.942291 -87.904633 0 252 64 -576
2021-12-04 18:57:49 GMT 42.942478 -87.903877 0 252 74 -576
2021-12-04 18:57:48 GMT 42.942570 -87.903503 0 252 82 -576
2021-12-04 18:57:46 GMT 42.942780 -87.902527 375 251 90 -576
2021-12-04 18:57:45 GMT 42.942921 -87.901993 375 251 91 192
2021-12-04 18:57:44 GMT 42.943008 -87.901466 375 250 96 192
2021-12-04 18:57:43 GMT 42.943321 -87.900330 375 251 99 192
2021-12-04 18:57:41 GMT 42.943459 -87.899757 350 251 101 192
2021-12-04 18:57:40 GMT 42.943611 -87.899147 350 251 103 192
2021-12-04 18:57:38 GMT 42.943920 -87.897942 350 252 107 192
2021-12-04 18:57:37 GMT 42.944069 -87.897308 350 252 110 -608
2021-12-04 18:57:36 GMT 42.944221 -87.896660 350 251 111 -608
2021-12-04 18:57:34 GMT 42.944538 -87.895370 375 251 116 -608
2021-12-04 18:57:33 GMT 42.944698 -87.894676 375 251 117 -608
2021-12-04 18:57:31 GMT 42.945042 -87.893303 375 251 119 -608
2021-12-04 18:57:30 GMT 42.945221 -87.892601 375 252 119 -608
2021-12-04 18:57:29 GMT 42.945400 -87.891891 375 252 119 -608
2021-12-04 18:57:28 GMT 42.945549 -87.891182 400 251 121 -608
2021-12-04 18:57:27 GMT 42.945919 -87.889717 425 251 119 -608
2021-12-04 18:57:25 GMT 42.946079 -87.889008 425 251 119 -608
2021-12-04 18:57:24 GMT 42.946442 -87.887611 450 251 122 -608
2021-12-04 18:57:23 GMT 42.946629 -87.886887 500 252 122 -608
2021-12-04 18:57:21 GMT 42.946812 -87.886169 500 252 124 -608
2021-12-04 18:57:20 GMT 42.947151 -87.884682 500 252 124 -608
2021-12-04 18:57:18 GMT 42.947311 -87.883926 500 251 123 -608
2021-12-04 18:57:17 GMT 42.947632 -87.882446 525 249 122 -608
2021-12-04 18:57:15 GMT 42.947842 -87.881760 525 250 125 -608
2021-12-04 18:57:14 GMT 42.948040 -87.881027 550 251 124 -608
2021-12-04 18:57:12 GMT 42.948391 -87.879494 575 250 120 -608
2021-12-04 18:57:11 GMT 42.948589 -87.878792 575 251 117 -608
2021-12-04 18:57:10 GMT 42.948761 -87.878090 575 250 118 -608
2021-12-04 18:57:08 GMT 42.949139 -87.876717 600 252 120 -608
2021-12-04 18:57:07 GMT 42.949299 -87.875977 625 251 121 -608
2021-12-04 18:57:06 GMT 42.949478 -87.875290 625 251 122 -608
2021-12-04 18:57:05 GMT 42.949821 -87.873840 650 250 123 -608
2021-12-04 18:57:03 GMT 42.950008 -87.873077 675 250 121 -608
2021-12-04 18:57:02 GMT 42.950180 -87.872353 675 250 120 -608
2021-12-04 18:57:00 GMT 42.950531 -87.870956 725 249 123 -608
2021-12-04 18:56:59 GMT 42.950748 -87.870277 725 252 126 -608
2021-12-04 18:56:58 GMT 42.951118 -87.868729 750 251 122 -608
2021-12-04 18:56:56 GMT 42.951279 -87.867989 750 250 122 -608
2021-12-04 18:56:55 GMT 42.951660 -87.866539 800 250 122 -608
2021-12-04 18:56:53 GMT 42.951870 -87.865784 800 252 120 -608
2021-12-04 18:56:52 GMT 42.952011 -87.865128 850 250 126 -608
2021-12-04 18:56:51 GMT 42.952209 -87.864326 850 250 122 -608
2021-12-04 18:56:49 GMT 42.952610 -87.862930 850 252 125 -608
2021-12-04 18:56:48 GMT 42.952759 -87.862167 850 251 125 -608
2021-12-04 18:56:47 GMT 42.952942 -87.861389 850 251 122 -608
2021-12-04 18:56:45 GMT 42.953308 -87.859901 900 251 119 -608
2021-12-04 18:56:44 GMT 42.953491 -87.859222 900 252 122 -608
2021-12-04 18:56:43 GMT 42.953831 -87.857742 900 252 120 -608
2021-12-04 18:56:41 GMT 42.954010 -87.857079 900 253 125 -608
2021-12-04 18:56:40 GMT 42.954159 -87.856300 900 251 124 -608
2021-12-04 18:56:39 GMT 42.954330 -87.855591 925 251 127 -608
2021-12-04 18:56:37 GMT 42.954708 -87.854057 925 253 123 -608
2021-12-04 18:56:36 GMT 42.955040 -87.852547 1,000 253 122 -608
2021-12-04 18:56:34 GMT 42.955189 -87.851837 1,000 254 123 -608
2021-12-04 18:56:33 GMT 42.955349 -87.851097 1,000 253 124 -608
2021-12-04 18:56:31 GMT 42.955650 -87.849571 1,000 250 124 -544
2021-12-04 18:56:30 GMT 42.955860 -87.848831 1,000 251 122 -544
2021-12-04 18:56:29 GMT 42.956032 -87.848091 1,100 251 123 -544
2021-12-04 18:56:28 GMT 42.956371 -87.846649 1,100 251 125 -544
2021-12-04 18:56:26 GMT 42.956558 -87.845879 1,100 251 124 -544
2021-12-04 18:56:25 GMT 42.956909 -87.844429 1,100 251 127 -544
2021-12-04 18:56:23 GMT 42.957119 -87.843620 1,100 252 121 -544
2021-12-04 18:56:22 GMT 42.957260 -87.842880 1,100 250 122 -544
2021-12-04 18:56:21 GMT 42.957439 -87.842140 1,100 249 121 -544
2021-12-04 18:56:19 GMT 42.958012 -87.840019 1,100 251 124 -544
2021-12-04 18:56:18 GMT 42.958149 -87.839256 1,100 249 125 -544
2021-12-04 18:56:16 GMT 42.958401 -87.838539 1,100 251 124 -544
2021-12-04 18:56:15 GMT 42.958790 -87.837044 1,200 251 124 -544
2021-12-04 18:56:13 GMT 42.958961 -87.836288 1,200 251 123 -544
2021-12-04 18:56:12 GMT 42.959141 -87.835571 1,200 251 124 -544
2021-12-04 18:56:10 GMT 42.959499 -87.834099 1,200 251 126 -544
2021-12-04 18:56:09 GMT 42.959690 -87.833351 1,200 251 126 -544
2021-12-04 18:56:08 GMT 42.960079 -87.831818 1,200 251 124 -544
2021-12-04 18:56:06 GMT 42.960239 -87.831131 1,300 251 127 -544
2021-12-04 18:56:05 GMT 42.960442 -87.830383 1,300 251 127 -544
2021-12-04 18:56:03 GMT 42.960831 -87.828873 1,300 251 127 -544
2021-12-04 18:56:02 GMT 42.960999 -87.828117 1,300 251 128 -544
2021-12-04 18:56:01 GMT 42.961189 -87.827316 1,300 251 126 -544
2021-12-04 18:55:59 GMT 42.961552 -87.825790 1,300 251 124 -544
2021-12-04 18:55:58 GMT 42.961750 -87.825027 1,300 251 122 -544
2021-12-04 18:55:57 GMT 42.961899 -87.824310 1,300 250 123 -544
2021-12-04 18:55:56 GMT 42.962090 -87.823532 1,300 250 121 -544
2021-12-04 18:55:54 GMT 42.962479 -87.822121 1,300 251 123 -544
2021-12-04 18:55:53 GMT 42.962681 -87.821350 1,300 251 121 -544
2021-12-04 18:55:52 GMT 42.963032 -87.819946 1,400 251 123 -544
2021-12-04 18:55:50 GMT 42.963200 -87.819160 1,400 251 121 -544
2021-12-04 18:55:49 GMT 42.963371 -87.818428 1,400 251 120 -544
2021-12-04 18:55:47 GMT 42.963718 -87.816994 1,400 250 121 -544
2021-12-04 18:55:46 GMT 42.963909 -87.816269 1,400 250 121 -544
2021-12-04 18:55:44 GMT 42.964279 -87.814827 1,400 250 120 -544
2021-12-04 18:55:41 GMT 42.964851 -87.812698 1,500 252 120 -544
2021-12-04 18:55:40 GMT 42.965031 -87.811989 1,500 252 121 -544
2021-12-04 18:55:39 GMT 42.965210 -87.811249 1,500 252 120 -544
2021-12-04 18:55:38 GMT 42.965351 -87.810532 1,500 251 120 -544
2021-12-04 18:55:36 GMT 42.965710 -87.809097 1,500 252 120 -544
2021-12-04 18:55:35 GMT 42.965881 -87.808357 1,500 252 119 -544
2021-12-04 18:55:34 GMT 42.966221 -87.806931 1,600 252 119 -544
2021-12-04 18:55:32 GMT 42.966381 -87.806198 1,600 252 118 -544
2021-12-04 18:55:31 GMT 42.966740 -87.804787 1,600 252 118 -96
2021-12-04 18:55:29 GMT 42.966881 -87.804062 1,700 251 117 -96
2021-12-04 18:55:28 GMT 42.967049 -87.803352 1,700 251 117 -96
2021-12-04 18:55:26 GMT 42.967388 -87.801941 1,700 251 117 -96
2021-12-04 18:55:25 GMT 42.967548 -87.801224 1,700 251 116 -96
2021-12-04 18:55:24 GMT 42.967709 -87.800522 1,700 251 115 -96
2021-12-04 18:55:22 GMT 42.968079 -87.799156 1,700 252 116 -96
2021-12-04 18:55:21 GMT 42.968231 -87.798492 1,700 252 118 -96
2021-12-04 18:55:19 GMT 42.968552 -87.797073 1,700 251 116 -96
2021-12-04 18:55:18 GMT 42.968731 -87.796379 1,700 252 117 -96
2021-12-04 18:55:17 GMT 42.968880 -87.795677 1,700 251 117 -96
2021-12-04 18:55:16 GMT 42.969231 -87.794273 1,900 252 117 -96
2021-12-04 18:55:14 GMT 42.969391 -87.793571 1,900 251 117 -96
2021-12-04 18:55:13 GMT 42.969559 -87.792877 1,900 252 118 -96
2021-12-04 18:55:11 GMT 42.969898 -87.791458 1,900 252 117 -96
2021-12-04 18:55:10 GMT 42.970070 -87.790787 1,900 252 119 -96
2021-12-04 18:55:09 GMT 42.970230 -87.790092 1,900 252 120 -96
2021-12-04 18:55:07 GMT 42.970570 -87.788628 1,900 252 119 -96
2021-12-04 18:55:06 GMT 42.970718 -87.787941 2,000 252 120 -96
2021-12-04 18:55:05 GMT 42.971050 -87.786499 2,000 251 121 -96
2021-12-04 18:55:03 GMT 42.971191 -87.785767 2,000 250 121 -96
2021-12-04 18:55:02 GMT 42.971378 -87.785072 2,000 251 122 -96
2021-12-04 18:55:01 GMT 42.971748 -87.783623 2,000 251 123 -96
2021-12-04 18:54:59 GMT 42.971920 -87.782890 2,000 251 124 -96
2021-12-04 18:54:58 GMT 42.972130 -87.782143 2,000 251 123 -96
2021-12-04 18:54:56 GMT 42.972481 -87.780670 2,000 251 122 -96
2021-12-04 18:54:55 GMT 42.972649 -87.779938 2,000 251 123 -96
2021-12-04 18:54:54 GMT 42.972839 -87.779213 2,000 252 123 -96
2021-12-04 18:54:53 GMT 42.973190 -87.777763 2,200 252 124 -96
2021-12-04 18:54:51 GMT 42.973339 -87.777023 2,200 251 124 -96
2021-12-04 18:54:49 GMT 42.973709 -87.775558 2,200 252 125 -96
2021-12-04 18:54:47 GMT 42.974072 -87.774063 2,200 253 126 -96
2021-12-04 18:54:46 GMT 42.974239 -87.773323 2,200 253 127 -96
2021-12-04 18:54:45 GMT 42.974579 -87.771767 2,200 252 127 -96
2021-12-04 18:54:43 GMT 42.974731 -87.771042 2,200 252 129 -96
2021-12-04 18:54:42 GMT 42.974892 -87.770248 2,200 252 129 -96
2021-12-04 18:54:41 GMT 42.975079 -87.769470 2,200 252 128 -96
2021-12-04 18:54:40 GMT 42.975460 -87.767899 2,200 252 126 -96
2021-12-04 18:54:38 GMT 42.975639 -87.767128 2,200 252 126 -96
2021-12-04 18:54:37 GMT 42.975800 -87.766373 2,200 252 126 -96
2021-12-04 18:54:35 GMT 42.976120 -87.764893 2,200 251 129 -96
2021-12-04 18:54:34 GMT 42.976299 -87.764107 2,200 251 129 -96
2021-12-04 18:54:32 GMT 42.976669 -87.762550 2,200 251 128 -96
2021-12-04 18:54:31 GMT 42.976860 -87.761787 2,200 251 128 -96
2021-12-04 18:54:30 GMT 42.977242 -87.760269 2,200 251 129 -192
2021-12-04 18:54:28 GMT 42.977451 -87.759491 2,200 251 128 -192
2021-12-04 18:54:27 GMT 42.977619 -87.758728 2,200 251 129 -192
2021-12-04 18:54:25 GMT 42.978001 -87.757179 2,200 251 127 -192
2021-12-04 18:54:24 GMT 42.978168 -87.756462 2,200 251 129 0
2021-12-04 18:54:23 GMT 42.978371 -87.755630 2,200 251 126 0
2021-12-04 18:54:22 GMT 42.978748 -87.754066 2,200 251 125 0
2021-12-04 18:54:20 GMT 42.978920 -87.753342 2,200 251 126 0
2021-12-04 18:54:19 GMT 42.979118 -87.752571 2,200 252 126 0
2021-12-04 18:54:17 GMT 42.979439 -87.751083 2,200 251 133 0
2021-12-04 18:54:16 GMT 42.979660 -87.750267 2,200 251 133 0
2021-12-04 18:54:15 GMT 42.979809 -87.749580 2,200 251 141 0
2021-12-04 18:54:13 GMT 42.980209 -87.747948 2,200 250 145 0
2021-12-04 18:54:12 GMT 42.980400 -87.747131 2,200 250 147 0
2021-12-04 18:54:07 GMT 42.981674 -87.742058 2,150 252 146 -64
2021-12-04 18:53:56 GMT 42.983776 -87.733612 2,175 252 146 -128
2021-12-04 18:53:46 GMT 42.986012 -87.724129 2,175 252 146 256
2021-12-04 18:53:41 GMT 42.986938 -87.720398 2,150 252 147 256
2021-12-04 18:53:31 GMT 42.989223 -87.710854 2,175 253 155 -64
2021-12-04 18:53:21 GMT 42.991425 -87.701622 2,150 252 157 -64
2021-12-04 18:53:18 GMT 42.992294 -87.698044 2,175 251 157 -64
2021-12-04 18:53:13 GMT 42.993038 -87.695091 2,175 251 157 -192
2021-12-04 18:53:09 GMT 42.994263 -87.690315 2,175 252 160 -64
2021-12-04 18:52:59 GMT 42.996552 -87.680801 2,150 253 172 -128
2021-12-04 18:52:53 GMT 42.997974 -87.674690 2,175 252 178 320
2021-12-04 18:52:49 GMT 42.999092 -87.670052 2,150 252 178 320
2021-12-04 18:52:38 GMT 43.002090 -87.658058 2,150 251 184 0
2021-12-04 18:52:28 GMT 43.004772 -87.647354 2,150 252 185 0
2021-12-04 18:52:17 GMT 43.007675 -87.635895 2,150 251 186 -64
2021-12-04 18:52:08 GMT 43.010422 -87.624016 2,175 256 185 -64
2021-12-04 18:51:57 GMT 43.012451 -87.612831 2,150 257 185 0
2021-12-04 18:51:51 GMT 43.013802 -87.605110 2,175 257 185 64
2021-12-04 18:51:47 GMT 43.014595 -87.600731 2,175 256 185 -64
2021-12-04 18:51:25 GMT 43.019348 -87.574707 2,175 257 189 0
2021-12-04 18:51:19 GMT 43.020355 -87.569145 2,175 257 190 -64
2021-12-04 18:51:08 GMT 43.022552 -87.556915 2,175 257 190 0
2021-12-04 18:49:25 GMT 43.043289 -87.438972 2,950 257 186 -1216
2021-12-04 18:49:17 GMT 43.045040 -87.429070 3,050 257 186 -1152
2021-12-04 18:49:16 GMT 43.045223 -87.427895 3,150 257 186 -1088
2021-12-04 18:49:11 GMT 43.046249 -87.422203 3,250 257 186 -1088
2021-12-04 18:49:04 GMT 43.047867 -87.413231 3,400 257 187 -1280
2021-12-04 18:49:01 GMT 43.048485 -87.409904 3,450 257 187 -1152
2021-12-04 18:48:54 GMT 43.049606 -87.403587 3,575 257 187 -1280
2021-12-04 18:48:47 GMT 43.051071 -87.395348 3,725 257 187 -1280
2021-12-04 18:48:36 GMT 43.053371 -87.382576 3,975 256 187 -1216
2021-12-04 18:48:26 GMT 43.055511 -87.371269 4,175 257 187 -1216
2021-12-04 18:48:21 GMT 43.056725 -87.364456 4,300 257 187 -1280
2021-12-04 18:48:17 GMT 43.057388 -87.360916 4,375 257 187 -1216
2021-12-04 18:48:09 GMT 43.059128 -87.351021 4,550 257 187 -1216
2021-12-04 18:47:59 GMT 43.061188 -87.339073 4,775 257 187 -1216
2021-12-04 18:47:54 GMT 43.061985 -87.334572 4,875 257 187 -1216
2021-12-04 18:47:50 GMT 43.062820 -87.329994 4,950 256 187 -1216
2021-12-04 18:47:46 GMT 43.063660 -87.325279 5,050 256 186 -1216
2021-12-04 18:47:41 GMT 43.064758 -87.319588 5,150 256 187 -1280
2021-12-04 18:47:36 GMT 43.065754 -87.314171 5,625 256 186 -1344
2021-12-04 18:47:32 GMT 43.066963 -87.307823 5,375 257 186 -1280
2021-12-04 18:47:27 GMT 43.067944 -87.302528 5,475 257 186 -1280
2021-12-04 18:47:24 GMT 43.068455 -87.299652 5,525 257 186 -1344
2021-12-04 18:47:18 GMT 43.069664 -87.292717 5,675 257 186 -1280
2021-12-04 18:47:13 GMT 43.070644 -87.287224 5,775 257 186 -1280
2021-12-04 18:47:10 GMT 43.071201 -87.284019 5,850 257 186 -1216
2021-12-04 18:47:06 GMT 43.072037 -87.279350 5,975 257 186 -1216
2021-12-04 18:47:00 GMT 43.073250 -87.272575 6,050 257 186 -1152
2021-12-04 18:46:55 GMT 43.074142 -87.267471 6,200 257 186 -1152
2021-12-04 18:46:50 GMT 43.075378 -87.260826 6,250 257 186 -1152
2021-12-04 18:46:44 GMT 43.076797 -87.253036 6,400 257 188 -1152
2021-12-04 18:46:40 GMT 43.077621 -87.248436 6,475 257 188 -1216
2021-12-04 18:46:35 GMT 43.078465 -87.243675 8,700 257 225 0
2021-12-04 18:46:29 GMT 43.079636 -87.236877 6,675 257 189 -1280
2021-12-04 18:46:26 GMT 43.080276 -87.233360 6,800 257 189 -1280
2021-12-04 18:46:23 GMT 43.081100 -87.228699 6,825 257 189 -1280
2021-12-04 18:46:15 GMT 43.082512 -87.220718 7,000 258 193 -1088
2021-12-04 18:46:14 GMT 43.082699 -87.219543 7,675 258 193 -1088
2021-12-04 18:46:10 GMT 43.083538 -87.214966 7,075 257 188 -1344
2021-12-04 18:46:07 GMT 43.084122 -87.211578 7,175 257 187 -1344
2021-12-04 18:46:04 GMT 43.084793 -87.207771 7,250 257 187 -1280
2021-12-04 18:45:56 GMT 43.086594 -87.197464 7,675 257 188 -1152
2021-12-04 18:45:53 GMT 43.086983 -87.195282 7,675 257 188 -1152
2021-12-04 18:45:43 GMT 43.089077 -87.183121 7,675 257 189 -1088
2021-12-04 18:45:42 GMT 43.089355 -87.181747 7,725 257 192 -1088
2021-12-04 18:45:36 GMT 43.090439 -87.175240 7,800 258 193 -1088
2021-12-04 18:45:33 GMT 43.091080 -87.171661 7,850 258 193 -1088
2021-12-04 18:45:26 GMT 43.092613 -87.162392 8,100 257 196 -1152
2021-12-04 18:45:23 GMT 43.093048 -87.159904 8,100 257 196 -1152
2021-12-04 18:45:20 GMT 43.093639 -87.156372 8,100 257 197 -1152
2021-12-04 18:45:15 GMT 43.094833 -87.149750 8,225 257 198 -1088
2021-12-04 18:45:11 GMT 43.095520 -87.145851 8,275 257 198 -1088
2021-12-04 18:45:09 GMT 43.095978 -87.143425 8,300 257 201 -1024
2021-12-04 18:45:05 GMT 43.096806 -87.138649 8,450 257 201 -1024
2021-12-04 18:45:02 GMT 43.097717 -87.133530 8,450 257 201 -1152
2021-12-04 18:44:55 GMT 43.099045 -87.125862 8,575 258 203 -1280
2021-12-04 18:44:54 GMT 43.099228 -87.124718 8,600 258 204 0
2021-12-04 18:44:51 GMT 43.099960 -87.120308 8,675 258 205 -1280
2021-12-04 18:44:45 GMT 43.101151 -87.113022 8,800 258 205 -1344
2021-12-04 18:44:42 GMT 43.102066 -87.107590 9,700 257 225 0
2021-12-04 18:44:37 GMT 43.102718 -87.103798 8,975 257 206 -1472
2021-12-04 18:44:34 GMT 43.103741 -87.097710 9,150 257 206 -1600
2021-12-04 18:44:31 GMT 43.104252 -87.094902 9,175 257 206 -1600
2021-12-04 18:44:30 GMT 43.104439 -87.093788 9,200 257 206 -1600
2021-12-04 18:44:29 GMT 43.106232 -87.083382 9,375 257 205 -1664
2021-12-04 18:44:23 GMT 43.106232 -87.083382 9,450 257 205 -1664
2021-12-04 18:44:20 GMT 43.107094 -87.078423 9,525 257 206 -1472
2021-12-04 18:44:17 GMT 43.107094 -87.078423 9,525 257 206 -1472
2021-12-04 18:44:16 GMT 43.107559 -87.075935 9,575 257 206 -1088
2021-12-04 18:44:11 GMT 43.108910 -87.068283 9,675 257 209 -320
2021-12-04 18:44:06 GMT 43.109802 -87.063263 9,675 257 225 0
2021-12-04 18:44:03 GMT 43.110718 -87.058029 9,675 257 225 0
2021-12-04 18:43:59 GMT 43.111679 -87.052727 9,675 257 225 0
2021-12-04 18:43:54 GMT 43.112640 -87.047554 9,675 257 227 64
2021-12-04 18:43:53 GMT 43.112869 -87.046211 9,675 257 227 64
2021-12-04 18:43:51 GMT 43.113422 -87.043304 9,675 257 227 64
2021-12-04 18:43:48 GMT 43.114170 -87.039116 9,675 257 230 0
2021-12-04 18:43:46 GMT 43.114655 -87.036377 9,675 257 232 0
2021-12-04 18:43:45 GMT 43.114868 -87.035133 9,675 257 235 0
2021-12-04 18:43:43 GMT 43.115658 -87.030815 9,675 257 235 0
2021-12-04 18:43:40 GMT 43.116669 -87.025131 9,675 257 237 -64
2021-12-04 18:43:37 GMT 43.116898 -87.023727 9,675 257 237 -64
2021-12-04 18:43:36 GMT 43.117195 -87.022118 9,675 257 238 0
2021-12-04 18:43:35 GMT 43.117565 -87.020027 9,675 257 238 0
2021-12-04 18:43:31 GMT 43.118500 -87.014595 9,675 257 240 0
2021-12-04 18:43:28 GMT 43.119244 -87.010345 9,675 257 240 0
2021-12-04 18:43:21 GMT 43.121151 -86.999359 9,675 257 240 64
2021-12-04 18:43:18 GMT 43.121849 -86.995567 9,675 257 240 64
2021-12-04 18:43:16 GMT 43.122410 -86.992294 9,675 257 240 64
2021-12-04 18:43:13 GMT 43.123711 -86.984909 9,675 257 240 -128
2021-12-04 18:43:09 GMT 43.123989 -86.983406 9,675 257 239 -192
2021-12-04 18:43:08 GMT 43.124542 -86.980354 9,675 257 239 -256
2021-12-04 18:42:58 GMT 43.127205 -86.964958 9,725 257 237 -64
2021-12-04 18:42:49 GMT 43.129486 -86.951935 9,725 257 236 -64
2021-12-04 18:42:46 GMT 43.130089 -86.948616 9,725 257 236 -64
2021-12-04 18:42:40 GMT 43.132874 -86.932770 9,725 257 235 64
2021-12-04 18:42:36 GMT 43.132874 -86.932770 9,725 257 232 0
2021-12-04 18:42:29 GMT 43.134430 -86.923828 9,725 257 235 0
2021-12-04 18:42:26 GMT 43.135208 -86.919487 9,725 257 234 -64
2021-12-04 18:42:21 GMT 43.136467 -86.912125 9,750 257 234 -64
2021-12-04 18:42:17 GMT 43.137268 -86.907669 9,750 257 233 64
2021-12-04 18:42:16 GMT 43.137772 -86.904793 9,750 257 233 64
2021-12-04 18:42:13 GMT 43.138515 -86.900352 9,750 257 233 64
2021-12-04 18:42:09 GMT 43.139603 -86.894188 9,725 257 233 64
2021-12-04 18:42:06 GMT 43.140289 -86.890167 9,725 257 233 0
2021-12-04 18:42:01 GMT 43.141754 -86.881546 9,725 258 230 -64
2021-12-04 18:41:58 GMT 43.142395 -86.877838 9,725 258 232 0
2021-12-04 18:41:52 GMT 43.143452 -86.871384 9,725 257 232 0
2021-12-04 18:41:49 GMT 43.144382 -86.865952 9,725 257 232 0
2021-12-04 18:41:45 GMT 43.145218 -86.861046 9,725 258 230 -64
2021-12-04 18:41:38 GMT 43.146988 -86.850784 9,725 257 232 64
2021-12-04 18:41:35 GMT 43.147827 -86.845940 9,725 257 232 64
2021-12-04 18:41:29 GMT 43.149307 -86.837212 9,725 257 230 0
2021-12-04 18:41:26 GMT 43.149994 -86.833252 9,725 257 230 0
2021-12-04 18:41:23 GMT 43.150574 -86.829727 9,725 257 230 0
2021-12-04 18:41:19 GMT 43.151733 -86.822716 9,725 258 230 -64
2021-12-04 18:41:14 GMT 43.152924 -86.815628 9,750 258 230 0
2021-12-04 18:41:06 GMT 43.154800 -86.804253 9,725 259 229 64
2021-12-04 18:41:03 GMT 43.155273 -86.800949 9,725 261 229 64
2021-12-04 18:40:58 GMT 43.156067 -86.793495 9,725 266 227 0
2021-12-04 18:40:53 GMT 43.156448 -86.785667 9,725 269 226 0
2021-12-04 18:40:46 GMT 43.156631 -86.775063 9,725 269 227 0
2021-12-04 18:40:42 GMT 43.156719 -86.771461 9,725 269 227 0
2021-12-04 18:40:37 GMT 43.156857 -86.763481 9,725 269 227 0
2021-12-04 18:40:33 GMT 43.156998 -86.756416 9,725 269 227 64
2021-12-04 18:40:27 GMT 43.157139 -86.749680 9,725 269 228 0
2021-12-04 18:40:24 GMT 43.157227 -86.745171 9,725 269 228 0
2021-12-04 18:40:21 GMT 43.157322 -86.740463 9,725 269 228 0
2021-12-04 18:40:14 GMT 43.157547 -86.729073 9,725 269 228 0
2021-12-04 18:40:11 GMT 43.157600 -86.724899 9,725 269 228 0
2021-12-04 18:40:06 GMT 43.157742 -86.718819 9,725 269 229 0
2021-12-04 18:40:01 GMT 43.157883 -86.711296 9,725 269 229 0
2021-12-04 18:39:56 GMT 43.158020 -86.704948 9,725 269 229 0
2021-12-04 18:39:53 GMT 43.158115 -86.698807 9,725 269 229 0
2021-12-04 18:39:47 GMT 43.158325 -86.689407 9,725 269 229 0
2021-12-04 18:39:44 GMT 43.158417 -86.685066 9,725 269 229 0
2021-12-04 18:39:41 GMT 43.158485 -86.681145 9,725 269 229 0
2021-12-04 18:39:33 GMT 43.158672 -86.671013 9,725 269 229 0
2021-12-04 18:39:30 GMT 43.158783 -86.667435 9,725 269 229 0
2021-12-04 18:39:26 GMT 43.158875 -86.660728 9,725 269 229 0
2021-12-04 18:39:22 GMT 43.159012 -86.654091 9,725 269 229 0
2021-12-04 18:39:12 GMT 43.159286 -86.640480 9,725 269 229 0
2021-12-04 18:39:08 GMT 43.159378 -86.633202 9,725 269 229 0
2021-12-04 18:39:05 GMT 43.159424 -86.630646 9,725 269 229 0
2021-12-04 18:39:01 GMT 43.159515 -86.623619 9,725 269 230 0
2021-12-04 18:38:58 GMT 43.159607 -86.619278 9,725 269 232 0
2021-12-04 18:38:55 GMT 43.159649 -86.616539 9,725 269 230 0
2021-12-04 18:38:49 GMT 43.159790 -86.607910 9,725 269 231 0
2021-12-04 18:38:45 GMT 43.159927 -86.601456 9,725 269 232 0
2021-12-04 18:38:40 GMT 43.160065 -86.592705 9,725 269 233 0
2021-12-04 18:38:31 GMT 43.160339 -86.579102 9,725 269 234 -64
2021-12-04 18:38:28 GMT 43.160351 -86.576843 9,725 269 235 0
2021-12-04 18:38:22 GMT 43.160522 -86.566902 9,725 269 235 64
2021-12-04 18:38:18 GMT 43.160580 -86.561737 9,725 270 236 64
2021-12-04 18:38:13 GMT 43.160721 -86.552124 9,725 269 237 0
2021-12-04 18:38:08 GMT 43.160843 -86.545692 9,725 269 237 0
2021-12-04 18:38:01 GMT 43.160999 -86.536560 9,725 269 238 0
2021-12-04 18:37:58 GMT 43.161095 -86.531136 9,725 269 239 0
2021-12-04 18:37:51 GMT 43.161282 -86.521454 9,725 269 239 -64
2021-12-04 18:37:48 GMT 43.161392 -86.515228 9,725 269 238 0
2021-12-04 18:37:42 GMT 43.161510 -86.507263 9,725 269 238 0
2021-12-04 18:37:39 GMT 43.161621 -86.502640 9,725 269 238 0
2021-12-04 18:37:34 GMT 43.161743 -86.494057 9,725 269 237 0
2021-12-04 18:37:30 GMT 43.161839 -86.489281 9,725 269 236 0
2021-12-04 18:37:26 GMT 43.161942 -86.484055 9,725 269 236 0
2021-12-04 18:37:21 GMT 43.162117 -86.474106 9,725 269 235 0
2021-12-04 18:37:15 GMT 43.162262 -86.465019 9,725 269 234 0
2021-12-04 18:37:10 GMT 43.162354 -86.459145 9,725 269 223 64
2021-12-04 18:37:06 GMT 43.162491 -86.453377 9,750 269 231 0
2021-12-04 18:37:00 GMT 43.162628 -86.444618 9,725 269 223 64
2021-12-04 18:36:55 GMT 43.162811 -86.436920 9,750 269 230 0
2021-12-04 18:36:50 GMT 43.162956 -86.429771 9,750 269 229 0
2021-12-04 18:36:39 GMT 43.163235 -86.414009 9,750 269 226 0
2021-12-04 18:36:34 GMT 43.163376 -86.408257 9,750 269 225 0
2021-12-04 18:36:28 GMT 43.163498 -86.399292 9,725 269 223 64
2021-12-04 18:36:24 GMT 43.163609 -86.392105 9,750 269 223 0
2021-12-04 18:36:19 GMT 43.163746 -86.385040 9,725 269 223 64
2021-12-04 18:36:13 GMT 43.163864 -86.377899 9,725 269 223 64
2021-12-04 18:36:07 GMT 43.164024 -86.368759 9,725 269 222 0
2021-12-04 18:36:04 GMT 43.164120 -86.364243 9,725 269 222 0
2021-12-04 18:35:59 GMT 43.164230 -86.357330 9,725 269 223 0
2021-12-04 18:35:55 GMT 43.164307 -86.352409 9,725 269 223 0
2021-12-04 18:35:52 GMT 43.164352 -86.348747 9,725 269 225 0
2021-12-04 18:35:48 GMT 43.164444 -86.341423 9,725 269 224 0
2021-12-04 18:35:42 GMT 43.164539 -86.334099 9,725 269 224 0
2021-12-04 18:35:35 GMT 43.164726 -86.323044 9,725 269 225 0
2021-12-04 18:35:32 GMT 43.164734 -86.320351 9,725 269 225 0
2021-12-04 18:35:22 GMT 43.165005 -86.305130 9,725 269 225 0
2021-12-04 18:35:15 GMT 43.165100 -86.296455 9,725 269 225 0
2021-12-04 18:35:12 GMT 43.165192 -86.290199 9,725 269 226 0
2021-12-04 18:35:04 GMT 43.165329 -86.278641 9,725 269 226 0
2021-12-04 18:35:00 GMT 43.165424 -86.274918 9,725 269 226 0
2021-12-04 18:34:55 GMT 43.165558 -86.265923 9,725 269 226 0
2021-12-04 18:34:51 GMT 43.165657 -86.260330 9,725 269 226 0
2021-12-04 18:34:48 GMT 43.165703 -86.256935 9,725 269 226 0
2021-12-04 18:34:45 GMT 43.165787 -86.252510 9,725 269 225 0
2021-12-04 18:34:42 GMT 43.165878 -86.246826 9,725 269 225 0
2021-12-04 18:34:39 GMT 43.165924 -86.242805 9,725 269 225 0
2021-12-04 18:34:34 GMT 43.166027 -86.236984 9,725 269 225 0
2021-12-04 18:34:29 GMT 43.166077 -86.230705 9,725 269 225 0
2021-12-04 18:34:25 GMT 43.166199 -86.223770 9,725 269 225 64
2021-12-04 18:34:20 GMT 43.166306 -86.215668 9,725 269 225 64
2021-12-04 18:34:15 GMT 43.166401 -86.208275 9,725 269 225 0
2021-12-04 18:34:08 GMT 43.166519 -86.200714 9,750 270 226 64
2021-12-04 18:34:02 GMT 43.166634 -86.190948 9,750 269 225 0
2021-12-04 18:33:58 GMT 43.166748 -86.184807 9,750 269 225 64
2021-12-04 18:33:52 GMT 43.166885 -86.176247 9,725 269 226 0
2021-12-04 18:33:47 GMT 43.166931 -86.171394 9,750 270 226 0
2021-12-04 18:33:42 GMT 43.167023 -86.163727 9,750 270 226 0
2021-12-04 18:33:36 GMT 43.167099 -86.155312 9,750 269 226 64
2021-12-04 18:33:32 GMT 43.167191 -86.148705 9,750 269 227 64
2021-12-04 18:33:28 GMT 43.167252 -86.141945 9,725 269 227 64
2021-12-04 18:33:23 GMT 43.167377 -86.134972 9,750 269 227 0
2021-12-04 18:33:20 GMT 43.167435 -86.130196 9,725 269 227 0
2021-12-04 18:33:14 GMT 43.167526 -86.121887 9,750 270 227 0
2021-12-04 18:33:10 GMT 43.167572 -86.117294 9,750 270 227 0
2021-12-04 18:33:07 GMT 43.167618 -86.112434 9,750 270 227 0
2021-12-04 18:33:02 GMT 43.167706 -86.105675 9,750 270 227 0
2021-12-04 18:32:58 GMT 43.167755 -86.099533 9,725 270 228 64
2021-12-04 18:32:55 GMT 43.167801 -86.096336 9,725 269 228 0
2021-12-04 18:32:49 GMT 43.167892 -86.087975 9,725 270 229 0
2021-12-04 18:32:46 GMT 43.167938 -86.082481 9,725 270 229 0
2021-12-04 18:32:41 GMT 43.168030 -86.073372 9,725 270 229 0
2021-12-04 18:32:35 GMT 43.168076 -86.065933 9,725 270 230 -64
2021-12-04 18:32:30 GMT 43.168167 -86.059441 9,725 268 231 0
2021-12-04 18:32:24 GMT 43.168442 -86.051376 9,725 267 231 0
2021-12-04 18:32:20 GMT 43.168728 -86.043617 9,725 267 232 0
2021-12-04 18:32:15 GMT 43.169006 -86.036293 9,725 267 232 0
2021-12-04 18:32:09 GMT 43.169334 -86.028641 9,725 267 233 0
2021-12-04 18:32:04 GMT 43.169678 -86.021477 9,725 267 233 0
2021-12-04 18:32:01 GMT 43.169907 -86.015862 9,725 267 233 0
2021-12-04 18:31:58 GMT 43.169998 -86.013496 9,725 267 233 0
2021-12-04 18:31:53 GMT 43.170273 -86.006088 9,725 267 234 0
2021-12-04 18:31:48 GMT 43.170685 -85.996788 9,725 267 234 0
2021-12-04 18:31:43 GMT 43.170963 -85.990318 9,725 267 234 0
2021-12-04 18:31:38 GMT 43.171280 -85.982452 9,725 267 235 64
2021-12-04 18:31:32 GMT 43.171616 -85.974884 9,725 267 235 0
2021-12-04 18:31:28 GMT 43.171940 -85.965988 9,725 267 235 0
2021-12-04 18:31:23 GMT 43.172264 -85.959122 9,725 267 236 0
2021-12-04 18:31:16 GMT 43.172653 -85.950005 9,725 267 236 0
2021-12-04 18:31:12 GMT 43.172882 -85.944061 9,725 267 236 -64
2021-12-04 18:31:06 GMT 43.173203 -85.936592 9,725 267 236 0
2021-12-04 18:31:02 GMT 43.173569 -85.928482 9,725 267 237 0
2021-12-04 18:30:57 GMT 43.173897 -85.920540 9,725 267 237 0
2021-12-04 18:30:51 GMT 43.174210 -85.912636 9,725 267 237 0
2021-12-04 18:30:45 GMT 43.174530 -85.904846 9,725 267 236 0
2021-12-04 18:30:40 GMT 43.174850 -85.897690 9,725 267 236 0
2021-12-04 18:30:36 GMT 43.175217 -85.889328 9,725 267 236 0
2021-12-04 18:30:31 GMT 43.175526 -85.881699 9,725 267 236 0
2021-12-04 18:30:25 GMT 43.175858 -85.873863 9,750 267 235 -64
2021-12-04 18:30:20 GMT 43.176174 -85.866524 9,750 268 235 0
2021-12-04 18:30:15 GMT 43.176456 -85.858543 9,750 267 234 64
2021-12-04 18:30:10 GMT 43.176773 -85.851318 9,750 267 234 0
2021-12-04 18:30:07 GMT 43.176968 -85.846710 9,750 267 234 0
2021-12-04 18:30:03 GMT 43.177185 -85.840652 9,750 268 234 0
2021-12-04 18:29:59 GMT 43.177387 -85.836052 9,750 268 234 0
2021-12-04 18:29:54 GMT 43.177711 -85.827812 9,750 267 234 128
2021-12-04 18:29:48 GMT 43.178040 -85.820091 9,725 267 234 64
2021-12-04 18:29:44 GMT 43.178364 -85.812447 9,725 267 234 0
2021-12-04 18:29:39 GMT 43.178696 -85.804306 9,725 267 233 -64
2021-12-04 18:29:36 GMT 43.178833 -85.800926 9,725 267 233 -64
2021-12-04 18:29:33 GMT 43.178970 -85.797340 9,725 267 233 0
2021-12-04 18:29:27 GMT 43.179340 -85.788963 9,725 267 233 64
2021-12-04 18:29:23 GMT 43.179657 -85.781891 9,725 267 232 0
2021-12-04 18:29:18 GMT 43.179947 -85.774124 9,725 267 232 -64
2021-12-04 18:29:12 GMT 43.180298 -85.765152 9,750 267 231 0
2021-12-04 18:29:05 GMT 43.180740 -85.754501 9,750 267 231 64
2021-12-04 18:29:01 GMT 43.180923 -85.750710 9,750 267 231 0
2021-12-04 18:28:55 GMT 43.181297 -85.741951 9,750 267 230 0
2021-12-04 18:28:52 GMT 43.181530 -85.736458 9,750 267 230 0
2021-12-04 18:28:47 GMT 43.181808 -85.728867 9,725 267 229 0
2021-12-04 18:28:41 GMT 43.182137 -85.721024 9,725 267 229 0
2021-12-04 18:28:33 GMT 43.182587 -85.710220 9,725 267 228 0
2021-12-04 18:28:30 GMT 43.182789 -85.705460 9,725 267 228 0
2021-12-04 18:28:26 GMT 43.183067 -85.697937 9,725 267 228 0
2021-12-04 18:28:21 GMT 43.183346 -85.691002 9,725 267 228 0
2021-12-04 18:28:13 GMT 43.183823 -85.679947 9,750 268 228 0
2021-12-04 18:28:09 GMT 43.183998 -85.675766 9,750 268 228 0
2021-12-04 18:28:04 GMT 43.184277 -85.667656 9,750 268 228 128
2021-12-04 18:28:00 GMT 43.184509 -85.661057 9,725 267 228 256
2021-12-04 18:27:52 GMT 43.184967 -85.649925 9,675 267 231 64
2021-12-04 18:27:49 GMT 43.185116 -85.645950 9,675 267 231 64
2021-12-04 18:27:44 GMT 43.185440 -85.638626 9,675 267 231 0
2021-12-04 18:27:40 GMT 43.185654 -85.632362 9,675 267 232 0
2021-12-04 18:27:37 GMT 43.185791 -85.629166 9,675 267 232 0
2021-12-04 18:27:33 GMT 43.186138 -85.621361 9,675 267 232 0
2021-12-04 18:27:29 GMT 43.186386 -85.615303 9,675 267 233 0
2021-12-04 18:27:21 GMT 43.186844 -85.603806 9,675 268 233 0
2021-12-04 18:27:18 GMT 43.186977 -85.599846 9,675 268 233 0
2021-12-04 18:27:13 GMT 43.187256 -85.592781 9,675 268 233 0
2021-12-04 18:27:08 GMT 43.187534 -85.584480 9,675 268 234 0
2021-12-04 18:27:02 GMT 43.187805 -85.577553 9,675 268 234 0
2021-12-04 18:26:57 GMT 43.188080 -85.569572 9,675 268 234 0
2021-12-04 18:26:50 GMT 43.188492 -85.558266 9,675 268 235 0
2021-12-04 18:26:46 GMT 43.188652 -85.554001 9,675 268 235 0
2021-12-04 18:26:42 GMT 43.188976 -85.546089 9,675 268 235 0
2021-12-04 18:26:37 GMT 43.189178 -85.540192 9,675 267 235 -64
2021-12-04 18:26:34 GMT 43.189407 -85.534248 9,675 267 235 0
2021-12-04 18:26:31 GMT 43.189545 -85.530670 9,675 267 235 0
2021-12-04 18:26:28 GMT 43.189774 -85.524986 9,675 267 235 64
2021-12-04 18:26:25 GMT 43.189861 -85.522743 9,675 267 236 64
2021-12-04 18:26:19 GMT 43.190327 -85.511757 9,675 267 236 64
2021-12-04 18:26:14 GMT 43.190655 -85.503387 9,675 267 236 -64
2021-12-04 18:26:10 GMT 43.190781 -85.499634 9,675 267 236 -64
2021-12-04 18:26:07 GMT 43.191029 -85.494431 9,675 268 235 0
2021-12-04 18:26:04 GMT 43.191120 -85.491158 9,675 268 235 0
2021-12-04 18:25:57 GMT 43.191631 -85.478081 9,675 268 235 0
2021-12-04 18:25:54 GMT 43.191677 -85.476578 9,675 267 235 64
2021-12-04 18:25:50 GMT 43.191959 -85.468857 9,675 267 235 0
2021-12-04 18:25:46 GMT 43.192154 -85.464241 9,675 267 235 0
2021-12-04 18:25:43 GMT 43.192329 -85.460228 9,675 268 235 0
2021-12-04 18:25:37 GMT 43.192703 -85.450256 9,675 268 234 0
2021-12-04 18:25:32 GMT 43.192936 -85.443878 9,675 268 234 0
2021-12-04 18:25:27 GMT 43.193310 -85.434135 9,675 268 234 0
2021-12-04 18:25:24 GMT 43.193481 -85.429558 9,675 268 234 0
2021-12-04 18:25:16 GMT 43.193821 -85.419945 9,675 267 234 0
2021-12-04 18:25:13 GMT 43.194054 -85.414322 9,675 267 234 0
2021-12-04 18:25:09 GMT 43.194286 -85.408699 9,675 268 234 0
2021-12-04 18:25:06 GMT 43.194443 -85.404137 9,700 267 234 0
2021-12-04 18:25:03 GMT 43.194626 -85.399414 9,700 268 234 0
2021-12-04 18:24:58 GMT 43.194939 -85.391563 9,700 268 234 0
2021-12-04 18:24:55 GMT 43.195030 -85.388618 9,700 268 234 0
2021-12-04 18:24:51 GMT 43.195267 -85.383125 9,700 268 234 0
2021-12-04 18:24:48 GMT 43.195450 -85.377960 9,700 268 234 0
2021-12-04 18:24:45 GMT 43.195633 -85.373672 9,700 268 234 0
2021-12-04 18:24:35 GMT 43.196182 -85.357956 9,700 268 234 0
2021-12-04 18:24:31 GMT 43.196426 -85.350883 9,700 268 234 0
2021-12-04 18:24:26 GMT 43.196594 -85.345245 9,700 268 234 0
2021-12-04 18:24:23 GMT 43.196732 -85.342178 9,700 268 234 0
2021-12-04 18:24:20 GMT 43.196915 -85.337006 9,700 268 234 64
2021-12-04 18:24:16 GMT 43.197144 -85.330490 9,700 268 234 0
2021-12-04 18:24:12 GMT 43.197327 -85.325188 9,700 268 234 0
2021-12-04 18:24:06 GMT 43.197731 -85.314987 9,700 268 234 -64
2021-12-04 18:24:03 GMT 43.197876 -85.310371 9,700 268 234 0
2021-12-04 18:23:55 GMT 43.198242 -85.300797 9,700 268 234 64
2021-12-04 18:23:52 GMT 43.198429 -85.294846 9,700 268 234 64
2021-12-04 18:23:45 GMT 43.198883 -85.283417 9,700 268 235 0
2021-12-04 18:23:41 GMT 43.199081 -85.277382 9,700 268 235 -64
2021-12-04 18:23:34 GMT 43.199406 -85.268425 9,700 268 235 0
2021-12-04 18:23:31 GMT 43.199547 -85.263718 9,700 268 235 0
2021-12-04 18:23:21 GMT 43.200027 -85.249886 9,700 268 235 0
2021-12-04 18:23:15 GMT 43.200439 -85.239471 9,700 268 235 0
2021-12-04 18:23:12 GMT 43.200623 -85.234428 9,700 268 235 0
2021-12-04 18:23:01 GMT 43.201126 -85.219284 9,700 268 235 0
2021-12-04 18:22:53 GMT 43.201584 -85.207085 9,700 268 234 0
2021-12-04 18:22:50 GMT 43.201721 -85.202682 9,700 268 234 0
2021-12-04 18:22:40 GMT 43.202198 -85.188904 9,700 268 233 -64
2021-12-04 18:22:30 GMT 43.202728 -85.173492 9,700 268 231 0
2021-12-04 18:22:23 GMT 43.203094 -85.162376 9,700 268 230 64
2021-12-04 18:22:20 GMT 43.203270 -85.158760 9,700 268 230 64
2021-12-04 18:22:11 GMT 43.203735 -85.146149 9,700 268 229 0
2021-12-04 18:22:07 GMT 43.203922 -85.141037 9,700 268 228 0
2021-12-04 18:22:00 GMT 43.204285 -85.129669 9,700 268 227 0
2021-12-04 18:21:56 GMT 43.204468 -85.125328 9,700 268 227 0
2021-12-04 18:21:52 GMT 43.204712 -85.118080 9,700 268 225 0
2021-12-04 18:21:49 GMT 43.204880 -85.113068 9,700 268 224 0
2021-12-04 18:21:39 GMT 43.205318 -85.101082 9,700 268 222 0
2021-12-04 18:21:35 GMT 43.205475 -85.095879 9,700 268 222 0
2021-12-04 18:21:30 GMT 43.205795 -85.086617 9,700 268 222 0
2021-12-04 18:21:20 GMT 43.206207 -85.073395 9,700 268 222 0
2021-12-04 18:21:15 GMT 43.206436 -85.066437 9,700 268 222 0
2021-12-04 18:21:09 GMT 43.206711 -85.058838 9,700 268 222 0
2021-12-04 18:21:06 GMT 43.206802 -85.055191 9,700 268 223 0
2021-12-04 18:21:00 GMT 43.207180 -85.044640 9,700 268 223 0
2021-12-04 18:20:54 GMT 43.207458 -85.036995 9,700 268 224 0
2021-12-04 18:20:48 GMT 43.207787 -85.028229 9,700 268 224 0
2021-12-04 18:20:45 GMT 43.207924 -85.023720 9,700 268 224 0
2021-12-04 18:20:38 GMT 43.208252 -85.014366 9,700 268 224 0
2021-12-04 18:20:35 GMT 43.208439 -85.008743 9,700 268 224 0
2021-12-04 18:20:32 GMT 43.208496 -85.006584 9,700 268 224 0
2021-12-04 18:20:29 GMT 43.208996 -84.991997 9,700 268 224 0
2021-12-04 18:20:22 GMT 43.208996 -84.991997 9,700 268 224 0
2021-12-04 18:20:18 GMT 43.209229 -84.985893 9,700 268 224 0
2021-12-04 18:20:15 GMT 43.209366 -84.980782 9,700 268 224 0
2021-12-04 18:20:12 GMT 43.209503 -84.977074 9,700 268 224 0
2021-12-04 18:20:08 GMT 43.209694 -84.971535 9,700 268 224 64
2021-12-04 18:20:04 GMT 43.209835 -84.966431 9,700 268 224 64
2021-12-04 18:20:00 GMT 43.210007 -84.961494 9,700 268 224 64
2021-12-04 18:19:57 GMT 43.210205 -84.956230 9,700 268 224 0
2021-12-04 18:19:52 GMT 43.210392 -84.950279 9,700 268 224 0
2021-12-04 18:19:46 GMT 43.210785 -84.939072 9,700 268 225 0
2021-12-04 18:19:37 GMT 43.211231 -84.926933 9,700 268 225 0
2021-12-04 18:19:31 GMT 43.211510 -84.919281 9,700 268 225 0
2021-12-04 18:19:26 GMT 43.211746 -84.912308 9,700 268 225 0
2021-12-04 18:19:21 GMT 43.211975 -84.905151 9,700 268 225 0
2021-12-04 18:19:14 GMT 43.212341 -84.894936 9,700 268 225 0
2021-12-04 18:19:11 GMT 43.212479 -84.890656 9,700 268 225 0
2021-12-04 18:19:06 GMT 43.212765 -84.882530 9,700 268 225 0
2021-12-04 18:19:00 GMT 43.212997 -84.875923 9,700 268 225 0
2021-12-04 18:18:54 GMT 43.213257 -84.867531 9,700 268 226 0
2021-12-04 18:18:51 GMT 43.213440 -84.862106 9,700 268 226 0
2021-12-04 18:18:45 GMT 43.213715 -84.852966 9,700 268 226 0
2021-12-04 18:18:41 GMT 43.213943 -84.846962 9,700 268 226 0
2021-12-04 18:18:34 GMT 43.214256 -84.838516 9,700 268 226 0
2021-12-04 18:18:29 GMT 43.214493 -84.830933 9,700 268 226 -64
2021-12-04 18:18:23 GMT 43.214767 -84.823349 9,700 268 226 0
2021-12-04 18:18:20 GMT 43.214909 -84.817917 9,700 268 226 64
2021-12-04 18:18:14 GMT 43.215233 -84.808434 9,700 268 227 0
2021-12-04 18:18:10 GMT 43.215420 -84.802422 9,700 268 227 0
2021-12-04 18:18:03 GMT 43.215698 -84.793526 9,700 268 227 0
2021-12-04 18:17:58 GMT 43.215866 -84.787628 9,700 268 227 0
2021-12-04 18:17:50 GMT 43.216232 -84.774979 9,700 268 231 0
2021-12-04 18:17:47 GMT 43.216324 -84.771530 9,700 268 228 0
2021-12-04 18:17:42 GMT 43.216583 -84.763901 9,700 268 228 0
2021-12-04 18:17:39 GMT 43.216782 -84.758247 9,700 268 228 0
2021-12-04 18:17:31 GMT 43.217102 -84.748474 9,700 268 229 0
2021-12-04 18:17:27 GMT 43.217281 -84.742783 9,700 268 229 0
2021-12-04 18:17:21 GMT 43.217560 -84.732384 9,700 268 230 0
2021-12-04 18:17:17 GMT 43.217701 -84.727676 9,700 268 230 0
2021-12-04 18:17:11 GMT 43.218025 -84.718391 9,700 268 231 0
2021-12-04 18:17:08 GMT 43.218201 -84.713280 9,700 268 231 0
2021-12-04 18:17:00 GMT 43.218521 -84.703316 9,700 268 231 0
2021-12-04 18:16:57 GMT 43.218678 -84.697922 9,700 268 232 0
2021-12-04 18:16:51 GMT 43.218979 -84.688370 9,700 268 232 0
2021-12-04 18:16:46 GMT 43.219162 -84.682167 9,700 268 232 0
2021-12-04 18:16:40 GMT 43.219421 -84.673264 9,700 268 232 0
2021-12-04 18:16:36 GMT 43.219666 -84.667221 9,700 268 232 0
2021-12-04 18:16:29 GMT 43.219936 -84.658028 9,700 268 231 0
2021-12-04 18:16:26 GMT 43.220123 -84.652733 9,700 268 228 0
2021-12-04 18:16:19 GMT 43.220398 -84.642952 9,700 268 230 0
2021-12-04 18:16:16 GMT 43.220535 -84.637711 9,700 268 230 0
2021-12-04 18:16:06 GMT 43.221004 -84.622124 9,700 268 229 0
2021-12-04 18:15:59 GMT 43.221313 -84.612419 9,700 268 229 0
2021-12-04 18:15:55 GMT 43.221451 -84.607498 9,700 268 228 0
2021-12-04 18:15:48 GMT 43.221771 -84.597733 9,700 268 227 64
2021-12-04 18:15:44 GMT 43.221935 -84.592697 9,700 268 225 -192
2021-12-04 18:15:35 GMT 43.222404 -84.578117 9,725 268 224 -192
2021-12-04 18:15:28 GMT 43.222687 -84.567833 9,750 268 221 -64
2021-12-04 18:15:24 GMT 43.222820 -84.563469 11,275 268 220 -2048
2021-12-04 18:15:17 GMT 43.223103 -84.553726 9,775 268 220 -448
2021-12-04 18:15:13 GMT 43.223240 -84.548691 9,800 268 220 -640
2021-12-04 18:15:04 GMT 43.223557 -84.534813 10,025 269 223 -2048
2021-12-04 18:14:56 GMT 43.223831 -84.524719 10,300 268 222 -2176
2021-12-04 18:14:53 GMT 43.223923 -84.519928 10,425 269 222 -2176
2021-12-04 18:14:46 GMT 43.224125 -84.509972 10,675 269 221 -2176
2021-12-04 18:14:43 GMT 43.224216 -84.505791 10,775 269 220 -2112
2021-12-04 18:14:36 GMT 43.224472 -84.494507 11,075 268 220 -2048
2021-12-04 18:14:33 GMT 43.224590 -84.491013 11,150 268 220 -1984
2021-12-04 18:14:29 GMT 43.224701 -84.486717 11,275 268 220 -2048
2021-12-04 18:14:22 GMT 43.224976 -84.476624 12,200 268 219 -1984
2021-12-04 18:14:14 GMT 43.225296 -84.465187 11,800 268 221 -1984
2021-12-04 18:14:11 GMT 43.225430 -84.461647 12,200 268 219 -1984
2021-12-04 18:14:05 GMT 43.225754 -84.451645 12,125 268 219 -1984
2021-12-04 18:14:01 GMT 43.225937 -84.447372 12,800 269 215 -1920
2021-12-04 18:13:54 GMT 43.226219 -84.437584 12,450 268 217 -1984
2021-12-04 18:13:51 GMT 43.226349 -84.433319 12,550 268 217 -1984
2021-12-04 18:13:43 GMT 43.226669 -84.422905 12,825 268 215 -1984
2021-12-04 18:13:39 GMT 43.226780 -84.417900 12,925 269 215 -1920
2021-12-04 18:13:32 GMT 43.227013 -84.408417 13,150 269 214 -1728
2021-12-04 18:13:29 GMT 43.227127 -84.402016 13,275 269 213 -1600
2021-12-04 18:13:20 GMT 43.227402 -84.391541 13,500 268 213 -1600
2021-12-04 18:13:13 GMT 43.227676 -84.381325 13,700 268 213 -1536
2021-12-04 18:13:10 GMT 43.227768 -84.377808 13,775 268 213 -1600
2021-12-04 18:13:00 GMT 43.228134 -84.363693 14,375 268 220 -1664
2021-12-04 18:12:52 GMT 43.228409 -84.353485 14,250 268 217 -1536
2021-12-04 18:12:47 GMT 43.228546 -84.347404 14,375 268 220 -1664
2021-12-04 18:12:42 GMT 43.228775 -84.339043 14,525 269 220 -1600
2021-12-04 18:12:38 GMT 43.228828 -84.335243 15,550 268 221 -1664
2021-12-04 18:12:31 GMT 43.229141 -84.324219 14,825 268 222 -1600
2021-12-04 18:12:28 GMT 43.229244 -84.319542 14,900 269 223 -1600
2021-12-04 18:12:21 GMT 43.229481 -84.309410 15,100 269 224 -1728
2021-12-04 18:12:17 GMT 43.229553 -84.304993 15,200 269 224 -1536
2021-12-04 18:12:10 GMT 43.229759 -84.294960 15,375 269 226 -1536
2021-12-04 18:12:07 GMT 43.229851 -84.291489 15,475 269 231 -1600
2021-12-04 18:12:00 GMT 43.230103 -84.280464 15,650 268 228 -1664
2021-12-04 18:11:57 GMT 43.230270 -84.275078 15,750 268 228 -1600
2021-12-04 18:11:50 GMT 43.230515 -84.265388 15,925 269 230 -1600
2021-12-04 18:11:46 GMT 43.230652 -84.259834 16,025 269 230 -1600
2021-12-04 18:11:39 GMT 43.230927 -84.249931 16,200 269 231 -1600
2021-12-04 18:11:36 GMT 43.231018 -84.246422 16,350 269 232 -1600
2021-12-04 18:11:25 GMT 43.231621 -84.222496 16,600 268 234 -1600
2021-12-04 18:11:18 GMT 43.231758 -84.218056 16,775 268 233 -1600
2021-12-04 18:11:13 GMT 43.231995 -84.211250 16,900 268 234 -1600
2021-12-04 18:11:06 GMT 43.232319 -84.200851 17,100 268 234 -1600
2021-12-04 18:10:58 GMT 43.232738 -84.189018 17,300 268 234 -1600
2021-12-04 18:10:55 GMT 43.232876 -84.185486 17,375 268 234 -1600
2021-12-04 18:10:50 GMT 43.233078 -84.178207 17,500 268 234 -1600
2021-12-04 18:10:45 GMT 43.233353 -84.169899 17,650 268 234 -1600
2021-12-04 18:10:42 GMT 43.233490 -84.165298 17,750 268 234 -1600
2021-12-04 18:10:35 GMT 43.233810 -84.154190 17,950 268 234 -1600
2021-12-04 18:10:27 GMT 43.234177 -84.142693 18,150 268 234 -1600
2021-12-04 18:10:24 GMT 43.234322 -84.138992 18,375 268 233 -1600
2021-12-04 18:10:18 GMT 43.234554 -84.130684 18,375 269 233 -1600
2021-12-04 18:10:13 GMT 43.234737 -84.123619 18,500 268 233 -1600
2021-12-04 18:10:04 GMT 43.235157 -84.108910 18,775 268 232 -1600
2021-12-04 18:09:57 GMT 43.235413 -84.099068 19,550 268 229 -1664
2021-12-04 18:09:53 GMT 43.235531 -84.094002 19,100 269 230 -1600
2021-12-04 18:09:48 GMT 43.235764 -84.085564 19,175 268 229 -1600
2021-12-04 18:09:43 GMT 43.235962 -84.078751 19,300 268 229 -1600
2021-12-04 18:09:40 GMT 43.236145 -84.074409 19,375 268 229 -1600
2021-12-04 18:09:33 GMT 43.236462 -84.063263 19,600 268 229 -1600
2021-12-04 18:09:26 GMT 43.236649 -84.054993 19,925 269 230 -1664
2021-12-04 18:09:22 GMT 43.236786 -84.048607 19,875 269 230 -1600
2021-12-04 18:09:18 GMT 43.236881 -84.043190 19,975 269 231 -1664
2021-12-04 18:09:13 GMT 43.237061 -84.036598 20,100 268 232 -1664
2021-12-04 18:09:10 GMT 43.237251 -84.030045 20,225 268 232 -1728
2021-12-04 18:09:05 GMT 43.237438 -84.023239 20,400 268 233 -1728
2021-12-04 18:09:02 GMT 43.237564 -84.018707 20,425 268 233 -1728
2021-12-04 18:08:58 GMT 43.237747 -84.013412 20,525 268 234 -1728
2021-12-04 18:08:54 GMT 43.237999 -84.002907 20,675 269 234 -1664
2021-12-04 18:08:51 GMT 43.237999 -84.002907 20,725 269 234 -1600
2021-12-04 18:08:48 GMT 43.238136 -83.998459 20,800 269 235 -1600
2021-12-04 18:08:42 GMT 43.238277 -83.990410 20,975 269 237 -960
2021-12-04 18:08:37 GMT 43.238697 -83.973473 21,000 269 242 -192
2021-12-04 18:08:31 GMT 43.238743 -83.971970 21,025 269 242 -192
2021-12-04 18:08:20 GMT 43.239071 -83.956535 26,125 269 244 -256
2021-12-04 18:08:12 GMT 43.239395 -83.942825 21,075 269 244 -512
2021-12-04 18:08:09 GMT 43.239487 -83.938950 21,100 269 244 -704
2021-12-04 18:08:03 GMT 43.239716 -83.929222 21,225 269 245 -1664
2021-12-04 18:08:00 GMT 43.239807 -83.924561 21,300 269 244 -1920
2021-12-04 18:07:55 GMT 43.239952 -83.918221 21,450 268 243 -2112
2021-12-04 18:07:51 GMT 43.240173 -83.911018 21,600 268 243 -2112
2021-12-04 18:07:45 GMT 43.240650 -83.894279 21,975 268 243 -2048
2021-12-04 18:07:38 GMT 43.240723 -83.891922 22,025 268 243 -2048
2021-12-04 18:07:34 GMT 43.240952 -83.885468 22,175 268 243 -2048
2021-12-04 18:07:29 GMT 43.241226 -83.876846 22,375 268 243 -2048
2021-12-04 18:07:24 GMT 43.241398 -83.870544 22,500 268 243 -2048
2021-12-04 18:07:15 GMT 43.241776 -83.854744 22,850 269 243 -2112
2021-12-04 18:07:11 GMT 43.241909 -83.849358 23,075 269 242 -2112
2021-12-04 18:07:07 GMT 43.242004 -83.844910 23,075 269 242 -2112
2021-12-04 18:07:04 GMT 43.242142 -83.839546 23,200 269 241 -2048
2021-12-04 18:07:01 GMT 43.242279 -83.833282 23,350 269 240 -2048
2021-12-04 18:06:58 GMT 43.242374 -83.829147 23,425 269 239 -2112
2021-12-04 18:06:53 GMT 43.242512 -83.823265 23,575 269 238 -1984
2021-12-04 18:06:47 GMT 43.242744 -83.813911 23,775 269 237 -1728
2021-12-04 18:06:44 GMT 43.242874 -83.807930 23,875 269 236 -1472
2021-12-04 18:06:39 GMT 43.243057 -83.799561 23,975 269 238 -256
2021-12-04 18:06:36 GMT 43.243103 -83.797195 24,000 269 237 -448
2021-12-04 18:06:31 GMT 43.243305 -83.789452 24,000 269 241 -64
2021-12-04 18:06:26 GMT 43.243469 -83.780777 24,000 269 244 -128
2021-12-04 18:06:23 GMT 43.243607 -83.775864 24,025 269 245 -192
2021-12-04 18:06:20 GMT 43.243652 -83.772095 24,025 269 245 -192
2021-12-04 18:06:16 GMT 43.243816 -83.766373 24,025 269 246 -128
2021-12-04 18:06:11 GMT 43.244064 -83.756508 24,050 268 249 -320
2021-12-04 18:06:05 GMT 43.244236 -83.750023 24,100 268 252 -768
2021-12-04 18:06:02 GMT 43.244373 -83.744003 24,150 268 255 -1088
2021-12-04 18:05:59 GMT 43.244514 -83.739494 24,200 268 256 -1472
2021-12-04 18:05:56 GMT 43.244610 -83.733604 24,325 269 258 -1984
2021-12-04 18:05:49 GMT 43.244843 -83.723213 24,525 269 259 -2048
2021-12-04 18:05:43 GMT 43.245255 -83.703941 24,925 269 262 -1984
2021-12-04 18:05:38 GMT 43.245255 -83.702919 24,950 269 262 -1984
2021-12-04 18:05:34 GMT 43.245354 -83.698097 24,975 269 262 -1984
2021-12-04 18:05:29 GMT 43.245495 -83.689796 25,225 269 264 -1984
2021-12-04 18:05:25 GMT 43.245667 -83.681900 25,375 269 266 -1984
2021-12-04 18:05:22 GMT 43.245758 -83.676918 25,475 269 266 -1984
2021-12-04 18:05:18 GMT 43.245865 -83.672333 25,550 269 267 -1984
2021-12-04 18:05:12 GMT 43.246170 -83.652458 25,950 269 270 -1984
2021-12-04 18:05:07 GMT 43.246189 -83.651604 25,975 269 271 -1984
2021-12-04 18:05:01 GMT 43.246353 -83.642876 26,200 269 273 -1984
2021-12-04 18:04:57 GMT 43.246426 -83.636887 26,250 269 273 -1984
2021-12-04 18:04:54 GMT 43.246609 -83.629234 26,400 269 275 -1984
2021-12-04 18:04:50 GMT 43.246765 -83.621796 26,550 269 284 -2048
2021-12-04 18:04:47 GMT 43.246841 -83.619164 26,575 269 277 -1984
2021-12-04 18:04:43 GMT 43.247028 -83.610733 26,750 269 278 -1984
2021-12-04 18:04:40 GMT 43.247124 -83.605499 26,850 269 279 -1984
2021-12-04 18:04:37 GMT 43.247223 -83.600334 26,950 269 279 -1984
2021-12-04 18:04:33 GMT 43.247356 -83.592422 27,100 269 281 -2048
2021-12-04 18:04:30 GMT 43.247543 -83.582581 27,250 269 282 -2048
2021-12-04 18:04:27 GMT 43.247543 -83.582581 27,275 269 283 -2048
2021-12-04 18:04:23 GMT 43.247726 -83.574570 27,450 269 284 -2048
2021-12-04 18:04:19 GMT 43.247818 -83.568977 27,750 269 285 -1984
2021-12-04 18:04:16 GMT 43.247910 -83.564308 27,775 269 287 -1984
2021-12-04 18:04:11 GMT 43.248100 -83.555405 28,000 269 289 -2048
2021-12-04 18:04:07 GMT 43.248276 -83.545723 27,975 269 289 -2048
2021-12-04 18:04:02 GMT 43.248425 -83.536446 28,125 269 291 -2048
2021-12-04 18:03:59 GMT 43.248550 -83.530716 28,250 269 291 -2048
2021-12-04 18:03:56 GMT 43.248657 -83.526833 28,525 269 293 -1984
2021-12-04 18:03:51 GMT 43.248825 -83.517044 28,500 269 294 -1984
2021-12-04 18:03:46 GMT 43.248985 -83.507996 28,650 269 294 -1984
2021-12-04 18:03:43 GMT 43.249123 -83.502762 28,750 269 295 -1984
2021-12-04 18:03:40 GMT 43.249218 -83.498314 28,825 269 296 -1984
2021-12-04 18:03:36 GMT 43.249420 -83.487602 29,025 269 302 -2048
2021-12-04 18:03:29 GMT 43.249683 -83.474648 29,275 269 299 -1984
2021-12-04 18:03:26 GMT 43.249741 -83.471825 29,550 269 300 -1984
2021-12-04 18:03:23 GMT 43.249916 -83.464050 29,425 269 300 -1984
2021-12-04 18:03:20 GMT 43.250015 -83.459305 29,525 269 300 -1984
2021-12-04 18:03:17 GMT 43.250099 -83.454178 29,725 269 301 -1984
2021-12-04 18:03:12 GMT 43.250336 -83.444626 29,775 269 302 -2048
2021-12-04 18:03:08 GMT 43.250565 -83.434517 29,950 269 303 -1984
2021-12-04 18:03:05 GMT 43.250656 -83.428772 30,050 269 304 -2048
2021-12-04 18:02:58 GMT 43.250893 -83.418602 30,225 268 304 -1984
2021-12-04 18:02:54 GMT 43.251404 -83.400490 30,750 268 305 -1984
2021-12-04 18:02:50 GMT 43.251404 -83.400490 30,550 268 305 -1984
2021-12-04 18:02:43 GMT 43.251709 -83.388527 30,750 269 304 -1984
2021-12-04 18:02:39 GMT 43.251965 -83.378517 30,925 269 303 -1984
2021-12-04 18:02:36 GMT 43.252121 -83.373009 31,025 268 302 -1984
2021-12-04 18:02:28 GMT 43.252430 -83.359550 31,250 268 298 -1984
2021-12-04 18:02:24 GMT 43.252625 -83.353271 31,375 268 297 -1984
2021-12-04 18:02:18 GMT 43.252945 -83.339859 31,600 269 293 -1984
2021-12-04 18:02:14 GMT 43.253082 -83.333389 31,725 269 291 -1984
2021-12-04 18:02:06 GMT 43.253452 -83.316910 32,175 269 281 -1984
2021-12-04 18:02:02 GMT 43.253540 -83.311310 32,275 269 282 -1984
2021-12-04 18:01:58 GMT 43.253677 -83.304153 32,275 269 282 -1984
2021-12-04 18:01:54 GMT 43.253872 -83.296120 32,425 269 279 -1984
2021-12-04 18:01:47 GMT 43.254150 -83.283493 32,650 268 276 -1920
2021-12-04 18:01:44 GMT 43.254246 -83.280357 32,775 269 275 -1920
2021-12-04 18:01:40 GMT 43.254478 -83.270615 32,900 269 273 -1920
2021-12-04 18:01:36 GMT 43.254616 -83.264725 33,000 269 274 -1920
2021-12-04 18:01:32 GMT 43.254944 -83.250206 33,175 269 271 -1920
2021-12-04 18:01:26 GMT 43.255177 -83.241966 33,325 269 271 -1920
2021-12-04 18:01:23 GMT 43.255280 -83.236702 33,550 269 271 -1920
2021-12-04 18:01:16 GMT 43.255409 -83.231049 33,650 269 271 -1920
2021-12-04 18:01:12 GMT 43.255554 -83.224373 33,825 269 271 -1920
2021-12-04 18:01:08 GMT 43.255733 -83.216988 33,925 269 271 -1920
2021-12-04 18:01:04 GMT 43.255829 -83.211662 34,025 269 271 -1920
2021-12-04 18:01:01 GMT 43.255966 -83.204765 34,225 269 272 -1920
2021-12-04 18:00:56 GMT 43.256058 -83.197868 34,300 269 273 -1920
2021-12-04 18:00:53 GMT 43.256199 -83.191483 34,575 269 274 -1984
2021-12-04 18:00:50 GMT 43.256241 -83.187134 34,650 269 275 -1920
2021-12-04 18:00:46 GMT 43.256432 -83.178276 34,700 269 277 -1920
2021-12-04 18:00:43 GMT 43.256561 -83.173912 34,750 269 277 -1920
2021-12-04 18:00:40 GMT 43.256664 -83.168465 34,850 269 278 -1920
2021-12-04 18:00:37 GMT 43.256790 -83.162994 34,950 269 279 -1856
2021-12-04 18:00:34 GMT 43.256882 -83.158394 35,025 269 280 -1856
2021-12-04 18:00:29 GMT 43.257065 -83.150284 35,175 269 281 -1920
2021-12-04 18:00:24 GMT 43.257271 -83.139427 35,375 269 283 -1920
2021-12-04 18:00:21 GMT 43.257362 -83.134392 35,475 269 284 -1984
2021-12-04 18:00:18 GMT 43.257523 -83.123390 35,575 270 287 -2048
2021-12-04 18:00:15 GMT 43.257523 -83.123390 35,725 269 286 -2048
2021-12-04 18:00:12 GMT 43.257595 -83.118507 35,800 270 287 -2048
2021-12-04 18:00:09 GMT 43.257645 -83.112358 35,900 270 287 -2048
2021-12-04 18:00:05 GMT 43.257690 -83.107254 36,000 270 288 -2048
2021-12-04 18:00:01 GMT 43.257797 -83.099434 36,350 270 292 -1984
2021-12-04 17:59:58 GMT 43.257877 -83.093719 36,250 270 291 -1984
2021-12-04 17:59:53 GMT 43.257923 -83.085609 36,400 270 292 -1984
2021-12-04 17:59:50 GMT 43.258015 -83.077827 36,575 270 295 -2048
2021-12-04 17:59:47 GMT 43.258060 -83.074104 36,575 270 295 -2048
2021-12-04 17:59:44 GMT 43.258209 -83.060089 36,825 270 297 -2048
2021-12-04 17:59:40 GMT 43.258209 -83.060089 37,000 270 299 -2048
2021-12-04 17:59:37 GMT 43.258255 -83.055237 36,950 270 298 -2048
2021-12-04 17:59:33 GMT 43.258293 -83.047485 37,150 270 300 -2048
2021-12-04 17:59:30 GMT 43.258434 -83.036041 37,425 270 302 -2048
2021-12-04 17:59:27 GMT 43.258434 -83.036041 37,975 269 304 -1536
2021-12-04 17:59:22 GMT 43.258526 -83.027275 37,550 270 302 -2048
2021-12-04 17:59:19 GMT 43.258621 -83.021385 37,650 269 303 -1920
2021-12-04 17:59:16 GMT 43.258667 -83.015442 37,675 269 303 -1920
2021-12-04 17:59:13 GMT 43.258896 -83.001450 37,850 269 303 -1856
2021-12-04 17:59:09 GMT 43.258896 -83.001450 37,925 269 304 -1408
2021-12-04 17:59:06 GMT 43.258991 -82.995689 37,975 269 305 -832
2021-12-04 17:59:02 GMT 43.259087 -82.987778 38,000 269 306 -64
2021-12-04 17:58:59 GMT 43.259228 -82.981956 38,000 269 307 64
2021-12-04 17:58:55 GMT 43.259365 -82.972282 38,000 269 307 -64
2021-12-04 17:58:51 GMT 43.259445 -82.967407 38,000 269 307 -64
2021-12-04 17:58:48 GMT 43.259537 -82.961983 38,000 269 306 0
2021-12-04 17:58:45 GMT 43.259598 -82.955605 38,000 269 306 0
2021-12-04 17:58:42 GMT 43.259739 -82.947823 38,000 269 306 0
2021-12-04 17:58:38 GMT 43.259811 -82.940643 38,000 269 306 0
2021-12-04 17:58:35 GMT 43.259903 -82.935219 38,000 269 306 0
2021-12-04 17:58:31 GMT 43.260040 -82.927490 38,000 269 306 64
2021-12-04 17:58:28 GMT 43.260132 -82.921677 38,000 269 306 0
2021-12-04 17:58:25 GMT 43.260223 -82.916245 38,000 269 306 0
2021-12-04 17:58:22 GMT 43.260296 -82.909111 38,000 269 306 0
2021-12-04 17:58:19 GMT 43.260387 -82.904465 38,000 269 306 64
2021-12-04 17:58:15 GMT 43.260529 -82.894791 38,000 269 306 64
2021-12-04 17:58:11 GMT 43.260620 -82.887856 38,000 269 306 64
2021-12-04 17:58:07 GMT 43.260715 -82.880859 38,000 269 306 0
2021-12-04 17:58:03 GMT 43.260818 -82.875237 38,000 269 306 0
2021-12-04 17:58:00 GMT 43.260902 -82.868111 38,000 269 306 0
2021-12-04 17:57:57 GMT 43.261002 -82.860931 38,000 269 306 0
2021-12-04 17:57:53 GMT 43.261089 -82.855354 38,000 269 306 0
2021-12-04 17:57:49 GMT 43.261185 -82.848160 38,000 269 306 -64
2021-12-04 17:57:46 GMT 43.261368 -82.834229 38,000 269 306 0
2021-12-04 17:57:43 GMT 43.261368 -82.834229 38,000 269 306 0
2021-12-04 17:57:40 GMT 43.261459 -82.827652 38,000 269 306 0
2021-12-04 17:57:35 GMT 43.261600 -82.820107 38,000 269 306 0
2021-12-04 17:57:32 GMT 43.261688 -82.813728 38,000 269 306 0
2021-12-04 17:57:28 GMT 43.262203 -82.782310 38,000 269 305 0
2021-12-04 17:57:22 GMT 43.262203 -82.782310 38,000 269 304 0
2021-12-04 17:57:16 GMT 43.262283 -82.774826 38,000 269 304 64
2021-12-04 17:57:12 GMT 43.262283 -82.774826 38,000 269 304 64
2021-12-04 17:57:09 GMT 43.262421 -82.767487 38,000 269 304 64
2021-12-04 17:57:05 GMT 43.262466 -82.761734 38,000 269 304 0
2021-12-04 17:57:01 GMT 43.262577 -82.755363 38,000 269 304 0
2021-12-04 17:56:58 GMT 43.262695 -82.747871 38,000 269 304 0
2021-12-04 17:56:54 GMT 43.262810 -82.740395 38,000 269 304 0
2021-12-04 17:56:51 GMT 43.262901 -82.733849 38,000 269 303 0
2021-12-04 17:56:46 GMT 43.263107 -82.717216 38,000 269 303 0
2021-12-04 17:56:43 GMT 43.263107 -82.717216 38,000 269 303 0
2021-12-04 17:56:40 GMT 43.263153 -82.714081 38,000 269 303 0
2021-12-04 17:56:36 GMT 43.263290 -82.704887 38,000 269 303 0
2021-12-04 17:56:33 GMT 43.263382 -82.699585 38,000 269 303 0
2021-12-04 17:56:30 GMT 43.263462 -82.694023 38,000 269 303 -64
2021-12-04 17:56:27 GMT 43.263508 -82.689056 38,000 269 302 0
2021-12-04 17:56:24 GMT 43.263611 -82.682724 38,000 269 302 64
2021-12-04 17:56:20 GMT 43.263702 -82.676971 38,000 270 302 64
2021-12-04 17:56:17 GMT 43.263794 -82.669754 38,000 270 302 64
2021-12-04 17:56:14 GMT 43.263885 -82.663239 38,000 270 302 64
2021-12-04 17:56:11 GMT 43.263927 -82.658455 38,000 270 302 64
2021-12-04 17:56:06 GMT 43.264114 -82.643379 38,000 269 302 0
2021-12-04 17:56:03 GMT 43.264114 -82.643379 38,000 269 302 0
2021-12-04 17:56:00 GMT 43.264301 -82.630135 38,000 269 302 64
2021-12-04 17:55:56 GMT 43.264301 -82.630135 38,000 269 302 0
2021-12-04 17:55:51 GMT 43.264526 -82.618462 38,000 270 302 0
2021-12-04 17:55:46 GMT 43.264618 -82.610481 38,000 270 302 0
2021-12-04 17:55:43 GMT 43.264709 -82.603195 38,000 270 302 0
2021-12-04 17:55:40 GMT 43.264767 -82.599205 38,000 270 302 0
2021-12-04 17:55:36 GMT 43.264858 -82.590836 38,000 269 302 0
2021-12-04 17:55:31 GMT 43.264984 -82.583015 38,000 269 302 64
2021-12-04 17:55:28 GMT 43.265278 -82.570564 38,000 269 302 64
2021-12-04 17:55:25 GMT 43.265278 -82.570564 38,000 269 302 0
2021-12-04 17:55:21 GMT 43.265442 -82.563530 38,000 269 302 0
2021-12-04 17:55:18 GMT 43.265579 -82.555931 38,000 269 302 0
2021-12-04 17:55:15 GMT 43.265671 -82.551331 38,000 269 302 0
2021-12-04 17:55:12 GMT 43.265835 -82.543877 38,000 269 302 0
2021-12-04 17:55:09 GMT 43.265884 -82.540085 38,000 269 302 0
2021-12-04 17:55:05 GMT 43.266037 -82.531082 38,000 269 302 64
2021-12-04 17:55:01 GMT 43.266174 -82.524826 38,000 269 302 64
2021-12-04 17:54:57 GMT 43.266312 -82.518120 38,000 269 302 64
2021-12-04 17:54:52 GMT 43.266720 -82.498428 38,000 269 302 0
2021-12-04 17:54:48 GMT 43.266720 -82.498428 38,000 269 302 0
2021-12-04 17:54:44 GMT 43.266861 -82.491737 38,000 269 302 0
2021-12-04 17:54:40 GMT 43.266998 -82.483910 38,000 269 302 0
2021-12-04 17:54:37 GMT 43.267090 -82.479538 38,000 269 302 64
2021-12-04 17:54:34 GMT 43.267227 -82.471489 38,000 269 303 0
2021-12-04 17:54:28 GMT 43.267559 -82.455269 38,000 269 303 0
2021-12-04 17:54:25 GMT 43.267685 -82.447029 38,000 269 303 64
2021-12-04 17:54:21 GMT 43.267685 -82.447029 38,000 269 303 64
2021-12-04 17:54:17 GMT 43.267883 -82.438789 38,000 269 303 0
2021-12-04 17:54:13 GMT 43.267979 -82.432640 38,000 269 303 0
2021-12-04 17:54:10 GMT 43.268097 -82.426712 38,000 269 303 0
2021-12-04 17:54:07 GMT 43.268211 -82.421921 38,000 269 303 0
2021-12-04 17:54:03 GMT 43.268417 -82.412537 38,000 269 303 0
2021-12-04 17:53:58 GMT 43.268581 -82.403938 38,000 269 303 0
2021-12-04 17:53:55 GMT 43.268692 -82.399506 38,000 269 303 0
2021-12-04 17:53:51 GMT 43.268864 -82.392036 38,000 269 303 -64
2021-12-04 17:53:48 GMT 43.269001 -82.383987 38,000 269 303 -64
2021-12-04 17:53:45 GMT 43.269142 -82.378235 38,000 269 303 -64
2021-12-04 17:53:41 GMT 43.269234 -82.372810 38,000 269 303 0
2021-12-04 17:53:36 GMT 43.269424 -82.361504 38,000 269 303 0
2021-12-04 17:53:32 GMT 43.269562 -82.353645 38,000 269 303 0
2021-12-04 17:53:27 GMT 43.269745 -82.344429 38,000 269 303 0
2021-12-04 17:53:24 GMT 43.269840 -82.337563 38,000 269 304 0
2021-12-04 17:53:21 GMT 43.269932 -82.333305 38,000 269 304 64
2021-12-04 17:53:18 GMT 43.270065 -82.326241 38,000 269 304 64
2021-12-04 17:53:14 GMT 43.270164 -82.319511 38,000 269 304 64
2021-12-04 17:53:11 GMT 43.270306 -82.313759 38,000 269 304 0
2021-12-04 17:53:07 GMT 43.270386 -82.307014 38,000 269 304 0
2021-12-04 17:53:03 GMT 43.270538 -82.299889 38,000 269 304 0
2021-12-04 17:52:57 GMT 43.270798 -82.286575 38,000 269 305 0
2021-12-04 17:52:54 GMT 43.270935 -82.280060 38,000 269 305 -64
2021-12-04 17:52:51 GMT 43.271004 -82.276352 38,000 269 304 0
2021-12-04 17:52:45 GMT 43.271301 -82.262688 38,000 269 304 0
2021-12-04 17:52:41 GMT 43.271439 -82.255791 38,000 269 304 0
2021-12-04 17:52:36 GMT 43.271610 -82.247116 38,000 269 304 -64
2021-12-04 17:52:33 GMT 43.271713 -82.239632 38,000 269 304 0
2021-12-04 17:52:30 GMT 43.271839 -82.233253 38,000 269 304 0
2021-12-04 17:52:26 GMT 43.271935 -82.227501 38,000 269 304 64
2021-12-04 17:52:23 GMT 43.272034 -82.221550 38,000 269 304 128
2021-12-04 17:52:20 GMT 43.272121 -82.217102 38,000 269 304 128
2021-12-04 17:52:16 GMT 43.272263 -82.207306 38,000 269 305 64
2021-12-04 17:52:12 GMT 43.272400 -82.200165 38,000 269 305 -64
2021-12-04 17:52:08 GMT 43.272541 -82.193626 38,000 269 305 -64
2021-12-04 17:52:05 GMT 43.272675 -82.186867 38,000 269 305 0
2021-12-04 17:52:02 GMT 43.272820 -82.179764 38,000 269 305 0
2021-12-04 17:51:59 GMT 43.272903 -82.173775 38,000 269 305 0
2021-12-04 17:51:55 GMT 43.273006 -82.167404 38,000 269 305 0
2021-12-04 17:51:51 GMT 43.273098 -82.160469 38,000 269 305 0
2021-12-04 17:51:48 GMT 43.273224 -82.154099 38,000 269 305 -64
2021-12-04 17:51:43 GMT 43.273407 -82.142921 38,000 269 305 64
2021-12-04 17:51:40 GMT 43.273472 -82.138893 38,000 269 305 64
2021-12-04 17:51:37 GMT 43.273544 -82.133659 38,000 269 306 0
2021-12-04 17:51:34 GMT 43.273636 -82.127083 38,000 269 306 64
2021-12-04 17:51:31 GMT 43.273773 -82.120506 38,000 269 306 64
2021-12-04 17:51:28 GMT 43.273842 -82.114494 38,000 269 306 64
2021-12-04 17:51:24 GMT 43.273983 -82.107567 38,000 269 306 -64
2021-12-04 17:51:21 GMT 43.274075 -82.101357 38,000 269 306 -64
2021-12-04 17:51:17 GMT 43.274216 -82.094421 38,000 269 306 0
2021-12-04 17:51:12 GMT 43.274357 -82.083565 38,000 269 306 0
2021-12-04 17:51:09 GMT 43.274414 -82.079109 38,000 269 306 64
2021-12-04 17:51:06 GMT 43.274494 -82.073891 38,000 269 306 64
2021-12-04 17:51:03 GMT 43.274590 -82.067284 38,000 269 307 64
2021-12-04 17:51:00 GMT 43.274689 -82.060272 38,000 269 307 0
2021-12-04 17:50:57 GMT 43.274826 -82.054268 38,000 269 307 -64
2021-12-04 17:50:51 GMT 43.275009 -82.043404 38,000 269 307 0
2021-12-04 17:50:48 GMT 43.275051 -82.039360 38,000 269 307 0
2021-12-04 17:50:44 GMT 43.275238 -82.028267 38,000 269 307 128
2021-12-04 17:50:41 GMT 43.275375 -82.022072 37,975 269 307 64
2021-12-04 17:50:38 GMT 43.275425 -82.019936 38,000 269 307 -128
2021-12-04 17:50:35 GMT 43.275520 -82.012939 38,000 269 307 -192
2021-12-04 17:50:31 GMT 43.275650 -82.005722 38,000 270 307 -192
2021-12-04 17:50:28 GMT 43.275742 -81.999146 38,000 270 307 -192
2021-12-04 17:50:24 GMT 43.275787 -81.992500 38,025 269 307 -64
2021-12-04 17:50:21 GMT 43.275890 -81.986519 38,000 269 307 128
2021-12-04 17:50:18 GMT 43.276016 -81.978127 38,000 269 307 64
2021-12-04 17:50:15 GMT 43.276108 -81.971550 38,000 269 307 64
2021-12-04 17:50:11 GMT 43.276218 -81.966316 38,000 269 308 -64
2021-12-04 17:50:08 GMT 43.276310 -81.959312 38,000 269 307 -64
2021-12-04 17:50:04 GMT 43.276402 -81.953499 38,000 270 309 -64
2021-12-04 17:49:58 GMT 43.276588 -81.938713 38,000 269 308 64
2021-12-04 17:49:55 GMT 43.276657 -81.933800 38,000 269 308 64
2021-12-04 17:49:50 GMT 43.276886 -81.918663 38,000 269 308 64
2021-12-04 17:49:47 GMT 43.276886 -81.918663 38,000 269 308 64
2021-12-04 17:49:44 GMT 43.276932 -81.913551 38,000 270 309 -128
2021-12-04 17:49:40 GMT 43.277115 -81.898735 38,000 270 309 -128
2021-12-04 17:49:37 GMT 43.277115 -81.898735 38,025 270 309 -64
2021-12-04 17:49:33 GMT 43.277195 -81.893074 38,025 270 309 -64
2021-12-04 17:49:30 GMT 43.277298 -81.886215 38,000 269 309 128
2021-12-04 17:49:27 GMT 43.277344 -81.879570 38,000 269 309 128
2021-12-04 17:49:24 GMT 43.277435 -81.872925 38,000 269 310 128
2021-12-04 17:49:19 GMT 43.277615 -81.863319 38,000 269 310 -64
2021-12-04 17:49:16 GMT 43.277660 -81.858604 38,000 270 310 -64
2021-12-04 17:49:13 GMT 43.277756 -81.852936 38,000 270 310 -64
2021-12-04 17:49:09 GMT 43.277847 -81.843544 38,000 270 310 -64
2021-12-04 17:49:06 GMT 43.277893 -81.837814 38,000 269 311 64
2021-12-04 17:49:02 GMT 43.277985 -81.831924 38,000 270 310 0
2021-12-04 17:48:59 GMT 43.278076 -81.824638 38,000 269 311 64
2021-12-04 17:48:56 GMT 43.278168 -81.818382 38,000 269 311 64
2021-12-04 17:48:53 GMT 43.278217 -81.812309 38,000 269 311 64
2021-12-04 17:48:48 GMT 43.278351 -81.803818 38,000 269 312 0
2021-12-04 17:48:45 GMT 43.278488 -81.796341 38,000 269 312 64
2021-12-04 17:48:41 GMT 43.278545 -81.791382 38,000 269 312 0
2021-12-04 17:48:38 GMT 43.278671 -81.783699 38,000 269 312 0
2021-12-04 17:48:34 GMT 43.278824 -81.775620 38,000 269 312 -64
2021-12-04 17:48:31 GMT 43.278870 -81.771240 38,000 269 312 -64
2021-12-04 17:48:28 GMT 43.278992 -81.762360 38,000 269 312 -64
2021-12-04 17:48:25 GMT 43.279148 -81.750381 38,000 270 312 -128
2021-12-04 17:48:22 GMT 43.279148 -81.750381 38,025 270 311 0
2021-12-04 17:48:17 GMT 43.279243 -81.742073 38,025 270 311 0
2021-12-04 17:48:13 GMT 43.279289 -81.734230 38,000 270 312 0
2021-12-04 17:48:08 GMT 43.279404 -81.725761 38,000 270 312 64
2021-12-04 17:48:04 GMT 43.279522 -81.715652 38,000 270 312 64
2021-12-04 17:48:01 GMT 43.279587 -81.709984 38,000 270 312 0
2021-12-04 17:47:57 GMT 43.279678 -81.701683 38,000 270 312 0
2021-12-04 17:47:54 GMT 43.279709 -81.697540 38,000 269 312 0
2021-12-04 17:47:51 GMT 43.279800 -81.690414 38,000 269 312 0
2021-12-04 17:47:44 GMT 43.279987 -81.677788 38,000 269 312 0
2021-12-04 17:47:40 GMT 43.280083 -81.669487 38,000 269 312 64
2021-12-04 17:47:35 GMT 43.280273 -81.657417 38,000 269 313 0
2021-12-04 17:47:32 GMT 43.280315 -81.652878 38,000 269 313 0
2021-12-04 17:47:29 GMT 43.280365 -81.648346 38,000 270 313 0
2021-12-04 17:47:24 GMT 43.280640 -81.628929 38,000 270 313 -64
2021-12-04 17:47:20 GMT 43.280640 -81.628929 38,000 269 313 0
2021-12-04 17:47:14 GMT 43.280731 -81.619476 38,000 269 313 0
2021-12-04 17:47:11 GMT 43.280823 -81.613091 38,000 269 313 0
2021-12-04 17:47:08 GMT 43.280914 -81.607979 38,000 270 313 0
2021-12-04 17:47:04 GMT 43.281059 -81.596306 38,000 270 313 0
2021-12-04 17:47:01 GMT 43.281105 -81.592712 38,000 270 313 0
2021-12-04 17:46:58 GMT 43.281151 -81.587608 38,000 270 313 0
2021-12-04 17:46:55 GMT 43.281246 -81.579697 38,000 270 313 0
2021-12-04 17:46:52 GMT 43.281384 -81.567009 38,000 270 313 0
2021-12-04 17:46:49 GMT 43.281384 -81.567009 38,000 270 313 64
2021-12-04 17:46:44 GMT 43.281509 -81.558922 38,000 270 313 0
2021-12-04 17:46:41 GMT 43.281570 -81.551582 38,000 270 313 0
2021-12-04 17:46:38 GMT 43.281647 -81.547043 38,000 270 313 0
2021-12-04 17:46:34 GMT 43.281738 -81.539886 38,000 270 313 0
2021-12-04 17:46:31 GMT 43.281803 -81.533005 38,000 270 312 0
2021-12-04 17:46:27 GMT 43.281898 -81.525879 38,000 269 312 0
2021-12-04 17:46:24 GMT 43.281990 -81.518356 38,000 269 312 64
2021-12-04 17:46:21 GMT 43.282082 -81.511230 38,000 269 312 64
2021-12-04 17:46:18 GMT 43.282127 -81.506126 38,000 269 312 0
2021-12-04 17:46:13 GMT 43.282269 -81.495865 38,000 270 312 0
2021-12-04 17:46:10 GMT 43.282333 -81.490517 38,000 270 312 -64
2021-12-04 17:46:06 GMT 43.282410 -81.485207 38,000 270 312 0
2021-12-04 17:46:03 GMT 43.282516 -81.475883 38,000 270 312 0
2021-12-04 17:45:59 GMT 43.282562 -81.470009 38,000 270 312 0
2021-12-04 17:45:56 GMT 43.282654 -81.465286 38,000 270 312 0
2021-12-04 17:45:53 GMT 43.282791 -81.450661 38,000 270 312 0
2021-12-04 17:45:50 GMT 43.282791 -81.450661 38,000 270 312 0
2021-12-04 17:45:47 GMT 43.282875 -81.444527 38,000 270 312 0
2021-12-04 17:45:42 GMT 43.282967 -81.436684 38,000 270 312 0
2021-12-04 17:45:39 GMT 43.283012 -81.429550 38,000 270 312 0
2021-12-04 17:45:36 GMT 43.283066 -81.425812 38,000 270 312 0
2021-12-04 17:45:33 GMT 43.283157 -81.416740 38,000 270 312 0
2021-12-04 17:45:30 GMT 43.283203 -81.413162 38,000 270 312 0
2021-12-04 17:45:27 GMT 43.283295 -81.405487 38,000 270 312 -64
2021-12-04 17:45:22 GMT 43.283386 -81.396400 38,000 270 312 0
2021-12-04 17:45:19 GMT 43.283432 -81.390053 38,000 270 312 64
2021-12-04 17:45:16 GMT 43.283573 -81.375473 38,000 270 312 64
2021-12-04 17:45:11 GMT 43.283573 -81.375473 38,000 270 312 0
2021-12-04 17:45:08 GMT 43.283661 -81.368195 38,000 270 312 64
2021-12-04 17:45:05 GMT 43.283710 -81.364029 38,000 270 313 64
2021-12-04 17:45:01 GMT 43.283806 -81.354546 38,000 270 313 0
2021-12-04 17:44:58 GMT 43.283852 -81.348984 38,000 270 313 -64
2021-12-04 17:44:54 GMT 43.284027 -81.335365 38,000 270 312 0
2021-12-04 17:44:51 GMT 43.284027 -81.335365 38,000 270 312 0
2021-12-04 17:44:48 GMT 43.284084 -81.328056 38,000 270 312 0
2021-12-04 17:44:45 GMT 43.284130 -81.322502 38,000 270 312 0
2021-12-04 17:44:40 GMT 43.284256 -81.313583 38,000 270 312 0
2021-12-04 17:44:37 GMT 43.284317 -81.306679 38,000 270 312 0
2021-12-04 17:44:33 GMT 43.284409 -81.293266 38,000 270 312 0
2021-12-04 17:44:30 GMT 43.284409 -81.293266 38,000 270 312 64
2021-12-04 17:44:27 GMT 43.284439 -81.286369 38,000 270 312 64
2021-12-04 17:44:24 GMT 43.284550 -81.271561 38,000 270 312 64
2021-12-04 17:44:19 GMT 43.284550 -81.271561 38,000 270 313 0
2021-12-04 17:44:15 GMT 43.284622 -81.265419 38,000 270 312 -64
2021-12-04 17:44:12 GMT 43.284714 -81.257889 38,000 270 312 -64
2021-12-04 17:44:09 GMT 43.284760 -81.253922 38,000 270 312 0
2021-12-04 17:44:06 GMT 43.284851 -81.245621 38,000 270 312 0
2021-12-04 17:44:01 GMT 43.284924 -81.236771 38,000 270 312 0
2021-12-04 17:43:58 GMT 43.284988 -81.229080 38,000 270 312 64
2021-12-04 17:43:55 GMT 43.284988 -81.225121 38,000 270 312 64
2021-12-04 17:43:52 GMT 43.285061 -81.220551 38,000 270 312 0
2021-12-04 17:43:46 GMT 43.285217 -81.205765 38,000 270 312 -64
2021-12-04 17:43:43 GMT 43.285294 -81.199623 38,000 270 312 -64
2021-12-04 17:43:38 GMT 43.285389 -81.189423 38,000 270 312 -64
2021-12-04 17:43:35 GMT 43.285446 -81.184494 38,000 270 312 -64
2021-12-04 17:43:31 GMT 43.285492 -81.178940 38,000 270 311 0
2021-12-04 17:43:27 GMT 43.285576 -81.169670 38,000 270 311 0
2021-12-04 17:43:24 GMT 43.285583 -81.163986 38,000 270 312 0
2021-12-04 17:43:20 GMT 43.285629 -81.154533 38,000 270 312 0
2021-12-04 17:43:17 GMT 43.285667 -81.149986 38,000 270 312 64
2021-12-04 17:43:14 GMT 43.285721 -81.143867 38,000 270 312 64
2021-12-04 17:43:10 GMT 43.285809 -81.136192 38,000 270 312 0
2021-12-04 17:43:06 GMT 43.285858 -81.128288 38,000 270 312 0
2021-12-04 17:43:03 GMT 43.285904 -81.122536 38,000 270 312 0
2021-12-04 17:43:00 GMT 43.285946 -81.117622 38,000 270 312 0
2021-12-04 17:42:57 GMT 43.286041 -81.109123 38,000 270 312 0
2021-12-04 17:42:54 GMT 43.286087 -81.103180 38,000 270 312 -64
2021-12-04 17:42:51 GMT 43.286133 -81.097244 38,000 270 312 -64
2021-12-04 17:42:46 GMT 43.286224 -81.087791 38,000 270 312 0
2021-12-04 17:42:43 GMT 43.286270 -81.082680 38,000 270 312 -64
2021-12-04 17:42:40 GMT 43.286320 -81.076942 38,000 270 312 -64
2021-12-04 17:42:36 GMT 43.286362 -81.066841 38,000 270 312 0
2021-12-04 17:42:33 GMT 43.286407 -81.061279 38,000 270 313 0
2021-12-04 17:42:30 GMT 43.286453 -81.055344 38,000 270 313 0
2021-12-04 17:42:25 GMT 43.286507 -81.046471 38,000 270 313 64
2021-12-04 17:42:22 GMT 43.286545 -81.041542 38,000 270 313 0
2021-12-04 17:42:19 GMT 43.286545 -81.035217 38,000 270 313 0
2021-12-04 17:42:14 GMT 43.286598 -81.024696 38,000 270 313 0
2021-12-04 17:42:11 GMT 43.286644 -81.020767 38,000 270 313 64
2021-12-04 17:42:08 GMT 43.286682 -81.012993 38,000 270 313 64
2021-12-04 17:42:05 GMT 43.286728 -81.007500 38,000 270 313 64
2021-12-04 17:42:02 GMT 43.286774 -81.000343 38,000 270 313 64
2021-12-04 17:41:59 GMT 43.286819 -80.993958 38,000 270 314 0
2021-12-04 17:41:54 GMT 43.286865 -80.983292 38,000 270 314 64
2021-12-04 17:41:50 GMT 43.286877 -80.979507 38,000 270 314 64
2021-12-04 17:41:47 GMT 43.286957 -80.971344 38,000 270 314 64
2021-12-04 17:41:43 GMT 43.286972 -80.965576 38,000 270 314 0
2021-12-04 17:41:40 GMT 43.287048 -80.956657 38,000 270 314 0
2021-12-04 17:41:37 GMT 43.287109 -80.951317 38,000 270 314 0
2021-12-04 17:41:33 GMT 43.287140 -80.945541 38,000 270 314 0
2021-12-04 17:41:30 GMT 43.287186 -80.938766 38,000 270 314 -64
2021-12-04 17:41:27 GMT 43.287231 -80.929634 38,000 270 314 0
2021-12-04 17:41:22 GMT 43.287277 -80.921715 38,000 270 314 0
2021-12-04 17:41:19 GMT 43.287296 -80.916336 38,000 270 314 0
2021-12-04 17:41:16 GMT 43.287323 -80.910217 38,000 270 315 0
2021-12-04 17:41:11 GMT 43.287392 -80.898872 38,000 270 314 64
2021-12-04 17:41:08 GMT 43.287437 -80.892921 38,000 270 314 64
2021-12-04 17:41:05 GMT 43.287437 -80.890175 38,000 270 314 64
2021-12-04 17:41:02 GMT 43.287506 -80.881989 38,000 270 314 0
2021-12-04 17:40:58 GMT 43.287529 -80.874611 38,000 270 315 0
2021-12-04 17:40:53 GMT 43.287643 -80.863716 38,000 270 315 -64
2021-12-04 17:40:50 GMT 43.287689 -80.856499 38,000 270 315 -64
2021-12-04 17:40:46 GMT 43.287735 -80.849350 38,000 270 315 -64
2021-12-04 17:40:42 GMT 43.287762 -80.843224 38,000 270 314 -64
2021-12-04 17:40:39 GMT 43.287807 -80.835243 38,000 270 314 0
2021-12-04 17:40:34 GMT 43.287807 -80.827660 38,000 270 315 64
2021-12-04 17:40:31 GMT 43.287827 -80.822327 38,000 270 315 64
2021-12-04 17:40:28 GMT 43.287872 -80.815559 38,000 270 315 0
2021-12-04 17:40:25 GMT 43.287918 -80.807571 38,000 270 315 0
2021-12-04 17:40:22 GMT 43.287949 -80.802223 38,000 270 315 0
2021-12-04 17:40:19 GMT 43.287949 -80.796593 38,000 270 315 0
2021-12-04 17:40:15 GMT 43.287949 -80.789467 38,000 270 315 64
2021-12-04 17:40:12 GMT 43.287964 -80.781708 38,000 270 315 64
2021-12-04 17:40:09 GMT 43.287994 -80.775536 38,000 270 315 64
2021-12-04 17:40:06 GMT 43.288010 -80.769699 38,000 270 315 64
2021-12-04 17:40:03 GMT 43.288010 -80.765350 38,000 270 315 64
2021-12-04 17:40:00 GMT 43.288055 -80.760178 38,000 270 315 64
2021-12-04 17:39:56 GMT 43.288136 -80.749580 38,000 270 315 0
2021-12-04 17:39:53 GMT 43.288136 -80.745590 38,000 270 316 0
2021-12-04 17:39:49 GMT 43.288284 -80.732651 38,000 270 315 -64
2021-12-04 17:39:46 GMT 43.288284 -80.732651 38,000 270 315 -64
2021-12-04 17:39:43 GMT 43.288330 -80.722618 38,000 270 315 0
2021-12-04 17:39:40 GMT 43.288322 -80.719627 38,000 270 315 -64
2021-12-04 17:39:37 GMT 43.288330 -80.712654 38,000 270 315 0
2021-12-04 17:39:33 GMT 43.288376 -80.697899 38,000 270 315 0
2021-12-04 17:39:29 GMT 43.288376 -80.697899 38,000 270 315 0
2021-12-04 17:39:26 GMT 43.288368 -80.692162 38,000 270 315 0
2021-12-04 17:39:22 GMT 43.288422 -80.677589 38,000 270 315 64
2021-12-04 17:39:19 GMT 43.288422 -80.677589 38,000 270 315 64
2021-12-04 17:39:16 GMT 43.288460 -80.670647 38,000 270 315 128
2021-12-04 17:39:13 GMT 43.288460 -80.666656 38,000 270 316 128
2021-12-04 17:39:10 GMT 43.288506 -80.658287 38,000 270 316 128
2021-12-04 17:39:07 GMT 43.288559 -80.652870 38,000 270 316 0
2021-12-04 17:39:04 GMT 43.288601 -80.645859 38,000 270 316 0
2021-12-04 17:39:01 GMT 43.288605 -80.640862 38,000 270 316 -128
2021-12-04 17:38:58 GMT 43.288651 -80.635689 38,000 270 316 -128
2021-12-04 17:38:55 GMT 43.288651 -80.630066 38,000 270 316 -128
2021-12-04 17:38:52 GMT 43.288692 -80.622711 38,000 270 316 -64
2021-12-04 17:38:49 GMT 43.288696 -80.615700 38,000 270 317 0
2021-12-04 17:38:46 GMT 43.288696 -80.612503 38,000 270 317 0
2021-12-04 17:38:43 GMT 43.288742 -80.603752 38,000 270 316 64
2021-12-04 17:38:39 GMT 43.288738 -80.596748 38,000 270 316 64
2021-12-04 17:38:35 GMT 43.288788 -80.588707 38,000 270 316 0
2021-12-04 17:38:30 GMT 43.288834 -80.580498 38,000 270 316 0
2021-12-04 17:38:27 GMT 43.288834 -80.567909 38,000 270 317 0
2021-12-04 17:38:24 GMT 43.288834 -80.567909 38,000 270 316 -64
2021-12-04 17:38:20 GMT 43.288879 -80.557312 38,000 270 317 0
2021-12-04 17:38:17 GMT 43.288879 -80.553520 38,000 270 317 0
2021-12-04 17:38:14 GMT 43.288879 -80.546333 38,000 270 317 64
2021-12-04 17:38:11 GMT 43.288925 -80.540314 38,000 270 317 64
2021-12-04 17:38:06 GMT 43.288971 -80.530487 38,000 270 317 0
2021-12-04 17:38:03 GMT 43.288971 -80.526466 38,000 270 317 0
2021-12-04 17:37:59 GMT 43.289017 -80.516052 38,000 270 317 64
2021-12-04 17:37:56 GMT 43.289017 -80.509987 38,000 270 318 64
2021-12-04 17:37:53 GMT 43.289062 -80.498741 38,000 270 318 64
2021-12-04 17:37:50 GMT 43.289062 -80.498741 38,000 270 318 64
2021-12-04 17:37:46 GMT 43.289112 -80.484077 38,000 270 318 -64
2021-12-04 17:37:43 GMT 43.289112 -80.484077 38,000 270 318 -128
2021-12-04 17:37:40 GMT 43.289108 -80.478241 38,000 270 318 -64
2021-12-04 17:37:35 GMT 43.289112 -80.467987 38,000 270 318 64
2021-12-04 17:37:31 GMT 43.289154 -80.451729 38,000 270 318 64
2021-12-04 17:37:27 GMT 43.289154 -80.451729 38,000 270 318 64
2021-12-04 17:37:24 GMT 43.289154 -80.447258 38,000 270 318 -64
2021-12-04 17:37:21 GMT 43.289158 -80.439018 38,000 270 318 0
2021-12-04 17:37:18 GMT 43.289158 -80.432999 38,000 270 318 0
2021-12-04 17:37:15 GMT 43.289200 -80.422348 38,000 270 318 64
2021-12-04 17:37:12 GMT 43.289200 -80.422348 38,000 270 318 64
2021-12-04 17:37:07 GMT 43.289200 -80.411873 38,000 270 318 -128
2021-12-04 17:37:04 GMT 43.289204 -80.406845 38,000 270 318 -128
2021-12-04 17:37:01 GMT 43.289246 -80.401779 38,000 270 318 -64
2021-12-04 17:36:58 GMT 43.289253 -80.394356 38,025 270 318 -64
2021-12-04 17:36:54 GMT 43.289299 -80.384743 38,000 270 318 64
2021-12-04 17:36:51 GMT 43.289345 -80.380684 38,000 270 318 -64
2021-12-04 17:36:48 GMT 43.289345 -80.374275 38,000 270 318 0
2021-12-04 17:36:44 GMT 43.289337 -80.366844 38,000 270 318 -64
2021-12-04 17:36:41 GMT 43.289337 -80.359177 38,000 270 318 -64
2021-12-04 17:36:38 GMT 43.289345 -80.352173 38,025 270 318 0
2021-12-04 17:36:33 GMT 43.289383 -80.345123 38,000 270 318 128
2021-12-04 17:36:30 GMT 43.289391 -80.332420 38,000 270 318 128
2021-12-04 17:36:27 GMT 43.289391 -80.332420 38,000 270 318 128
2021-12-04 17:36:23 GMT 43.289429 -80.322960 38,000 270 318 -64
2021-12-04 17:36:20 GMT 43.289429 -80.318558 38,000 270 318 -64
2021-12-04 17:36:16 GMT 43.289436 -80.306267 38,000 270 318 -64
2021-12-04 17:36:13 GMT 43.289436 -80.304237 38,000 270 318 -64
2021-12-04 17:36:10 GMT 43.289429 -80.296387 38,000 270 318 0
2021-12-04 17:36:07 GMT 43.289429 -80.290771 38,000 270 318 64
2021-12-04 17:36:01 GMT 43.289436 -80.278473 38,000 270 319 0
2021-12-04 17:35:58 GMT 43.289429 -80.272629 38,000 270 319 0
2021-12-04 17:35:53 GMT 43.289474 -80.262917 38,000 270 319 0
2021-12-04 17:35:49 GMT 43.289474 -80.255638 38,000 270 319 0
2021-12-04 17:35:46 GMT 43.289474 -80.248421 38,000 270 319 0
2021-12-04 17:35:42 GMT 43.289486 -80.242569 38,000 270 319 -64
2021-12-04 17:35:39 GMT 43.289474 -80.233093 38,000 270 319 0
2021-12-04 17:35:36 GMT 43.289486 -80.230476 38,000 270 319 -64
2021-12-04 17:35:33 GMT 43.289520 -80.222549 38,000 270 319 -64
2021-12-04 17:35:30 GMT 43.289520 -80.215904 38,000 270 319 -64
2021-12-04 17:35:27 GMT 43.289486 -80.210655 38,000 270 319 -64
2021-12-04 17:35:24 GMT 43.289486 -80.206215 38,000 270 319 -64
2021-12-04 17:35:21 GMT 43.289520 -80.199173 38,000 270 319 0
2021-12-04 17:35:18 GMT 43.289486 -80.192543 38,000 270 319 64
2021-12-04 17:35:15 GMT 43.289474 -80.186272 38,000 270 319 128
2021-12-04 17:35:12 GMT 43.289486 -80.181229 38,000 270 319 64
2021-12-04 17:35:09 GMT 43.289474 -80.174133 38,000 270 319 0
2021-12-04 17:35:06 GMT 43.289486 -80.167107 38,000 270 319 -64
2021-12-04 17:35:03 GMT 43.289486 -80.163834 38,000 270 319 0
2021-12-04 17:35:00 GMT 43.289474 -80.139008 38,000 270 319 0
2021-12-04 17:34:55 GMT 43.289474 -80.137024 38,000 270 319 0
2021-12-04 17:34:51 GMT 43.289474 -80.132172 38,000 271 319 0
2021-12-04 17:34:48 GMT 43.289474 -80.132172 38,000 271 319 0
2021-12-04 17:34:45 GMT 43.289486 -80.125908 38,000 271 319 0
2021-12-04 17:34:42 GMT 43.289474 -80.118439 38,000 271 319 64
2021-12-04 17:34:39 GMT 43.289429 -80.115181 38,000 271 319 0
2021-12-04 17:34:36 GMT 43.289429 -80.108345 38,000 271 319 -64
2021-12-04 17:34:33 GMT 43.289391 -80.102104 38,000 270 319 0
2021-12-04 17:34:29 GMT 43.289429 -80.094231 38,000 271 319 0
2021-12-04 17:34:26 GMT 43.289429 -80.086502 38,000 270 319 64
2021-12-04 17:34:23 GMT 43.289391 -80.081505 38,000 270 319 0
2021-12-04 17:34:20 GMT 43.289429 -80.074425 38,000 271 319 0
2021-12-04 17:34:17 GMT 43.289391 -80.068947 38,000 271 319 0
2021-12-04 17:34:14 GMT 43.289391 -80.061691 38,000 271 319 0
2021-12-04 17:34:11 GMT 43.289383 -80.057434 38,000 271 319 64
2021-12-04 17:34:08 GMT 43.289345 -80.052010 38,000 271 319 64
2021-12-04 17:34:05 GMT 43.289337 -80.043770 38,000 271 319 64
2021-12-04 17:34:01 GMT 43.289345 -80.036705 38,000 270 319 64
2021-12-04 17:33:58 GMT 43.289337 -80.031631 38,000 270 319 0
2021-12-04 17:33:55 GMT 43.289345 -80.025787 38,000 270 319 0
2021-12-04 17:33:52 GMT 43.289345 -80.019707 38,000 270 319 -64
2021-12-04 17:33:49 GMT 43.289345 -80.012444 38,000 271 319 -64
2021-12-04 17:33:46 GMT 43.289345 -80.006363 38,000 271 319 -128
2021-12-04 17:33:43 GMT 43.289291 -80.000145 38,000 271 319 -128
2021-12-04 17:33:40 GMT 43.289299 -79.993874 38,000 271 319 -64
2021-12-04 17:33:36 GMT 43.289253 -79.987793 38,000 271 319 64
2021-12-04 17:33:33 GMT 43.289246 -79.981552 38,000 271 319 128
2021-12-04 17:33:30 GMT 43.289246 -79.973503 38,000 271 319 128
2021-12-04 17:33:26 GMT 43.289253 -79.966408 38,000 271 319 0
2021-12-04 17:33:23 GMT 43.289200 -79.959770 38,000 271 319 -192
2021-12-04 17:33:19 GMT 43.289200 -79.952942 38,000 271 318 -192
2021-12-04 17:33:16 GMT 43.289154 -79.945656 38,000 271 318 -64
2021-12-04 17:33:12 GMT 43.289108 -79.937225 38,000 271 318 128
2021-12-04 17:33:09 GMT 43.289108 -79.933205 38,000 271 318 64
2021-12-04 17:33:06 GMT 43.289066 -79.926979 38,000 271 318 64
2021-12-04 17:33:02 GMT 43.289062 -79.918320 38,000 271 318 0
2021-12-04 17:32:59 GMT 43.289062 -79.911041 38,000 271 318 -64
2021-12-04 17:32:56 GMT 43.289021 -79.907227 38,000 271 318 -64
2021-12-04 17:32:53 GMT 43.289021 -79.900360 38,000 271 317 0
2021-12-04 17:32:50 GMT 43.289021 -79.895195 38,000 271 317 -64
2021-12-04 17:32:46 GMT 43.289017 -79.886124 38,000 270 317 0
2021-12-04 17:32:43 GMT 43.288971 -79.875267 38,000 270 317 0
2021-12-04 17:32:40 GMT 43.288971 -79.875267 38,000 270 317 0
2021-12-04 17:32:36 GMT 43.288971 -79.866898 38,000 271 317 0
2021-12-04 17:32:33 GMT 43.288971 -79.858246 38,000 271 317 0
2021-12-04 17:32:30 GMT 43.288971 -79.852844 38,000 271 317 -64
2021-12-04 17:32:27 GMT 43.288971 -79.849655 38,000 271 316 0
2021-12-04 17:32:24 GMT 43.288925 -79.842224 38,000 271 316 0
2021-12-04 17:32:21 GMT 43.288879 -79.828835 38,000 271 316 0
2021-12-04 17:32:18 GMT 43.288879 -79.828835 38,000 271 316 0
2021-12-04 17:32:15 GMT 43.288879 -79.822830 38,000 271 316 0
2021-12-04 17:32:12 GMT 43.288879 -79.818039 38,025 271 316 0
2021-12-04 17:32:09 GMT 43.288834 -79.813057 38,025 271 316 0
2021-12-04 17:32:04 GMT 43.288788 -79.803055 38,000 271 315 128
2021-12-04 17:32:01 GMT 43.288738 -79.794289 38,000 271 315 128
2021-12-04 17:31:58 GMT 43.288742 -79.790894 38,000 271 315 64
2021-12-04 17:31:55 GMT 43.288692 -79.779510 38,000 271 315 64
2021-12-04 17:31:52 GMT 43.288692 -79.779510 38,000 271 315 64
2021-12-04 17:31:48 GMT 43.288692 -79.770355 38,000 271 315 0
2021-12-04 17:31:44 GMT 43.288647 -79.762375 38,000 271 315 0
2021-12-04 17:31:41 GMT 43.288651 -79.756210 38,000 271 315 0
2021-12-04 17:31:38 GMT 43.288605 -79.749374 38,000 271 315 0
2021-12-04 17:31:35 GMT 43.288601 -79.746223 38,000 271 311 0
2021-12-04 17:31:32 GMT 43.288555 -79.730461 38,000 271 315 0
2021-12-04 17:31:29 GMT 43.288555 -79.730461 38,000 271 315 64
2021-12-04 17:31:25 GMT 43.288506 -79.726280 38,000 271 314 0
2021-12-04 17:31:22 GMT 43.288467 -79.717949 38,000 271 314 0
2021-12-04 17:31:19 GMT 43.288467 -79.711174 38,000 271 314 0
2021-12-04 17:31:16 GMT 43.288414 -79.706200 38,000 271 314 64
2021-12-04 17:31:12 GMT 43.288376 -79.696869 38,000 271 314 0
2021-12-04 17:31:09 GMT 43.288376 -79.690926 38,000 271 314 64
2021-12-04 17:31:05 GMT 43.288368 -79.683578 38,000 271 314 0
2021-12-04 17:31:01 GMT 43.288330 -79.677002 38,000 271 314 0
2021-12-04 17:30:58 GMT 43.288322 -79.670036 38,000 271 314 0
2021-12-04 17:30:55 GMT 43.288273 -79.664482 38,000 271 314 0
2021-12-04 17:30:52 GMT 43.288227 -79.653755 38,000 271 314 0
2021-12-04 17:30:49 GMT 43.288227 -79.653755 38,000 271 314 0
2021-12-04 17:30:46 GMT 43.288239 -79.648003 38,000 271 313 0
2021-12-04 17:30:42 GMT 43.288181 -79.638718 38,000 271 313 0
2021-12-04 17:30:39 GMT 43.288147 -79.632164 38,000 271 313 0
2021-12-04 17:30:35 GMT 43.288136 -79.624855 38,000 271 313 0
2021-12-04 17:30:32 GMT 43.288090 -79.617722 38,000 271 313 0
2021-12-04 17:30:29 GMT 43.288055 -79.613960 38,000 271 313 64
2021-12-04 17:30:26 GMT 43.288055 -79.606804 38,000 271 313 64
2021-12-04 17:30:23 GMT 43.287994 -79.595558 38,000 271 313 64
2021-12-04 17:30:20 GMT 43.287949 -79.590782 38,000 271 312 64
2021-12-04 17:30:17 GMT 43.287949 -79.590782 38,000 271 312 64
2021-12-04 17:30:14 GMT 43.287903 -79.582870 38,000 271 312 0
2021-12-04 17:30:11 GMT 43.287872 -79.577171 38,000 271 312 0
2021-12-04 17:30:08 GMT 43.287807 -79.571030 38,000 271 312 0
2021-12-04 17:30:04 GMT 43.287762 -79.563187 38,000 271 312 0
2021-12-04 17:30:01 GMT 43.287735 -79.556282 38,000 271 311 0
2021-12-04 17:29:58 GMT 43.287689 -79.545235 38,000 271 311 0
2021-12-04 17:29:55 GMT 43.287689 -79.545235 38,000 271 311 0
2021-12-04 17:29:51 GMT 43.287643 -79.537376 38,000 271 311 0
2021-12-04 17:29:48 GMT 43.287575 -79.532448 38,000 271 311 0
2021-12-04 17:29:44 GMT 43.287529 -79.525383 38,000 271 311 0
2021-12-04 17:29:40 GMT 43.287483 -79.516296 38,000 271 310 0
2021-12-04 17:29:37 GMT 43.287437 -79.508842 38,000 271 310 -64
2021-12-04 17:29:33 GMT 43.287415 -79.502373 38,000 271 310 0
2021-12-04 17:29:30 GMT 43.287369 -79.497330 38,000 271 309 0
2021-12-04 17:29:27 GMT 43.287342 -79.492424 38,000 271 309 0
2021-12-04 17:29:24 GMT 43.287231 -79.476570 38,000 271 309 0
2021-12-04 17:29:20 GMT 43.287231 -79.476570 38,000 271 309 0
2021-12-04 17:29:16 GMT 43.287186 -79.469925 38,000 271 308 0
2021-12-04 17:29:13 GMT 43.287140 -79.464432 38,000 271 308 0
2021-12-04 17:29:09 GMT 43.287109 -79.454887 38,000 271 308 64
2021-12-04 17:29:06 GMT 43.287094 -79.449226 38,000 271 308 64
2021-12-04 17:29:03 GMT 43.287064 -79.445145 38,000 271 308 64
2021-12-04 17:29:00 GMT 43.287018 -79.438545 38,000 271 308 0
2021-12-04 17:28:57 GMT 43.286972 -79.431480 38,000 271 308 0
2021-12-04 17:28:53 GMT 43.286865 -79.423553 38,000 271 307 -64
2021-12-04 17:28:50 GMT 43.286831 -79.416702 38,000 271 307 0
2021-12-04 17:28:47 GMT 43.286785 -79.413628 38,000 271 307 0
2021-12-04 17:28:44 GMT 43.286774 -79.407204 38,000 271 307 64
2021-12-04 17:28:40 GMT 43.286728 -79.401390 38,000 271 307 128
2021-12-04 17:28:37 GMT 43.286682 -79.393593 38,000 271 307 64
2021-12-04 17:28:33 GMT 43.286644 -79.387993 38,000 271 307 0
2021-12-04 17:28:30 GMT 43.286591 -79.381966 38,000 271 307 -64
2021-12-04 17:28:27 GMT 43.286552 -79.374779 38,000 271 307 -64
2021-12-04 17:28:24 GMT 43.286499 -79.369133 38,000 271 307 -64
2021-12-04 17:28:21 GMT 43.286461 -79.361572 38,000 271 307 -64
2021-12-04 17:28:17 GMT 43.286407 -79.354759 38,000 271 306 -64
2021-12-04 17:28:14 GMT 43.286366 -79.343391 38,025 271 306 0
2021-12-04 17:28:11 GMT 43.286320 -79.336784 38,000 271 306 64
2021-12-04 17:28:08 GMT 43.286320 -79.336784 38,000 271 306 64
2021-12-04 17:28:05 GMT 43.286270 -79.330421 38,000 271 306 128
2021-12-04 17:28:02 GMT 43.286224 -79.324425 38,000 271 306 64
2021-12-04 17:27:59 GMT 43.286179 -79.321289 38,000 271 306 64
2021-12-04 17:27:56 GMT 43.286133 -79.316254 38,000 271 306 64
2021-12-04 17:27:53 GMT 43.286087 -79.308929 38,000 271 306 0
2021-12-04 17:27:50 GMT 43.286041 -79.303505 38,000 271 305 0
2021-12-04 17:27:47 GMT 43.285992 -79.297356 38,000 271 305 0
2021-12-04 17:27:44 GMT 43.285900 -79.290031 38,000 271 305 -64
2021-12-04 17:27:41 GMT 43.285858 -79.283218 38,000 271 305 -64
2021-12-04 17:27:38 GMT 43.285809 -79.278847 38,000 271 305 -64
2021-12-04 17:27:35 GMT 43.285767 -79.272873 38,000 271 304 -64
2021-12-04 17:27:32 GMT 43.285721 -79.268974 38,000 271 304 -64
2021-12-04 17:27:29 GMT 43.285667 -79.262627 38,000 271 304 -64
2021-12-04 17:27:24 GMT 43.285622 -79.253410 38,000 271 304 -64
2021-12-04 17:27:19 GMT 43.285538 -79.242088 38,000 271 303 0
2021-12-04 17:27:15 GMT 43.285480 -79.234573 38,000 271 303 64
2021-12-04 17:27:12 GMT 43.285435 -79.229210 38,000 271 303 0
2021-12-04 17:27:07 GMT 43.285355 -79.221771 38,000 271 303 0
2021-12-04 17:27:04 GMT 43.285294 -79.213127 38,000 271 303 0
2021-12-04 17:26:59 GMT 43.285172 -79.199165 38,000 271 303 64
2021-12-04 17:26:56 GMT 43.285172 -79.199165 38,000 271 303 64
2021-12-04 17:26:53 GMT 43.285015 -79.185921 38,000 271 303 0
2021-12-04 17:26:49 GMT 43.285015 -79.185921 38,000 271 303 -64
2021-12-04 17:26:46 GMT 43.284969 -79.180168 38,000 271 302 0
2021-12-04 17:26:42 GMT 43.284924 -79.173302 38,000 271 302 -64
2021-12-04 17:26:39 GMT 43.284851 -79.166267 38,000 271 302 64
2021-12-04 17:26:36 GMT 43.284805 -79.159752 38,000 271 302 128
2021-12-04 17:26:33 GMT 43.284760 -79.153999 38,000 271 302 128
2021-12-04 17:26:30 GMT 43.284737 -79.150414 38,000 271 302 64
2021-12-04 17:26:26 GMT 43.284622 -79.141037 38,000 271 302 0
2021-12-04 17:26:22 GMT 43.284550 -79.134720 38,000 271 302 -64
2021-12-04 17:26:19 GMT 43.284531 -79.129990 38,000 271 302 -64
2021-12-04 17:26:15 GMT 43.284439 -79.121170 38,000 271 301 0
2021-12-04 17:26:11 GMT 43.284393 -79.114723 38,000 271 301 0
2021-12-04 17:26:08 GMT 43.284302 -79.106354 38,000 271 301 0
2021-12-04 17:26:05 GMT 43.284271 -79.101173 38,000 271 301 0
2021-12-04 17:26:02 GMT 43.284180 -79.094696 38,000 271 301 0
2021-12-04 17:25:59 GMT 43.284180 -79.090904 38,000 271 301 0
2021-12-04 17:25:56 GMT 43.284119 -79.083488 38,000 271 301 64
2021-12-04 17:25:53 GMT 43.284039 -79.078346 38,000 271 301 64
2021-12-04 17:25:50 GMT 43.284039 -79.074165 38,000 271 301 0
2021-12-04 17:25:47 GMT 43.283943 -79.067360 38,000 271 300 0
2021-12-04 17:25:44 GMT 43.283936 -79.062981 38,000 271 300 0
2021-12-04 17:25:41 GMT 43.283844 -79.053467 38,000 271 300 0
2021-12-04 17:25:38 GMT 43.283798 -79.050400 38,000 271 301 0
2021-12-04 17:25:35 GMT 43.283760 -79.043358 38,000 271 301 0
2021-12-04 17:25:32 GMT 43.283710 -79.038460 38,000 271 300 0
2021-12-04 17:25:29 GMT 43.283665 -79.031982 38,000 271 301 0
2021-12-04 17:25:25 GMT 43.283569 -79.023064 38,000 271 301 0
2021-12-04 17:25:21 GMT 43.283478 -79.012009 38,000 271 301 -64
2021-12-04 17:25:18 GMT 43.283478 -79.012009 38,000 271 301 -64
2021-12-04 17:25:14 GMT 43.283432 -79.005943 38,000 271 300 0
2021-12-04 17:25:11 GMT 43.283386 -78.999680 38,000 271 300 0
2021-12-04 17:25:08 GMT 43.283295 -78.992088 38,000 268 302 64
2021-12-04 17:25:05 GMT 43.283249 -78.988235 38,000 271 301 64
2021-12-04 17:25:02 GMT 43.283154 -78.980644 38,000 271 301 0
2021-12-04 17:24:59 GMT 43.283112 -78.975922 38,000 271 301 0
2021-12-04 17:24:56 GMT 43.283066 -78.969406 38,000 271 301 0
2021-12-04 17:24:53 GMT 43.283020 -78.965637 38,000 271 301 0
2021-12-04 17:24:50 GMT 43.282928 -78.958359 38,000 271 301 0
2021-12-04 17:24:47 GMT 43.282837 -78.952675 38,000 271 301 0
2021-12-04 17:24:44 GMT 43.282780 -78.949059 38,000 271 302 0
2021-12-04 17:24:41 GMT 43.282700 -78.942390 38,000 270 302 0
2021-12-04 17:24:37 GMT 43.282745 -78.933189 38,000 268 302 64
2021-12-04 17:24:34 GMT 43.282829 -78.929573 38,000 268 302 128
2021-12-04 17:24:31 GMT 43.283058 -78.922318 38,000 268 302 64
2021-12-04 17:24:28 GMT 43.283249 -78.916557 38,000 268 302 0
2021-12-04 17:24:25 GMT 43.283619 -78.905838 38,000 268 303 -64
2021-12-04 17:24:22 GMT 43.283619 -78.905838 38,000 268 303 -64
2021-12-04 17:24:19 GMT 43.283844 -78.897995 38,000 268 303 -64
2021-12-04 17:24:16 GMT 43.284027 -78.893013 38,000 268 302 -64
2021-12-04 17:24:13 GMT 43.284225 -78.886742 38,000 268 302 -64
2021-12-04 17:24:10 GMT 43.284348 -78.882729 38,000 268 302 0
2021-12-04 17:24:07 GMT 43.284595 -78.875229 38,000 268 302 0
2021-12-04 17:24:04 GMT 43.284714 -78.870850 38,000 268 302 0
2021-12-04 17:24:00 GMT 43.285110 -78.858421 38,000 268 302 0
2021-12-04 17:23:57 GMT 43.285110 -78.858421 38,000 268 302 0
2021-12-04 17:23:54 GMT 43.285339 -78.851166 38,000 268 302 0
2021-12-04 17:23:51 GMT 43.285526 -78.845016 38,000 268 302 0
2021-12-04 17:23:48 GMT 43.285713 -78.839653 38,000 268 302 64
2021-12-04 17:23:45 GMT 43.285904 -78.834122 38,000 268 303 64
2021-12-04 17:23:41 GMT 43.286087 -78.828568 38,000 268 303 64
2021-12-04 17:23:38 GMT 43.286366 -78.819382 38,000 268 303 0
2021-12-04 17:23:35 GMT 43.286453 -78.816299 38,000 268 303 0
2021-12-04 17:23:32 GMT 43.286682 -78.808640 38,000 268 303 64
2021-12-04 17:23:29 GMT 43.286922 -78.802513 38,000 268 303 0
2021-12-04 17:23:26 GMT 43.287277 -78.790878 38,000 268 303 -64
2021-12-04 17:23:23 GMT 43.287277 -78.790878 38,000 268 303 -64
2021-12-04 17:23:19 GMT 43.287460 -78.784744 38,000 268 303 0
2021-12-04 17:23:15 GMT 43.287689 -78.777466 38,000 268 303 -64
2021-12-04 17:23:12 GMT 43.287853 -78.771904 38,000 268 303 -64
2021-12-04 17:23:09 GMT 43.288010 -78.766731 38,000 268 303 0
2021-12-04 17:23:06 GMT 43.288239 -78.759453 38,000 268 303 0
2021-12-04 17:23:03 GMT 43.288376 -78.753708 38,000 268 303 0
2021-12-04 17:23:00 GMT 43.288601 -78.747780 38,000 268 303 0
2021-12-04 17:22:56 GMT 43.288834 -78.739906 38,000 268 303 0
2021-12-04 17:22:52 GMT 43.289062 -78.732628 38,000 268 304 0
2021-12-04 17:22:49 GMT 43.289200 -78.727577 38,000 268 304 0
2021-12-04 17:22:45 GMT 43.289474 -78.718765 38,000 268 304 64
2021-12-04 17:22:41 GMT 43.289673 -78.712006 38,000 268 304 0
2021-12-04 17:22:38 GMT 43.289810 -78.707039 38,000 268 304 0
2021-12-04 17:22:34 GMT 43.290089 -78.699318 38,000 268 305 0
2021-12-04 17:22:31 GMT 43.290253 -78.692963 38,000 268 305 -64
2021-12-04 17:22:25 GMT 43.290649 -78.680031 38,000 268 306 0
2021-12-04 17:22:21 GMT 43.290848 -78.674438 38,000 268 306 0
2021-12-04 17:22:18 GMT 43.291115 -78.665703 38,000 268 306 0
2021-12-04 17:22:15 GMT 43.291260 -78.661278 38,000 268 306 0
2021-12-04 17:22:12 GMT 43.291443 -78.655083 38,000 268 306 0
2021-12-04 17:22:09 GMT 43.291580 -78.650421 38,000 268 307 0
2021-12-04 17:22:05 GMT 43.291813 -78.642036 38,000 268 307 -64
2021-12-04 17:22:02 GMT 43.291946 -78.637199 38,000 268 307 -64
2021-12-04 17:21:59 GMT 43.292084 -78.632149 38,000 268 310 0
2021-12-04 17:21:56 GMT 43.292267 -78.625191 38,000 268 307 -64
2021-12-04 17:21:53 GMT 43.292450 -78.618546 38,000 268 307 0
2021-12-04 17:21:50 GMT 43.292587 -78.614655 38,000 268 307 0
2021-12-04 17:21:47 GMT 43.292789 -78.607109 38,000 268 308 0
2021-12-04 17:21:44 GMT 43.292999 -78.600662 38,000 268 308 64
2021-12-04 17:21:40 GMT 43.293228 -78.593254 38,000 268 308 64
2021-12-04 17:21:36 GMT 43.293411 -78.586227 38,000 268 308 0
2021-12-04 17:21:33 GMT 43.293629 -78.579384 38,000 268 309 0
2021-12-04 17:21:30 GMT 43.293766 -78.573563 38,000 268 309 0
2021-12-04 17:21:27 GMT 43.293915 -78.569427 38,000 268 310 -64
2021-12-04 17:21:24 GMT 43.294140 -78.562187 38,000 268 310 -64
2021-12-04 17:21:21 GMT 43.294327 -78.555519 38,000 268 310 -64
2021-12-04 17:21:18 GMT 43.294510 -78.548668 38,000 268 310 -64
2021-12-04 17:21:15 GMT 43.294605 -78.544922 38,000 268 310 0
2021-12-04 17:21:12 GMT 43.294838 -78.537926 38,000 268 310 0
2021-12-04 17:21:09 GMT 43.294979 -78.532822 38,000 268 310 0
2021-12-04 17:21:05 GMT 43.295212 -78.524910 38,000 268 311 0
2021-12-04 17:21:01 GMT 43.295471 -78.515709 38,000 268 311 0
2021-12-04 17:20:57 GMT 43.295628 -78.509216 38,000 268 312 128
2021-12-04 17:20:54 GMT 43.295837 -78.503128 37,975 268 312 128
2021-12-04 17:20:51 GMT 43.295975 -78.498398 37,975 268 312 -64
2021-12-04 17:20:48 GMT 43.296188 -78.491493 37,975 268 312 -192
2021-12-04 17:20:45 GMT 43.296329 -78.485542 38,000 268 312 -448
2021-12-04 17:20:41 GMT 43.296524 -78.477837 38,050 268 312 -128
2021-12-04 17:20:38 GMT 43.296707 -78.470741 38,050 268 311 64
2021-12-04 17:20:35 GMT 43.296844 -78.465248 38,025 268 312 512
2021-12-04 17:20:31 GMT 43.297073 -78.456947 37,975 268 313 576
2021-12-04 17:20:27 GMT 43.297256 -78.450172 37,950 268 315 128
2021-12-04 17:20:24 GMT 43.297394 -78.445000 37,975 268 315 -448
2021-12-04 17:20:21 GMT 43.297623 -78.438232 38,025 268 315 -640
2021-12-04 17:20:17 GMT 43.297817 -78.430481 38,025 269 314 128
2021-12-04 17:20:14 GMT 43.297943 -78.426285 38,050 269 314 0
2021-12-04 17:20:11 GMT 43.298141 -78.417732 38,025 269 314 192
2021-12-04 17:20:08 GMT 43.298264 -78.411980 38,000 269 315 256
2021-12-04 17:20:05 GMT 43.298538 -78.402016 38,000 269 315 128
2021-12-04 17:20:02 GMT 43.298538 -78.402016 38,000 269 316 64
2021-12-04 17:19:59 GMT 43.298702 -78.395432 38,000 268 317 64
2021-12-04 17:19:56 GMT 43.298859 -78.388412 38,000 268 317 128
2021-12-04 17:19:53 GMT 43.299042 -78.381577 38,000 268 318 64
2021-12-04 17:19:49 GMT 43.299259 -78.374107 38,000 269 318 -64
2021-12-04 17:19:45 GMT 43.299541 -78.364105 38,000 268 318 -128
2021-12-04 17:19:41 GMT 43.299633 -78.360054 38,025 269 318 64
2021-12-04 17:19:38 GMT 43.299820 -78.352577 38,000 268 318 0
2021-12-04 17:19:35 GMT 43.300003 -78.346573 38,000 269 319 64
2021-12-04 17:19:31 GMT 43.300278 -78.336098 38,000 269 319 64
2021-12-04 17:19:28 GMT 43.300331 -78.333046 38,000 268 319 0
2021-12-04 17:19:25 GMT 43.300552 -78.326004 38,000 268 320 0
2021-12-04 17:19:22 GMT 43.300873 -78.313423 38,000 269 320 0
2021-12-04 17:19:19 GMT 43.300873 -78.313423 38,000 269 320 0
2021-12-04 17:19:15 GMT 43.301102 -78.304924 38,000 269 320 0
2021-12-04 17:19:12 GMT 43.301193 -78.300522 38,000 269 320 0
2021-12-04 17:19:09 GMT 43.301403 -78.293411 38,000 269 320 64
2021-12-04 17:19:06 GMT 43.301495 -78.287727 38,000 269 321 64
2021-12-04 17:19:03 GMT 43.301788 -78.274521 38,000 269 321 128
2021-12-04 17:19:00 GMT 43.301788 -78.274521 38,000 269 321 64
2021-12-04 17:18:57 GMT 43.301880 -78.270500 38,000 269 322 -64
2021-12-04 17:18:54 GMT 43.302055 -78.262550 38,000 268 321 -64
2021-12-04 17:18:50 GMT 43.302292 -78.254211 38,000 269 322 64
2021-12-04 17:18:47 GMT 43.302612 -78.241814 38,000 269 322 0
2021-12-04 17:18:44 GMT 43.302704 -78.237541 38,000 269 322 64
2021-12-04 17:18:41 GMT 43.302704 -78.237541 38,000 269 322 64
2021-12-04 17:18:38 GMT 43.302887 -78.229362 38,000 269 323 -64
2021-12-04 17:18:35 GMT 43.303032 -78.223442 38,000 269 322 64
2021-12-04 17:18:32 GMT 43.303116 -78.219147 38,000 269 322 64
2021-12-04 17:18:29 GMT 43.303310 -78.210823 38,000 269 323 -64
2021-12-04 17:18:26 GMT 43.303436 -78.206497 38,000 269 323 -128
2021-12-04 17:18:23 GMT 43.303589 -78.200554 38,025 269 323 -64
2021-12-04 17:18:20 GMT 43.303894 -78.187714 38,000 269 323 0
2021-12-04 17:18:17 GMT 43.303894 -78.187714 38,000 268 323 0
2021-12-04 17:18:14 GMT 43.304054 -78.181000 38,000 268 323 0
2021-12-04 17:18:11 GMT 43.304337 -78.169556 38,000 268 323 -64
2021-12-04 17:18:08 GMT 43.304337 -78.169556 38,000 268 323 0
2021-12-04 17:18:05 GMT 43.304489 -78.164406 38,000 269 323 64
2021-12-04 17:18:02 GMT 43.304672 -78.155846 38,000 268 323 128
2021-12-04 17:17:59 GMT 43.304764 -78.152969 38,000 268 323 128
2021-12-04 17:17:56 GMT 43.304993 -78.144791 38,000 269 323 64
2021-12-04 17:17:53 GMT 43.305176 -78.137451 37,975 269 324 0
2021-12-04 17:17:50 GMT 43.305222 -78.131317 38,000 270 323 -128
2021-12-04 17:17:46 GMT 43.305176 -78.117393 38,000 271 323 -64
2021-12-04 17:17:43 GMT 43.305176 -78.117393 38,000 271 323 64
2021-12-04 17:17:40 GMT 43.305176 -78.112473 38,000 271 323 128
2021-12-04 17:17:37 GMT 43.305130 -78.106339 38,000 271 323 -64
2021-12-04 17:17:33 GMT 43.305084 -78.100212 38,000 271 323 0
2021-12-04 17:17:30 GMT 43.305038 -78.092033 38,000 271 323 0
2021-12-04 17:17:27 GMT 43.304993 -78.079323 38,000 271 323 0
2021-12-04 17:17:24 GMT 43.304993 -78.079323 38,000 271 323 -64
2021-12-04 17:17:21 GMT 43.304947 -78.064629 38,000 271 323 -192
2021-12-04 17:17:17 GMT 43.304947 -78.064629 38,025 271 323 -128
2021-12-04 17:17:14 GMT 43.304901 -78.058502 38,000 271 322 128
2021-12-04 17:17:11 GMT 43.304893 -78.053413 38,000 271 322 128
2021-12-04 17:17:08 GMT 43.304855 -78.045853 38,000 271 323 128
2021-12-04 17:17:05 GMT 43.304855 -78.036461 38,000 271 323 64
2021-12-04 17:17:02 GMT 43.304855 -78.036461 38,000 271 323 64
2021-12-04 17:16:59 GMT 43.304810 -78.028290 38,000 271 323 -128
2021-12-04 17:16:54 GMT 43.304752 -78.017906 38,000 271 322 0
2021-12-04 17:16:50 GMT 43.304707 -78.010124 38,000 271 322 64
2021-12-04 17:16:47 GMT 43.304661 -78.002800 38,000 271 322 0
2021-12-04 17:16:44 GMT 43.304672 -77.997688 38,000 271 322 -64
2021-12-04 17:16:41 GMT 43.304661 -77.990570 38,000 271 322 -128
2021-12-04 17:16:38 GMT 43.304661 -77.986061 38,000 271 322 -128
2021-12-04 17:16:35 GMT 43.304615 -77.978737 38,025 271 322 0
2021-12-04 17:16:31 GMT 43.304565 -77.973045 38,000 271 322 64
2021-12-04 17:16:28 GMT 43.304535 -77.964668 38,000 271 322 64
2021-12-04 17:16:25 GMT 43.304535 -77.958534 38,000 271 322 64
2021-12-04 17:16:22 GMT 43.304489 -77.947166 38,000 271 322 64
2021-12-04 17:16:19 GMT 43.304489 -77.947166 38,000 271 322 -128
2021-12-04 17:16:16 GMT 43.304443 -77.942245 38,000 271 322 -128
2021-12-04 17:16:13 GMT 43.304398 -77.934906 38,025 271 322 0
2021-12-04 17:16:10 GMT 43.304337 -77.927399 38,000 271 322 256
2021-12-04 17:16:07 GMT 43.304306 -77.921875 38,000 271 322 256
2021-12-04 17:16:03 GMT 43.304260 -77.915359 38,000 271 323 64
2021-12-04 17:16:00 GMT 43.304214 -77.910057 37,975 271 323 -192
2021-12-04 17:15:57 GMT 43.304169 -77.901497 38,000 271 323 -192
2021-12-04 17:15:54 GMT 43.304123 -77.893707 38,000 271 323 -192
2021-12-04 17:15:51 GMT 43.304123 -77.889236 38,025 271 323 -64
2021-12-04 17:15:48 GMT 43.304104 -77.884956 38,000 270 323 64
2021-12-04 17:15:45 GMT 43.304104 -77.878418 38,000 270 323 64
2021-12-04 17:15:42 GMT 43.304123 -77.871284 38,000 271 323 64
2021-12-04 17:15:39 GMT 43.304123 -77.867195 38,000 271 323 0
2021-12-04 17:15:36 GMT 43.304077 -77.858192 38,000 271 323 0
2021-12-04 17:15:32 GMT 43.304008 -77.852257 38,000 271 323 0
2021-12-04 17:15:29 GMT 43.304008 -77.846504 38,000 271 323 0
2021-12-04 17:15:26 GMT 43.303940 -77.837753 38,000 271 323 0
2021-12-04 17:15:22 GMT 43.303867 -77.828911 38,000 271 323 -64
2021-12-04 17:15:19 GMT 43.303848 -77.825043 38,000 271 323 -64
2021-12-04 17:15:16 GMT 43.303776 -77.819496 38,000 271 323 -64
2021-12-04 17:15:13 GMT 43.303757 -77.812332 38,000 271 324 0
2021-12-04 17:15:10 GMT 43.303711 -77.806648 38,000 271 324 128
2021-12-04 17:15:07 GMT 43.303665 -77.799683 38,000 271 324 128
2021-12-04 17:15:04 GMT 43.303619 -77.792717 38,000 271 324 64
2021-12-04 17:15:01 GMT 43.303574 -77.786140 38,000 271 324 0
2021-12-04 17:14:58 GMT 43.303528 -77.782051 38,000 271 324 -128
2021-12-04 17:14:55 GMT 43.303497 -77.774895 38,000 271 323 -64
2021-12-04 17:14:52 GMT 43.303452 -77.767899 38,000 271 323 -64
2021-12-04 17:14:49 GMT 43.303406 -77.761360 38,000 271 323 -128
2021-12-04 17:14:46 GMT 43.303345 -77.757080 38,025 271 323 -64
2021-12-04 17:14:43 GMT 43.303299 -77.751778 38,025 271 322 -64
2021-12-04 17:14:40 GMT 43.303253 -77.744812 38,025 271 322 0
2021-12-04 17:14:37 GMT 43.303219 -77.740562 38,025 271 322 64
2021-12-04 17:14:34 GMT 43.303162 -77.729744 38,000 271 322 64
2021-12-04 17:14:30 GMT 43.303116 -77.723671 38,000 271 322 0
2021-12-04 17:14:27 GMT 43.302986 -77.710808 38,000 271 322 -64
2021-12-04 17:14:23 GMT 43.302986 -77.710808 38,000 271 322 0
2021-12-04 17:14:20 GMT 43.302933 -77.703232 38,000 271 322 64
2021-12-04 17:14:16 GMT 43.302845 -77.694923 38,000 271 322 0
2021-12-04 17:14:13 GMT 43.302845 -77.690018 38,000 271 322 64
2021-12-04 17:14:10 GMT 43.302753 -77.681053 38,000 271 322 64
2021-12-04 17:14:07 GMT 43.302753 -77.677788 38,000 271 322 64
2021-12-04 17:14:03 GMT 43.302704 -77.668610 38,000 271 322 64
2021-12-04 17:14:00 GMT 43.302658 -77.664772 38,025 271 322 -128
2021-12-04 17:13:57 GMT 43.302612 -77.657181 38,025 271 321 -128
2021-12-04 17:13:54 GMT 43.302567 -77.651497 38,025 271 321 -64
2021-12-04 17:13:51 GMT 43.302425 -77.637505 38,025 271 321 -64
2021-12-04 17:13:48 GMT 43.302425 -77.637505 38,025 271 321 0
2021-12-04 17:13:45 GMT 43.302383 -77.631569 38,000 271 321 128
2021-12-04 17:13:42 GMT 43.302338 -77.627098 38,000 271 321 128
2021-12-04 17:13:37 GMT 43.302246 -77.614899 38,000 271 321 -64
2021-12-04 17:13:34 GMT 43.302200 -77.608826 38,000 271 321 -192
2021-12-04 17:13:30 GMT 43.302109 -77.602692 38,025 271 321 -192
2021-12-04 17:13:26 GMT 43.302063 -77.593819 38,025 271 321 64
2021-12-04 17:13:23 GMT 43.302006 -77.589569 38,000 271 321 128
2021-12-04 17:13:20 GMT 43.301960 -77.582634 38,000 271 321 64
2021-12-04 17:13:17 GMT 43.301834 -77.568649 38,000 271 321 64
2021-12-04 17:13:14 GMT 43.301834 -77.568649 38,000 271 321 0
2021-12-04 17:13:11 GMT 43.301773 -77.560341 38,000 271 321 -64
2021-12-04 17:13:06 GMT 43.301682 -77.552620 38,000 271 321 0
2021-12-04 17:13:03 GMT 43.301651 -77.546745 38,000 271 321 0
2021-12-04 17:12:59 GMT 43.301586 -77.540459 38,000 271 321 0
2021-12-04 17:12:55 GMT 43.301468 -77.530899 38,000 271 321 64
2021-12-04 17:12:52 GMT 43.301376 -77.519150 38,000 271 321 64
2021-12-04 17:12:49 GMT 43.301376 -77.519150 38,000 271 321 0
2021-12-04 17:12:46 GMT 43.301285 -77.511040 38,000 271 321 -64
2021-12-04 17:12:43 GMT 43.301216 -77.505142 38,000 271 321 -64
2021-12-04 17:12:40 GMT 43.301193 -77.500877 38,000 271 321 0
2021-12-04 17:12:37 GMT 43.301125 -77.492134 38,000 271 321 -64
2021-12-04 17:12:34 GMT 43.301075 -77.488930 38,000 271 320 -64
2021-12-04 17:12:30 GMT 43.301010 -77.480186 38,000 271 320 0
2021-12-04 17:12:26 GMT 43.300892 -77.471855 38,000 271 320 0
2021-12-04 17:12:23 GMT 43.300827 -77.464790 38,000 271 320 0
2021-12-04 17:12:20 GMT 43.300781 -77.461983 38,000 271 320 0
2021-12-04 17:12:17 GMT 43.300705 -77.454071 38,000 271 320 0
2021-12-04 17:12:14 GMT 43.300598 -77.441284 38,000 271 320 0
2021-12-04 17:12:11 GMT 43.300598 -77.441284 38,000 271 320 64
2021-12-04 17:12:06 GMT 43.300564 -77.431572 38,000 271 320 0
2021-12-04 17:12:02 GMT 43.300507 -77.422890 38,000 271 320 0
2021-12-04 17:11:59 GMT 43.300415 -77.416565 38,000 271 320 0
2021-12-04 17:11:55 GMT 43.300369 -77.410500 38,000 271 320 0
2021-12-04 17:11:52 GMT 43.300331 -77.404243 38,000 271 320 0
2021-12-04 17:11:49 GMT 43.300278 -77.398361 38,000 271 320 64
2021-12-04 17:11:46 GMT 43.300194 -77.390442 38,000 271 320 0
2021-12-04 17:11:43 GMT 43.300095 -77.377731 38,000 271 320 0
2021-12-04 17:11:40 GMT 43.300095 -77.377731 38,000 271 320 0
2021-12-04 17:11:35 GMT 43.299957 -77.367577 38,000 271 320 0
2021-12-04 17:11:32 GMT 43.299957 -77.364937 38,000 271 320 0
2021-12-04 17:11:29 GMT 43.299866 -77.357224 38,000 271 320 0
2021-12-04 17:11:26 GMT 43.299820 -77.351990 38,000 271 320 0
2021-12-04 17:11:23 GMT 43.299728 -77.342026 38,000 271 320 -64
2021-12-04 17:11:19 GMT 43.299683 -77.335960 38,000 271 320 -64
2021-12-04 17:11:15 GMT 43.299587 -77.327271 38,000 271 320 0
2021-12-04 17:11:10 GMT 43.299492 -77.317917 38,000 271 319 0
2021-12-04 17:11:07 GMT 43.299400 -77.311050 38,000 271 320 0
2021-12-04 17:11:04 GMT 43.299400 -77.307846 38,000 271 319 0
2021-12-04 17:11:01 GMT 43.299309 -77.299736 38,000 271 319 0
2021-12-04 17:10:58 GMT 43.299213 -77.291634 38,000 271 319 0
2021-12-04 17:10:55 GMT 43.299179 -77.286644 38,000 271 319 0
2021-12-04 17:10:51 GMT 43.299133 -77.278984 38,000 271 319 0
2021-12-04 17:10:48 GMT 43.299088 -77.274895 38,000 271 318 0
2021-12-04 17:10:45 GMT 43.298996 -77.266846 38,000 271 318 -64
2021-12-04 17:10:41 GMT 43.298904 -77.258797 38,000 271 318 0
2021-12-04 17:10:38 GMT 43.298859 -77.254005 38,000 271 318 -64
2021-12-04 17:10:35 GMT 43.298748 -77.245720 38,000 271 317 -64
2021-12-04 17:10:31 GMT 43.298702 -77.238922 38,000 271 317 0
2021-12-04 17:10:28 GMT 43.298656 -77.232513 38,000 271 317 0
2021-12-04 17:10:25 GMT 43.298561 -77.226036 38,000 271 317 64
2021-12-04 17:10:21 GMT 43.298424 -77.214005 38,000 271 318 64
2021-12-04 17:10:18 GMT 43.298424 -77.214005 38,000 271 318 0
2021-12-04 17:10:15 GMT 43.298374 -77.207993 38,000 271 318 0
2021-12-04 17:10:12 GMT 43.298264 -77.195686 38,000 271 318 0
2021-12-04 17:10:09 GMT 43.298264 -77.195686 38,000 271 318 64
2021-12-04 17:10:06 GMT 43.298172 -77.187645 38,000 271 318 64
2021-12-04 17:10:02 GMT 43.298004 -77.174179 38,000 271 319 64
2021-12-04 17:09:59 GMT 43.298004 -77.174179 38,000 271 319 64
2021-12-04 17:09:56 GMT 43.297958 -77.168884 38,000 271 319 0
2021-12-04 17:09:53 GMT 43.297913 -77.164894 38,000 271 319 0
2021-12-04 17:09:49 GMT 43.297806 -77.154938 38,000 271 320 0
2021-12-04 17:09:45 GMT 43.297726 -77.146255 38,000 271 320 0
2021-12-04 17:09:41 GMT 43.297623 -77.131050 38,000 271 321 0
2021-12-04 17:09:38 GMT 43.297623 -77.131050 38,000 271 320 0
2021-12-04 17:09:34 GMT 43.297539 -77.123566 38,000 271 321 0
2021-12-04 17:09:30 GMT 43.297440 -77.114059 38,000 271 321 0
2021-12-04 17:09:26 GMT 43.297398 -77.108131 38,000 271 321 0
2021-12-04 17:09:22 GMT 43.297352 -77.102051 38,000 271 321 0
2021-12-04 17:09:18 GMT 43.297211 -77.091850 38,000 271 322 0
2021-12-04 17:09:15 GMT 43.297165 -77.084526 38,000 271 322 0
2021-12-04 17:09:12 GMT 43.297119 -77.081482 38,000 271 322 0
2021-12-04 17:09:09 GMT 43.297028 -77.073753 38,000 271 322 0
2021-12-04 17:09:06 GMT 43.296978 -77.069878 38,000 271 323 64
2021-12-04 17:09:02 GMT 43.296890 -77.059891 38,000 271 323 64
2021-12-04 17:08:59 GMT 43.296795 -77.052284 38,000 271 323 0
2021-12-04 17:08:55 GMT 43.296700 -77.044113 38,000 271 324 0
2021-12-04 17:08:52 GMT 43.296700 -77.040451 38,000 271 324 0
2021-12-04 17:08:48 GMT 43.296570 -77.029175 38,000 271 324 0
2021-12-04 17:08:45 GMT 43.296421 -77.019127 38,000 271 325 0
2021-12-04 17:08:42 GMT 43.296421 -77.019127 38,000 272 326 0
2021-12-04 17:08:38 GMT 43.296341 -77.011093 38,000 271 326 0
2021-12-04 17:08:35 GMT 43.296249 -77.003685 38,000 271 327 0
2021-12-04 17:08:32 GMT 43.296047 -76.983948 38,000 271 327 0
2021-12-04 17:08:26 GMT 43.296021 -76.980049 38,000 271 329 0
2021-12-04 17:08:23 GMT 43.296021 -76.980049 38,000 271 329 64
2021-12-04 17:08:20 GMT 43.295956 -76.974861 38,000 272 330 64
2021-12-04 17:08:17 GMT 43.295837 -76.967529 38,000 272 331 0
2021-12-04 17:08:14 GMT 43.295746 -76.959991 38,000 272 331 -64
2021-12-04 17:08:11 GMT 43.295677 -76.953476 38,000 272 332 -64
2021-12-04 17:08:05 GMT 43.295490 -76.940460 38,000 272 333 0
2021-12-04 17:08:02 GMT 43.295399 -76.936272 38,000 272 333 0
2021-12-04 17:07:59 GMT 43.295349 -76.931435 38,000 272 334 0
2021-12-04 17:07:56 GMT 43.295212 -76.921890 38,000 272 335 0
2021-12-04 17:07:53 GMT 43.295162 -76.917244 38,000 272 335 0
2021-12-04 17:07:50 GMT 43.295059 -76.909027 38,000 272 335 0
2021-12-04 17:07:45 GMT 43.294884 -76.899002 38,000 272 336 -64
2021-12-04 17:07:42 GMT 43.294792 -76.892197 38,000 272 336 -64
2021-12-04 17:07:39 GMT 43.294746 -76.887947 38,000 272 336 -64
2021-12-04 17:07:36 GMT 43.294514 -76.874413 38,000 272 336 -64
2021-12-04 17:07:33 GMT 43.294514 -76.874413 38,000 272 336 0
2021-12-04 17:07:30 GMT 43.294418 -76.865913 38,000 272 336 64
2021-12-04 17:07:26 GMT 43.294281 -76.857155 38,000 272 336 128
2021-12-04 17:07:23 GMT 43.294098 -76.847382 38,000 272 336 64
2021-12-04 17:07:20 GMT 43.294098 -76.847382 38,000 272 337 -128
2021-12-04 17:07:17 GMT 43.294006 -76.841827 38,000 272 337 -64
2021-12-04 17:07:13 GMT 43.293861 -76.831841 38,000 272 337 0
2021-12-04 17:07:10 GMT 43.293732 -76.823112 38,000 272 336 -64
2021-12-04 17:07:07 GMT 43.293640 -76.817169 38,000 272 337 0
2021-12-04 17:07:02 GMT 43.293503 -76.808228 38,000 272 337 64
2021-12-04 17:06:58 GMT 43.293411 -76.800568 38,000 272 337 0
2021-12-04 17:06:53 GMT 43.293209 -76.787567 38,000 272 336 0
2021-12-04 17:06:50 GMT 43.293137 -76.782234 38,000 272 336 -64
2021-12-04 17:06:47 GMT 43.293068 -76.778214 38,000 272 336 -64
2021-12-04 17:06:42 GMT 43.292816 -76.764412 38,000 272 335 64
2021-12-04 17:06:38 GMT 43.292698 -76.755722 38,000 272 335 0
2021-12-04 17:06:33 GMT 43.292542 -76.744934 38,000 272 334 0
2021-12-04 17:06:29 GMT 43.292404 -76.738159 38,000 272 334 0
2021-12-04 17:06:26 GMT 43.292313 -76.732666 38,000 272 331 -64
2021-12-04 17:06:23 GMT 43.292130 -76.722961 38,000 272 332 0
2021-12-04 17:06:20 GMT 43.292084 -76.719193 38,000 272 332 0
2021-12-04 17:06:17 GMT 43.291855 -76.704880 38,000 272 331 -64
2021-12-04 17:06:14 GMT 43.291855 -76.704880 38,000 272 330 -64
2021-12-04 17:06:11 GMT 43.291718 -76.699005 38,000 272 330 -64
2021-12-04 17:06:08 GMT 43.291626 -76.694023 38,000 272 330 -64
2021-12-04 17:06:04 GMT 43.291439 -76.683784 38,000 272 329 -64
2021-12-04 17:06:01 GMT 43.291351 -76.679398 38,000 272 328 -64
2021-12-04 17:05:58 GMT 43.291122 -76.665726 38,000 272 328 0
2021-12-04 17:05:55 GMT 43.291122 -76.665726 38,000 271 327 64
2021-12-04 17:05:51 GMT 43.290985 -76.652061 38,000 271 325 0
2021-12-04 17:05:48 GMT 43.290985 -76.652061 38,000 271 326 0
2021-12-04 17:05:45 GMT 43.290939 -76.646690 38,000 271 325 0
2021-12-04 17:05:42 GMT 43.290882 -76.639511 38,000 271 325 0
2021-12-04 17:05:39 GMT 43.290848 -76.634361 38,000 271 324 0
2021-12-04 17:05:35 GMT 43.290741 -76.624344 38,000 271 323 0
2021-12-04 17:05:31 GMT 43.290665 -76.615906 38,000 271 323 0
2021-12-04 17:05:27 GMT 43.290604 -76.607597 38,000 271 322 -64
2021-12-04 17:05:24 GMT 43.290573 -76.602875 38,000 271 321 0
2021-12-04 17:05:20 GMT 43.290508 -76.593735 38,000 271 321 64
2021-12-04 17:05:17 GMT 43.290482 -76.587868 38,000 271 320 64
2021-12-04 17:05:14 GMT 43.290390 -76.580971 38,000 271 320 0
2021-12-04 17:05:11 GMT 43.290321 -76.571892 38,000 271 319 0
2021-12-04 17:05:08 GMT 43.290321 -76.571892 38,000 271 319 0
2021-12-04 17:05:05 GMT 43.290253 -76.562759 38,000 271 319 0
2021-12-04 17:05:01 GMT 43.290184 -76.556137 38,000 271 318 0
2021-12-04 17:04:58 GMT 43.290161 -76.551903 38,000 271 318 0
2021-12-04 17:04:55 GMT 43.290070 -76.545067 38,000 271 316 0
2021-12-04 17:04:52 GMT 43.289997 -76.538086 38,000 271 316 0
2021-12-04 17:04:49 GMT 43.289932 -76.531845 38,000 271 315 0
2021-12-04 17:04:46 GMT 43.289856 -76.525658 38,000 271 315 64
2021-12-04 17:04:42 GMT 43.289764 -76.518929 38,000 271 314 0
2021-12-04 17:04:39 GMT 43.289703 -76.511597 38,000 271 313 0
2021-12-04 17:04:36 GMT 43.289612 -76.505280 38,000 271 312 -64
2021-12-04 17:04:33 GMT 43.289566 -76.499336 38,000 271 312 -64
2021-12-04 17:04:30 GMT 43.289474 -76.493011 38,000 271 311 -64
2021-12-04 17:04:27 GMT 43.289436 -76.489304 38,000 271 309 -64
2021-12-04 17:04:24 GMT 43.289391 -76.483414 38,000 271 309 0
2021-12-04 17:04:21 GMT 43.289345 -76.477531 38,000 271 308 0
2021-12-04 17:04:18 GMT 43.289291 -76.471489 38,000 271 308 0
2021-12-04 17:04:15 GMT 43.289204 -76.464714 38,000 271 307 0
2021-12-04 17:04:11 GMT 43.289158 -76.456932 38,000 271 306 64
2021-12-04 17:04:07 GMT 43.289108 -76.449005 38,000 271 306 0
2021-12-04 17:04:04 GMT 43.288971 -76.435417 38,000 271 305 0
2021-12-04 17:04:00 GMT 43.288971 -76.435417 38,000 271 305 0
2021-12-04 17:03:57 GMT 43.288925 -76.430641 38,000 271 304 64
2021-12-04 17:03:54 GMT 43.288834 -76.424286 38,000 271 304 64
2021-12-04 17:03:51 GMT 43.288788 -76.420242 38,000 271 304 64
2021-12-04 17:03:48 GMT 43.288742 -76.412338 38,000 271 304 64
2021-12-04 17:03:44 GMT 43.288651 -76.404289 38,000 271 303 64
2021-12-04 17:03:41 GMT 43.288605 -76.400078 38,000 271 303 64
2021-12-04 17:03:38 GMT 43.288513 -76.392349 38,000 271 304 64
2021-12-04 17:03:35 GMT 43.288460 -76.388329 38,000 271 304 64
2021-12-04 17:03:32 GMT 43.288422 -76.381233 38,000 271 304 128
2021-12-04 17:03:27 GMT 43.288322 -76.372963 38,000 271 304 0
2021-12-04 17:03:24 GMT 43.288273 -76.369102 38,000 271 305 0
2021-12-04 17:03:20 GMT 43.288193 -76.360413 38,000 271 305 0
2021-12-04 17:03:16 GMT 43.288090 -76.351387 38,000 271 305 0
2021-12-04 17:03:13 GMT 43.288040 -76.347916 38,000 271 305 0
2021-12-04 17:03:10 GMT 43.287964 -76.341118 38,000 271 305 64
2021-12-04 17:03:07 GMT 43.287853 -76.332809 38,000 271 305 0
2021-12-04 17:03:04 GMT 43.287735 -76.324516 38,000 272 306 0
2021-12-04 17:03:01 GMT 43.287735 -76.324516 38,000 272 306 0
2021-12-04 17:02:57 GMT 43.287529 -76.308090 38,000 271 306 0
2021-12-04 17:02:54 GMT 43.287529 -76.308090 38,000 271 306 0
2021-12-04 17:02:50 GMT 43.287437 -76.301094 38,000 271 306 0
2021-12-04 17:02:47 GMT 43.287392 -76.295273 38,000 271 306 -64
2021-12-04 17:02:44 GMT 43.287342 -76.289520 38,000 271 306 -64
2021-12-04 17:02:41 GMT 43.287251 -76.282524 38,000 271 306 -64
2021-12-04 17:02:36 GMT 43.287155 -76.272453 38,000 271 306 0
2021-12-04 17:02:32 GMT 43.287094 -76.266830 38,000 271 307 0
2021-12-04 17:02:29 GMT 43.287018 -76.259239 38,000 271 307 0
2021-12-04 17:02:25 GMT 43.286911 -76.252464 38,000 271 307 0
2021-12-04 17:02:22 GMT 43.286785 -76.239494 38,000 271 307 0
2021-12-04 17:02:19 GMT 43.286785 -76.239494 38,000 271 307 0
2021-12-04 17:02:14 GMT 43.286690 -76.230927 38,000 271 307 0
2021-12-04 17:02:11 GMT 43.286644 -76.225891 38,000 271 308 0
2021-12-04 17:02:08 GMT 43.286552 -76.218826 38,000 271 308 0
2021-12-04 17:02:04 GMT 43.286499 -76.211647 38,000 271 308 -64
2021-12-04 17:02:01 GMT 43.286411 -76.207191 38,000 271 308 -64
2021-12-04 17:01:58 GMT 43.286366 -76.200584 38,000 271 308 -64
2021-12-04 17:01:53 GMT 43.286270 -76.191399 38,000 271 309 64
2021-12-04 17:01:50 GMT 43.286179 -76.184753 38,000 271 309 64
2021-12-04 17:01:47 GMT 43.286133 -76.178879 38,000 271 309 64
2021-12-04 17:01:44 GMT 43.286041 -76.172623 38,000 271 310 64
2021-12-04 17:01:41 GMT 43.285995 -76.166740 38,000 271 310 64
2021-12-04 17:01:37 GMT 43.285812 -76.152184 38,000 271 311 -64
2021-12-04 17:01:34 GMT 43.285812 -76.152184 38,000 271 311 0
2021-12-04 17:01:30 GMT 43.285721 -76.146240 38,000 271 312 64
2021-12-04 17:01:26 GMT 43.285675 -76.139153 38,000 271 313 64
2021-12-04 17:01:23 GMT 43.285538 -76.130844 38,000 271 314 0
2021-12-04 17:01:20 GMT 43.285492 -76.126884 38,000 271 314 0
2021-12-04 17:01:17 GMT 43.285400 -76.118904 38,000 271 314 0
2021-12-04 17:01:12 GMT 43.285309 -76.108170 38,000 271 315 -64
2021-12-04 17:01:09 GMT 43.285248 -76.102425 38,000 271 315 0
2021-12-04 17:01:06 GMT 43.285172 -76.098206 38,000 271 316 0
2021-12-04 17:01:02 GMT 43.285080 -76.089836 38,000 271 316 0
2021-12-04 17:00:59 GMT 43.284943 -76.077827 38,000 272 316 0
2021-12-04 17:00:56 GMT 43.284943 -76.077827 38,000 272 316 0
2021-12-04 17:00:52 GMT 43.284782 -76.064430 38,000 271 317 0
2021-12-04 17:00:49 GMT 43.284782 -76.064430 38,000 272 317 0
2021-12-04 17:00:46 GMT 43.284714 -76.057388 38,000 272 317 0
2021-12-04 17:00:42 GMT 43.284576 -76.048958 38,000 272 318 0
2021-12-04 17:00:39 GMT 43.284485 -76.044937 38,000 272 318 -64
2021-12-04 17:00:35 GMT 43.284363 -76.036308 38,000 272 318 0
2021-12-04 17:00:32 GMT 43.284302 -76.030434 38,000 272 318 64
2021-12-04 17:00:29 GMT 43.284225 -76.024216 38,000 272 319 64
2021-12-04 17:00:25 GMT 43.284130 -76.017738 38,000 272 319 0
2021-12-04 17:00:22 GMT 43.284039 -76.011726 38,000 272 320 0
2021-12-04 17:00:19 GMT 43.283890 -76.003036 38,000 272 320 0
2021-12-04 17:00:15 GMT 43.283798 -75.994537 38,000 272 320 0
2021-12-04 17:00:12 GMT 43.283707 -75.987190 38,000 272 321 64
2021-12-04 17:00:09 GMT 43.283619 -75.981773 38,000 272 321 64
2021-12-04 17:00:06 GMT 43.283569 -75.977676 38,000 272 321 64
2021-12-04 17:00:02 GMT 43.283432 -75.970390 38,000 272 322 -128
2021-12-04 16:59:58 GMT 43.283295 -75.961197 38,000 272 322 -128
2021-12-04 16:59:55 GMT 43.283249 -75.955742 38,000 272 322 -128
2021-12-04 16:59:52 GMT 43.283154 -75.949600 38,000 271 322 64
2021-12-04 16:59:49 GMT 43.283066 -75.941269 38,000 271 322 64
2021-12-04 16:59:46 GMT 43.283020 -75.935966 38,000 271 323 64
2021-12-04 16:59:43 GMT 43.282967 -75.930046 38,000 272 324 -64
2021-12-04 16:59:40 GMT 43.282791 -75.918404 38,000 272 323 0
2021-12-04 16:59:37 GMT 43.282791 -75.918404 38,000 272 323 -64
2021-12-04 16:59:34 GMT 43.282700 -75.912270 38,000 272 324 64
2021-12-04 16:59:31 GMT 43.282642 -75.907158 38,000 272 324 64
2021-12-04 16:59:28 GMT 43.282516 -75.899559 38,000 272 324 64
2021-12-04 16:59:25 GMT 43.282471 -75.895470 38,000 272 324 64
2021-12-04 16:59:22 GMT 43.282364 -75.887077 38,000 272 325 64
2021-12-04 16:59:17 GMT 43.282223 -75.877205 38,000 272 325 0
2021-12-04 16:59:16 GMT 43.282196 -75.875351 38,000 272 325 0
2021-12-04 16:59:12 GMT 43.282127 -75.867722 38,000 272 325 0
2021-12-04 16:59:09 GMT 43.281990 -75.858238 38,000 272 325 0
2021-12-04 16:59:06 GMT 43.281921 -75.854340 38,000 272 325 0
2021-12-04 16:59:05 GMT 43.281921 -75.854340 38,000 272 326 0
2021-12-04 16:59:02 GMT 43.281876 -75.848206 38,000 272 326 -64
2021-12-04 16:58:59 GMT 43.281757 -75.839737 38,000 272 326 -64
2021-12-04 16:58:56 GMT 43.281647 -75.833321 38,000 271 326 64
2021-12-04 16:58:52 GMT 43.281570 -75.827377 38,000 271 326 64
2021-12-04 16:58:49 GMT 43.281509 -75.820992 38,000 272 326 64
2021-12-04 16:58:46 GMT 43.281429 -75.814163 38,000 271 326 64
2021-12-04 16:58:43 GMT 43.281338 -75.806778 38,000 271 326 0
2021-12-04 16:58:40 GMT 43.281246 -75.798538 38,000 272 326 -64
2021-12-04 16:58:36 GMT 43.281143 -75.792122 38,000 272 327 -64
2021-12-04 16:58:33 GMT 43.281105 -75.786507 38,000 272 327 -64
2021-12-04 16:58:29 GMT 43.280968 -75.777412 38,000 272 327 0
2021-12-04 16:58:26 GMT 43.280914 -75.771431 38,000 272 326 -64
2021-12-04 16:58:23 GMT 43.280827 -75.764595 38,000 272 327 0
2021-12-04 16:58:20 GMT 43.280731 -75.760246 38,000 272 327 0
2021-12-04 16:58:17 GMT 43.280594 -75.751846 38,000 272 326 0
2021-12-04 16:58:14 GMT 43.280548 -75.747658 38,000 272 326 -64
2021-12-04 16:58:10 GMT 43.280453 -75.739815 38,000 272 326 -64
2021-12-04 16:58:07 GMT 43.280365 -75.733482 38,000 272 325 -64
2021-12-04 16:58:04 GMT 43.280266 -75.726669 38,000 272 325 -64
2021-12-04 16:58:01 GMT 43.280174 -75.721306 38,000 272 325 0
2021-12-04 16:57:58 GMT 43.280083 -75.715157 38,000 272 325 -64
2021-12-04 16:57:54 GMT 43.279907 -75.704681 38,025 272 324 -64
2021-12-04 16:57:51 GMT 43.279846 -75.699135 38,000 272 324 0
2021-12-04 16:57:48 GMT 43.279633 -75.687500 38,000 272 323 0
2021-12-04 16:57:45 GMT 43.279633 -75.687500 38,000 272 323 64
2021-12-04 16:57:42 GMT 43.279587 -75.683411 38,000 272 323 64
2021-12-04 16:57:39 GMT 43.279449 -75.674789 38,000 272 322 -64
2021-12-04 16:57:36 GMT 43.279358 -75.668655 38,000 272 322 -64
2021-12-04 16:57:33 GMT 43.279266 -75.662582 38,000 272 320 -64
2021-12-04 16:57:29 GMT 43.279148 -75.654671 38,000 272 321 -64
2021-12-04 16:57:26 GMT 43.279083 -75.649170 38,000 272 320 -64
2021-12-04 16:57:22 GMT 43.278965 -75.641655 38,000 272 319 -64
2021-12-04 16:57:19 GMT 43.278809 -75.633781 38,025 272 319 -64
2021-12-04 16:57:16 GMT 43.278671 -75.626114 38,025 272 318 0
2021-12-04 16:57:13 GMT 43.278591 -75.622299 38,025 272 318 0
2021-12-04 16:57:10 GMT 43.278500 -75.617065 38,000 272 317 0
2021-12-04 16:57:07 GMT 43.278442 -75.612831 38,000 272 317 0
2021-12-04 16:57:04 GMT 43.278313 -75.605423 38,000 272 316 -64
2021-12-04 16:57:01 GMT 43.278217 -75.599411 38,000 272 316 0
2021-12-04 16:56:58 GMT 43.278122 -75.592003 38,000 272 315 0
2021-12-04 16:56:54 GMT 43.278034 -75.585411 38,000 272 315 64
2021-12-04 16:56:53 GMT 43.277985 -75.582420 38,000 272 315 0
2021-12-04 16:56:50 GMT 43.277939 -75.578285 38,000 272 315 0
2021-12-04 16:56:47 GMT 43.277847 -75.572075 38,000 272 314 64
2021-12-04 16:56:43 GMT 43.277706 -75.561546 38,000 272 314 64
2021-12-04 16:56:40 GMT 43.277664 -75.557770 38,000 272 313 0
2021-12-04 16:56:37 GMT 43.277573 -75.551826 38,000 272 313 -64
2021-12-04 16:56:33 GMT 43.277435 -75.543907 38,000 272 312 -64
2021-12-04 16:56:30 GMT 43.277298 -75.535606 38,000 272 312 0
2021-12-04 16:56:26 GMT 43.277206 -75.530876 38,000 272 312 0
2021-12-04 16:56:22 GMT 43.277054 -75.520409 38,000 272 311 0
2021-12-04 16:56:19 GMT 43.276962 -75.514526 38,000 272 311 64
2021-12-04 16:56:16 GMT 43.276917 -75.510994 38,000 272 311 64
2021-12-04 16:56:12 GMT 43.276749 -75.500412 38,000 272 310 0
2021-12-04 16:56:09 GMT 43.276657 -75.496262 38,000 272 310 0
2021-12-04 16:56:06 GMT 43.276588 -75.490395 38,000 272 309 0
2021-12-04 16:56:02 GMT 43.276402 -75.481239 38,000 272 309 0
2021-12-04 16:55:59 GMT 43.276310 -75.474960 38,000 272 308 0
2021-12-04 16:55:56 GMT 43.276264 -75.471039 38,000 272 308 0
2021-12-04 16:55:53 GMT 43.276123 -75.464432 38,000 272 308 0
2021-12-04 16:55:49 GMT 43.275986 -75.457436 38,000 272 308 0
2021-12-04 16:55:46 GMT 43.275879 -75.451355 38,000 272 307 0
2021-12-04 16:55:43 GMT 43.275696 -75.441643 38,000 272 307 -64
2021-12-04 16:55:41 GMT 43.275566 -75.434875 38,000 272 307 -64
2021-12-04 16:55:38 GMT 43.275566 -75.434875 38,000 272 307 -64
2021-12-04 16:55:35 GMT 43.275471 -75.429840 38,000 272 307 0
2021-12-04 16:55:32 GMT 43.275333 -75.423233 38,000 272 306 0
2021-12-04 16:55:29 GMT 43.275192 -75.417183 38,000 272 306 64
2021-12-04 16:55:26 GMT 43.275005 -75.410416 38,000 272 306 64
2021-12-04 16:55:22 GMT 43.274868 -75.404274 38,000 272 306 64
2021-12-04 16:55:19 GMT 43.274727 -75.397667 38,000 272 306 64
2021-12-04 16:55:15 GMT 43.274597 -75.391701 38,000 272 305 0
2021-12-04 16:55:12 GMT 43.274460 -75.384735 38,000 272 305 0
2021-12-04 16:55:08 GMT 43.274307 -75.377586 38,000 272 305 0
2021-12-04 16:55:05 GMT 43.274170 -75.371773 38,000 272 305 0
2021-12-04 16:55:02 GMT 43.274002 -75.365379 38,000 272 305 -64
2021-12-04 16:54:58 GMT 43.273796 -75.356728 38,000 272 305 0
2021-12-04 16:54:55 GMT 43.273705 -75.351692 38,000 272 305 0
2021-12-04 16:54:51 GMT 43.273590 -75.345322 38,000 272 305 0
2021-12-04 16:54:50 GMT 43.273518 -75.342476 38,000 272 305 0
2021-12-04 16:54:47 GMT 43.273407 -75.337593 38,000 272 305 0
2021-12-04 16:54:44 GMT 43.273285 -75.332405 38,000 272 305 0
2021-12-04 16:54:41 GMT 43.273178 -75.325653 38,000 272 305 -64
2021-12-04 16:54:39 GMT 43.273087 -75.320671 38,000 272 305 -64
2021-12-04 16:54:36 GMT 43.273006 -75.316971 38,000 272 305 0
2021-12-04 16:54:33 GMT 43.272820 -75.308144 38,000 272 305 0
2021-12-04 16:54:30 GMT 43.272720 -75.302528 38,000 272 305 0
2021-12-04 16:54:27 GMT 43.272629 -75.297546 38,000 272 305 0
2021-12-04 16:54:23 GMT 43.272491 -75.290970 38,000 272 305 0
2021-12-04 16:54:20 GMT 43.272354 -75.283241 38,000 272 305 0
2021-12-04 16:54:19 GMT 43.272354 -75.283241 38,000 272 304 0
2021-12-04 16:54:16 GMT 43.272217 -75.277870 38,000 272 305 0
2021-12-04 16:54:12 GMT 43.272076 -75.269951 38,000 272 305 0
2021-12-04 16:54:09 GMT 43.271935 -75.264198 38,000 272 305 64
2021-12-04 16:54:06 GMT 43.271793 -75.257652 38,000 272 305 0
2021-12-04 16:54:03 GMT 43.271702 -75.251900 38,000 272 305 0
2021-12-04 16:54:00 GMT 43.271561 -75.246078 38,000 272 305 0
2021-12-04 16:53:56 GMT 43.271393 -75.237823 38,000 272 305 0
2021-12-04 16:53:53 GMT 43.271282 -75.231430 38,000 272 305 64
2021-12-04 16:53:50 GMT 43.271145 -75.225288 38,000 272 305 0
2021-12-04 16:53:46 GMT 43.270863 -75.212860 38,000 272 306 0
2021-12-04 16:53:43 GMT 43.270863 -75.212860 38,000 272 306 0
2021-12-04 16:53:39 GMT 43.270752 -75.207291 38,000 272 306 0
2021-12-04 16:53:38 GMT 43.270706 -75.204163 38,000 272 306 0
2021-12-04 16:53:35 GMT 43.270584 -75.198929 38,000 272 306 64
2021-12-04 16:53:32 GMT 43.270386 -75.190620 38,000 272 307 64
2021-12-04 16:53:29 GMT 43.270294 -75.186340 38,000 272 307 0
2021-12-04 16:53:26 GMT 43.270111 -75.178230 38,000 272 307 0
2021-12-04 16:53:22 GMT 43.270020 -75.173569 38,000 272 307 0
2021-12-04 16:53:19 GMT 43.269886 -75.167542 38,000 272 308 0
2021-12-04 16:53:18 GMT 43.269836 -75.165009 38,000 272 308 64
2021-12-04 16:53:15 GMT 43.269699 -75.159370 38,000 272 308 64
2021-12-04 16:53:12 GMT 43.269562 -75.153320 38,000 272 308 0
2021-12-04 16:53:09 GMT 43.269421 -75.148056 38,000 272 308 0
2021-12-04 16:53:08 GMT 43.269375 -75.145309 38,000 272 308 0
2021-12-04 16:53:04 GMT 43.269188 -75.136345 38,000 272 308 -128
2021-12-04 16:52:59 GMT 43.269001 -75.127785 38,000 272 308 0
2021-12-04 16:52:56 GMT 43.268875 -75.122917 38,000 272 308 0
2021-12-04 16:52:52 GMT 43.268646 -75.113976 38,000 272 308 0
2021-12-04 16:52:49 GMT 43.268555 -75.108482 38,000 272 308 64
2021-12-04 16:52:46 GMT 43.268417 -75.102219 38,000 272 308 0
2021-12-04 16:52:43 GMT 43.268303 -75.097374 38,000 272 309 64
2021-12-04 16:52:40 GMT 43.267979 -75.084488 38,000 272 309 0
2021-12-04 16:52:37 GMT 43.267979 -75.084488 38,000 272 309 0
2021-12-04 16:52:34 GMT 43.267792 -75.077492 38,000 272 309 0
2021-12-04 16:52:31 GMT 43.267731 -75.074112 38,000 272 309 0
2021-12-04 16:52:28 GMT 43.267559 -75.067680 38,000 272 309 0
2021-12-04 16:52:27 GMT 43.267502 -75.064789 38,000 272 309 0
2021-12-04 16:52:24 GMT 43.267410 -75.060890 38,000 272 309 0
2021-12-04 16:52:21 GMT 43.267227 -75.052650 38,000 273 309 64
2021-12-04 16:52:18 GMT 43.267094 -75.047806 38,000 273 309 0
2021-12-04 16:52:17 GMT 43.266998 -75.044662 38,000 272 309 0
2021-12-04 16:52:14 GMT 43.266907 -75.039749 38,000 272 310 0
2021-12-04 16:52:10 GMT 43.266724 -75.032722 38,000 272 310 0
2021-12-04 16:52:07 GMT 43.266632 -75.027618 38,000 272 310 64
2021-12-04 16:52:06 GMT 43.266533 -75.024651 38,000 272 310 0
2021-12-04 16:52:02 GMT 43.266396 -75.015633 38,000 272 311 -128
2021-12-04 16:51:58 GMT 43.266209 -75.007782 38,000 272 311 -128
2021-12-04 16:51:54 GMT 43.266022 -74.998756 38,025 272 311 -64
2021-12-04 16:51:50 GMT 43.265900 -74.991653 38,025 272 311 0
2021-12-04 16:51:47 GMT 43.265854 -74.988525 38,025 272 312 64
2021-12-04 16:51:46 GMT 43.265762 -74.985207 38,000 272 312 64
2021-12-04 16:51:43 GMT 43.265652 -74.977898 38,000 272 312 64
2021-12-04 16:51:40 GMT 43.265556 -74.973518 38,000 272 312 -64
2021-12-04 16:51:37 GMT 43.265465 -74.967628 38,000 272 312 -128
2021-12-04 16:51:34 GMT 43.265305 -74.960678 38,025 272 312 -64
2021-12-04 16:51:30 GMT 43.265030 -74.946877 38,025 272 312 64
2021-12-04 16:51:26 GMT 43.265030 -74.946877 38,000 272 313 64
2021-12-04 16:51:23 GMT 43.264893 -74.939789 38,000 272 313 64
2021-12-04 16:51:19 GMT 43.264717 -74.932838 38,000 272 313 128
2021-12-04 16:51:16 GMT 43.264572 -74.924713 38,000 272 313 128
2021-12-04 16:51:13 GMT 43.264534 -74.921791 38,000 272 313 128
2021-12-04 16:51:10 GMT 43.264389 -74.913277 38,000 272 313 64
2021-12-04 16:51:06 GMT 43.264206 -74.904327 38,000 272 313 -128
2021-12-04 16:51:02 GMT 43.264069 -74.897987 38,000 272 313 -64
2021-12-04 16:50:59 GMT 43.263931 -74.893028 38,025 272 313 64
2021-12-04 16:50:54 GMT 43.263702 -74.882751 38,025 272 313 0
2021-12-04 16:50:49 GMT 43.263508 -74.872673 38,000 272 313 64
2021-12-04 16:50:46 GMT 43.263321 -74.864372 38,000 272 313 64
2021-12-04 16:50:43 GMT 43.263199 -74.860580 38,000 272 313 64
2021-12-04 16:50:39 GMT 43.263016 -74.851448 38,000 272 313 0
2021-12-04 16:50:35 GMT 43.262856 -74.844162 38,000 272 313 0
2021-12-04 16:50:32 GMT 43.262718 -74.837425 38,000 272 313 0
2021-12-04 16:50:29 GMT 43.262577 -74.831871 38,000 272 313 0
2021-12-04 16:50:26 GMT 43.262466 -74.826157 38,000 272 312 -64
2021-12-04 16:50:23 GMT 43.262375 -74.821426 38,000 272 312 0
2021-12-04 16:50:20 GMT 43.262192 -74.814659 38,000 272 312 0
2021-12-04 16:50:16 GMT 43.262009 -74.806801 38,000 272 312 0
2021-12-04 16:50:13 GMT 43.261833 -74.799889 38,000 272 311 0
2021-12-04 16:50:09 GMT 43.261734 -74.794983 38,000 272 311 0
2021-12-04 16:50:06 GMT 43.261555 -74.788055 38,000 272 311 0
2021-12-04 16:50:03 GMT 43.261414 -74.781952 38,000 272 311 0
2021-12-04 16:50:00 GMT 43.261230 -74.773720 38,000 272 311 0
2021-12-04 16:49:56 GMT 43.261093 -74.767456 38,000 272 310 -64
2021-12-04 16:49:52 GMT 43.260902 -74.758629 38,000 273 310 0
2021-12-04 16:49:48 GMT 43.260715 -74.751564 38,000 273 310 0
2021-12-04 16:49:45 GMT 43.260544 -74.744720 38,000 273 310 0
2021-12-04 16:49:43 GMT 43.260483 -74.742935 38,000 273 310 0
2021-12-04 16:49:40 GMT 43.260361 -74.737625 38,000 272 309 0
2021-12-04 16:49:37 GMT 43.260178 -74.729836 38,000 272 309 0
2021-12-04 16:49:34 GMT 43.259903 -74.718079 38,000 272 309 0
2021-12-04 16:49:31 GMT 43.259903 -74.718079 38,000 272 309 0
2021-12-04 16:49:26 GMT 43.259739 -74.709320 38,000 272 309 0
2021-12-04 16:49:23 GMT 43.259445 -74.697388 38,000 272 309 0
2021-12-04 16:49:20 GMT 43.259445 -74.697388 38,000 272 309 0
2021-12-04 16:49:16 GMT 43.259171 -74.683716 38,000 272 309 64
2021-12-04 16:49:13 GMT 43.259171 -74.683716 38,000 272 309 0
2021-12-04 16:49:12 GMT 43.259171 -74.682503 38,000 272 309 0
2021-12-04 16:49:09 GMT 43.258987 -74.675095 38,000 272 309 0
2021-12-04 16:49:06 GMT 43.258850 -74.668839 38,000 272 309 0
2021-12-04 16:49:03 GMT 43.258759 -74.664169 38,000 272 309 0
2021-12-04 16:49:00 GMT 43.258621 -74.657143 38,000 272 309 64
2021-12-04 16:48:55 GMT 43.258434 -74.649155 38,000 272 309 64
2021-12-04 16:48:52 GMT 43.258293 -74.641701 38,000 272 309 64
2021-12-04 16:48:49 GMT 43.258156 -74.635490 38,000 272 309 0
2021-12-04 16:48:46 GMT 43.258015 -74.629601 38,000 272 302 0
2021-12-04 16:48:43 GMT 43.257935 -74.625526 38,000 272 308 -64
2021-12-04 16:48:40 GMT 43.257751 -74.617737 38,000 272 308 -64
2021-12-04 16:48:37 GMT 43.257660 -74.614220 38,000 272 308 -64
2021-12-04 16:48:34 GMT 43.257477 -74.606049 38,000 272 308 0
2021-12-04 16:48:31 GMT 43.257385 -74.601768 38,000 273 308 0
2021-12-04 16:48:28 GMT 43.257225 -74.595726 38,000 273 308 64
2021-12-04 16:48:25 GMT 43.257065 -74.588928 38,000 273 307 64
2021-12-04 16:48:22 GMT 43.256947 -74.584480 38,000 273 307 0
2021-12-04 16:48:19 GMT 43.256760 -74.577095 38,000 272 307 0
2021-12-04 16:48:16 GMT 43.256607 -74.571045 38,000 273 307 0
2021-12-04 16:48:12 GMT 43.256432 -74.563492 38,000 272 307 0
2021-12-04 16:48:09 GMT 43.256294 -74.559563 38,000 272 307 0
2021-12-04 16:48:05 GMT 43.256104 -74.550858 38,000 272 306 0
2021-12-04 16:48:01 GMT 43.255875 -74.542168 38,000 272 306 -64
2021-12-04 16:47:57 GMT 43.255737 -74.536171 38,000 273 305 -64
2021-12-04 16:47:54 GMT 43.255547 -74.528244 38,000 273 305 -64
2021-12-04 16:47:51 GMT 43.255371 -74.522247 38,000 273 304 0
2021-12-04 16:47:48 GMT 43.255268 -74.518433 38,000 273 304 0
2021-12-04 16:47:45 GMT 43.254959 -74.506340 38,000 273 304 0
2021-12-04 16:47:42 GMT 43.254959 -74.506340 38,000 272 302 0
2021-12-04 16:47:38 GMT 43.254757 -74.497505 38,000 273 303 0
2021-12-04 16:47:35 GMT 43.254616 -74.492538 38,000 273 303 0
2021-12-04 16:47:32 GMT 43.254433 -74.486389 38,000 273 302 0
2021-12-04 16:47:30 GMT 43.254150 -74.476845 38,000 273 302 0
2021-12-04 16:47:27 GMT 43.254150 -74.476845 38,000 273 302 0
2021-12-04 16:47:24 GMT 43.254044 -74.473190 38,000 273 302 0
2021-12-04 16:47:21 GMT 43.253860 -74.467506 38,000 272 302 0
2021-12-04 16:47:18 GMT 43.253685 -74.460426 38,000 272 302 0
2021-12-04 16:47:15 GMT 43.253540 -74.453705 38,000 272 302 0
2021-12-04 16:47:12 GMT 43.253407 -74.448196 38,000 272 302 0
2021-12-04 16:47:09 GMT 43.253265 -74.442276 38,000 272 303 0
2021-12-04 16:47:06 GMT 43.253174 -74.437866 38,000 272 302 0
2021-12-04 16:47:03 GMT 43.253082 -74.432503 38,000 273 304 -64
2021-12-04 16:47:00 GMT 43.252899 -74.425407 38,000 272 303 64
2021-12-04 16:46:57 GMT 43.252853 -74.421577 38,000 272 303 64
2021-12-04 16:46:54 GMT 43.252663 -74.414131 38,000 272 303 0
2021-12-04 16:46:51 GMT 43.252533 -74.408928 38,000 273 303 0
2021-12-04 16:46:48 GMT 43.252304 -74.400116 38,000 273 304 0
2021-12-04 16:46:44 GMT 43.252167 -74.395134 38,000 273 304 -64
2021-12-04 16:46:40 GMT 43.251984 -74.387085 38,000 273 304 0
2021-12-04 16:46:36 GMT 43.251823 -74.381104 38,000 272 305 0
2021-12-04 16:46:33 GMT 43.251617 -74.373611 38,000 272 305 0
2021-12-04 16:46:30 GMT 43.251526 -74.368942 38,000 272 305 0
2021-12-04 16:46:29 GMT 43.251434 -74.365883 38,000 272 305 0
2021-12-04 16:46:25 GMT 43.251358 -74.360703 38,000 272 306 -64
2021-12-04 16:46:22 GMT 43.251160 -74.353104 38,000 272 306 -64
2021-12-04 16:46:19 GMT 43.250977 -74.346146 38,000 273 306 -64
2021-12-04 16:46:16 GMT 43.250748 -74.338417 38,000 274 306 0
2021-12-04 16:46:13 GMT 43.250290 -74.329918 38,000 275 307 64
2021-12-04 16:46:10 GMT 43.249969 -74.324875 38,000 276 307 0
2021-12-04 16:46:07 GMT 43.249969 -74.324875 38,000 276 307 0
2021-12-04 16:46:04 GMT 43.249542 -74.318916 38,000 276 307 0
2021-12-04 16:46:01 GMT 43.249100 -74.312866 38,000 276 307 0
2021-12-04 16:45:58 GMT 43.248657 -74.306099 38,000 276 308 0
2021-12-04 16:45:55 GMT 43.248287 -74.301064 38,000 276 308 -64
2021-12-04 16:45:52 GMT 43.247910 -74.295425 38,000 276 308 -64
2021-12-04 16:45:48 GMT 43.247307 -74.286736 38,000 276 308 0
2021-12-04 16:45:45 GMT 43.246811 -74.279907 38,000 276 308 0
2021-12-04 16:45:42 GMT 43.246445 -74.274475 38,000 276 308 0
2021-12-04 16:45:39 GMT 43.246189 -74.270454 38,000 276 308 0
2021-12-04 16:45:38 GMT 43.246006 -74.267708 38,000 276 308 0
2021-12-04 16:45:35 GMT 43.245575 -74.261703 38,000 276 308 0
2021-12-04 16:45:32 GMT 43.244793 -74.251030 38,000 276 308 0
2021-12-04 16:45:29 GMT 43.244793 -74.251030 38,000 276 308 0
2021-12-04 16:45:26 GMT 43.244385 -74.245415 38,000 276 308 0
2021-12-04 16:45:23 GMT 43.243862 -74.238213 38,000 276 308 0
2021-12-04 16:45:19 GMT 43.243332 -74.230659 38,000 276 308 0
2021-12-04 16:45:17 GMT 43.243149 -74.227913 38,000 276 309 64
2021-12-04 16:45:14 GMT 43.242645 -74.220886 38,000 276 309 64
2021-12-04 16:45:10 GMT 43.241821 -74.209641 38,000 276 309 64
2021-12-04 16:45:07 GMT 43.241631 -74.206696 38,000 276 309 0
2021-12-04 16:45:03 GMT 43.241024 -74.198524 38,000 276 309 64
2021-12-04 16:45:00 GMT 43.240585 -74.192848 38,000 276 309 0
2021-12-04 16:44:57 GMT 43.240231 -74.187996 38,000 276 310 0
2021-12-04 16:44:54 GMT 43.239807 -74.181923 38,000 276 310 -64
2021-12-04 16:44:51 GMT 43.239349 -74.176285 38,000 276 310 -64
2021-12-04 16:44:46 GMT 43.238136 -74.159874 38,000 276 310 -64
2021-12-04 16:44:43 GMT 43.238136 -74.159874 38,000 276 310 -64
2021-12-04 16:44:40 GMT 43.237885 -74.156181 38,000 276 307 0
2021-12-04 16:44:37 GMT 43.237289 -74.148392 38,000 276 310 0
2021-12-04 16:44:33 GMT 43.236881 -74.143135 38,000 276 310 0
2021-12-04 16:44:30 GMT 43.236374 -74.135872 38,000 276 310 0
2021-12-04 16:44:26 GMT 43.235779 -74.127693 38,000 276 310 -64
2021-12-04 16:44:23 GMT 43.234924 -74.116127 38,000 276 310 -64
2021-12-04 16:44:19 GMT 43.234924 -74.116127 38,000 276 310 -64
2021-12-04 16:44:16 GMT 43.234085 -74.104256 38,025 276 309 -64
2021-12-04 16:44:10 GMT 43.233574 -74.097816 38,025 276 308 0
2021-12-04 16:44:06 GMT 43.232986 -74.089050 38,025 276 308 -64
2021-12-04 16:44:03 GMT 43.232365 -74.080681 38,025 276 308 0
2021-12-04 16:44:00 GMT 43.232162 -74.077614 38,025 276 307 64
2021-12-04 16:43:55 GMT 43.231476 -74.067719 38,000 276 306 64
2021-12-04 16:43:52 GMT 43.231014 -74.060997 38,000 276 305 64
2021-12-04 16:43:49 GMT 43.230789 -74.057945 38,000 276 305 0
2021-12-04 16:43:45 GMT 43.230057 -74.047340 38,025 276 303 0
2021-12-04 16:43:42 GMT 43.229599 -74.040886 38,000 276 302 64
2021-12-04 16:43:39 GMT 43.229294 -74.036476 38,000 276 302 64
2021-12-04 16:43:34 GMT 43.228642 -74.027779 38,000 276 301 192
2021-12-04 16:43:31 GMT 43.228088 -74.020004 38,000 276 300 256
2021-12-04 16:43:27 GMT 43.227631 -74.013550 37,975 276 300 320
2021-12-04 16:43:24 GMT 43.227219 -74.007866 37,950 276 299 512
2021-12-04 16:43:21 GMT 43.226715 -74.001099 37,900 276 299 512
2021-12-04 16:43:18 GMT 43.226349 -73.996559 37,900 276 299 512
2021-12-04 16:43:14 GMT 43.225708 -73.988258 37,850 277 299 512
2021-12-04 16:43:09 GMT 43.225021 -73.979248 37,825 276 299 512
2021-12-04 16:43:06 GMT 43.224590 -73.973763 37,800 276 299 512
2021-12-04 16:43:03 GMT 43.224106 -73.967178 37,775 276 298 512
2021-12-04 16:42:58 GMT 43.223381 -73.958000 37,725 276 298 512
2021-12-04 16:42:53 GMT 43.222183 -73.941628 37,650 276 298 512
2021-12-04 16:42:49 GMT 43.222183 -73.941628 37,650 276 298 512
2021-12-04 16:42:46 GMT 43.221844 -73.937332 37,600 276 297 512
2021-12-04 16:42:43 GMT 43.221378 -73.930992 37,600 276 297 512
2021-12-04 16:42:40 GMT 43.220856 -73.924446 37,575 276 297 512
2021-12-04 16:42:37 GMT 43.220402 -73.918633 37,550 276 297 512
2021-12-04 16:42:32 GMT 43.219757 -73.910202 37,525 277 296 448
2021-12-04 16:42:27 GMT 43.218540 -73.894699 37,475 277 296 448
2021-12-04 16:42:24 GMT 43.218540 -73.894699 37,450 277 296 448
2021-12-04 16:42:21 GMT 43.217514 -73.881355 34,450 276 288 320
2021-12-04 16:42:17 GMT 43.217514 -73.881355 37,400 277 295 384
2021-12-04 16:42:13 GMT 43.217003 -73.875015 37,375 277 294 256
2021-12-04 16:42:09 GMT 43.216370 -73.866707 37,350 277 293 256
2021-12-04 16:42:06 GMT 43.216003 -73.861916 37,350 276 287 320
2021-12-04 16:42:03 GMT 43.215698 -73.857620 37,325 277 292 256
2021-12-04 16:42:00 GMT 43.215225 -73.851570 37,325 277 292 256
2021-12-04 16:41:57 GMT 43.214676 -73.844406 37,300 276 291 256
2021-12-04 16:41:54 GMT 43.214355 -73.840584 37,250 276 290 320
2021-12-04 16:41:51 GMT 43.213898 -73.834000 37,275 276 289 320
2021-12-04 16:41:47 GMT 43.213467 -73.828323 37,225 276 289 320
2021-12-04 16:41:43 GMT 43.212936 -73.821609 37,225 276 287 320
2021-12-04 16:41:42 GMT 43.212719 -73.818901 37,225 276 288 320
2021-12-04 16:41:39 GMT 43.212349 -73.813866 37,200 276 287 320
2021-12-04 16:41:36 GMT 43.211742 -73.805565 37,175 276 286 320
2021-12-04 16:41:33 GMT 43.211380 -73.800659 37,175 276 286 320
2021-12-04 16:41:32 GMT 43.210953 -73.795097 37,150 276 285 320
2021-12-04 16:41:29 GMT 43.210953 -73.795097 37,150 276 285 320
2021-12-04 16:41:26 GMT 43.210255 -73.785423 37,125 276 284 320
2021-12-04 16:41:23 GMT 43.210255 -73.785423 37,125 276 283 256
2021-12-04 16:41:22 GMT 43.210018 -73.781822 37,125 276 282 256
2021-12-04 16:41:19 GMT 43.209595 -73.776001 37,100 276 282 256
2021-12-04 16:41:15 GMT 43.209042 -73.768684 37,075 276 281 320
2021-12-04 16:41:12 GMT 43.208809 -73.765869 37,075 276 281 320
2021-12-04 16:41:11 GMT 43.208717 -73.764107 37,075 276 281 320
2021-12-04 16:41:08 GMT 43.208202 -73.757759 37,050 276 279 384
2021-12-04 16:41:05 GMT 43.207764 -73.751602 37,025 276 279 384
2021-12-04 16:41:01 GMT 43.207352 -73.745277 37,025 276 279 384
2021-12-04 16:40:58 GMT 43.206902 -73.739449 37,000 276 278 384
2021-12-04 16:40:54 GMT 43.206390 -73.732315 36,950 277 276 704
2021-12-04 16:40:51 GMT 43.205383 -73.719414 36,850 277 276 960
2021-12-04 16:40:46 GMT 43.205383 -73.719414 36,850 277 276 960
2021-12-04 16:40:43 GMT 43.205040 -73.714729 36,800 277 276 1024
2021-12-04 16:40:40 GMT 43.204559 -73.709000 36,750 277 276 1024
2021-12-04 16:40:37 GMT 43.204056 -73.703056 36,700 277 277 1024
2021-12-04 16:40:34 GMT 43.203594 -73.697662 36,650 277 277 1024
2021-12-04 16:40:31 GMT 43.203178 -73.692429 36,600 277 277 1024
2021-12-04 16:40:28 GMT 43.202759 -73.686874 36,550 276 278 1024
2021-12-04 16:40:24 GMT 43.201859 -73.675148 36,475 276 278 1024
2021-12-04 16:40:21 GMT 43.201859 -73.675148 36,425 276 278 1088
2021-12-04 16:40:18 GMT 43.201447 -73.669205 36,375 276 278 1024
2021-12-04 16:40:15 GMT 43.201176 -73.665878 36,300 277 278 1024
2021-12-04 16:40:12 GMT 43.200848 -73.661697 36,250 277 278 1024
2021-12-04 16:40:09 GMT 43.200256 -73.654518 36,225 277 279 1024
2021-12-04 16:40:04 GMT 43.199684 -73.647308 36,125 276 279 896
2021-12-04 16:40:01 GMT 43.199158 -73.640465 36,100 276 279 832
2021-12-04 16:39:57 GMT 43.198566 -73.632530 36,050 276 280 576
2021-12-04 16:39:54 GMT 43.198196 -73.627434 36,025 277 280 448
2021-12-04 16:39:49 GMT 43.197510 -73.619705 36,000 278 280 64
2021-12-04 16:39:46 GMT 43.197006 -73.614403 36,000 279 280 0
2021-12-04 16:39:42 GMT 43.195587 -73.601753 36,000 280 281 64
2021-12-04 16:39:39 GMT 43.195587 -73.601753 36,000 280 281 64
2021-12-04 16:39:36 GMT 43.194752 -73.595650 36,000 281 282 0
2021-12-04 16:39:32 GMT 43.193756 -73.588470 36,000 282 282 0
2021-12-04 16:39:29 GMT 43.192978 -73.583618 36,000 284 284 0
2021-12-04 16:39:26 GMT 43.192375 -73.579948 36,000 283 283 0
2021-12-04 16:39:23 GMT 43.191399 -73.573997 36,000 283 283 0
2021-12-04 16:39:20 GMT 43.189270 -73.561256 36,000 284 284 -64
2021-12-04 16:39:16 GMT 43.189270 -73.561256 36,000 283 283 64
2021-12-04 16:39:13 GMT 43.188309 -73.555702 36,000 283 284 64
2021-12-04 16:39:10 GMT 43.187534 -73.550980 36,000 284 284 0
2021-12-04 16:39:07 GMT 43.186478 -73.544846 36,000 284 284 0
2021-12-04 16:39:04 GMT 43.185928 -73.541328 36,000 284 284 0
2021-12-04 16:39:01 GMT 43.184834 -73.534897 36,000 284 284 -64
2021-12-04 16:38:58 GMT 43.183960 -73.529770 36,000 284 284 0
2021-12-04 16:38:55 GMT 43.183182 -73.525230 36,000 284 284 0
2021-12-04 16:38:52 GMT 43.182091 -73.518745 36,000 284 284 0
2021-12-04 16:38:48 GMT 43.180923 -73.511742 36,000 284 284 0
2021-12-04 16:38:44 GMT 43.179703 -73.504601 36,000 283 285 0
2021-12-04 16:38:41 GMT 43.179062 -73.500893 36,000 284 285 -64
2021-12-04 16:38:38 GMT 43.178284 -73.496170 36,000 284 285 -64
2021-12-04 16:38:35 GMT 43.177341 -73.490753 36,000 283 285 0
2021-12-04 16:38:32 GMT 43.176128 -73.483360 36,000 283 285 0
2021-12-04 16:38:29 GMT 43.175400 -73.478928 36,000 283 285 -64
2021-12-04 16:38:26 GMT 43.174873 -73.475975 36,000 283 286 0
2021-12-04 16:38:23 GMT 43.173569 -73.468002 36,000 284 286 0
2021-12-04 16:38:20 GMT 43.172882 -73.464172 36,000 284 286 64
2021-12-04 16:38:17 GMT 43.171600 -73.456444 36,000 284 286 64
2021-12-04 16:38:14 GMT 43.171009 -73.453087 36,000 283 286 0
2021-12-04 16:38:11 GMT 43.170090 -73.447624 36,000 283 286 0
2021-12-04 16:38:08 GMT 43.169266 -73.442711 36,000 283 286 0
2021-12-04 16:38:05 GMT 43.168541 -73.438309 36,000 283 286 0
2021-12-04 16:38:02 GMT 43.166447 -73.425949 36,000 284 286 0
2021-12-04 16:37:59 GMT 43.166447 -73.425949 36,000 284 286 0
2021-12-04 16:37:56 GMT 43.165657 -73.421371 36,000 284 288 0
2021-12-04 16:37:53 GMT 43.164917 -73.416969 36,000 284 286 0
2021-12-04 16:37:50 GMT 43.163589 -73.409561 36,000 284 286 0
2021-12-04 16:37:46 GMT 43.162125 -73.401062 36,000 284 287 0
2021-12-04 16:37:43 GMT 43.161575 -73.397873 36,000 284 287 0
2021-12-04 16:37:40 GMT 43.160706 -73.392952 36,000 284 287 0
2021-12-04 16:37:37 GMT 43.159790 -73.387428 36,000 284 287 -64
2021-12-04 16:37:33 GMT 43.158581 -73.380363 36,000 284 287 -64
2021-12-04 16:37:30 GMT 43.157555 -73.374352 36,000 284 287 -64
2021-12-04 16:37:27 GMT 43.156811 -73.369774 36,000 284 287 0
2021-12-04 16:37:24 GMT 43.155834 -73.364082 36,000 284 287 0
2021-12-04 16:37:21 GMT 43.154938 -73.358971 36,000 284 287 64
2021-12-04 16:37:17 GMT 43.152527 -73.344986 36,000 283 288 0
2021-12-04 16:37:14 GMT 43.152527 -73.344986 36,000 283 288 -64
2021-12-04 16:37:11 GMT 43.152237 -73.343002 36,000 283 288 -128
2021-12-04 16:37:08 GMT 43.151001 -73.335594 36,000 283 288 -128
2021-12-04 16:37:04 GMT 43.149036 -73.324059 36,000 284 288 0
2021-12-04 16:37:01 GMT 43.149036 -73.324059 36,000 284 288 64
2021-12-04 16:36:57 GMT 43.147640 -73.315887 36,000 284 288 0
2021-12-04 16:36:54 GMT 43.146709 -73.310593 36,000 284 288 0
2021-12-04 16:36:51 GMT 43.145779 -73.305290 36,000 284 288 0
2021-12-04 16:36:48 GMT 43.144958 -73.300461 36,000 284 288 0
2021-12-04 16:36:45 GMT 43.144272 -73.296562 36,000 284 288 0
2021-12-04 16:36:42 GMT 43.143265 -73.290710 36,000 284 288 0
2021-12-04 16:36:38 GMT 43.141983 -73.283089 36,000 284 288 0
2021-12-04 16:36:34 GMT 43.140793 -73.276001 36,000 283 288 -64
2021-12-04 16:36:31 GMT 43.139694 -73.269608 36,000 283 288 0
2021-12-04 16:36:28 GMT 43.139122 -73.266251 36,000 283 288 0
2021-12-04 16:36:25 GMT 43.138046 -73.259712 36,000 283 288 0
2021-12-04 16:36:21 GMT 43.136719 -73.251915 36,000 284 288 -64
2021-12-04 16:36:17 GMT 43.135815 -73.246437 36,000 284 288 0
2021-12-04 16:36:14 GMT 43.134933 -73.241249 36,000 284 287 0
2021-12-04 16:36:11 GMT 43.133953 -73.235779 36,000 284 287 0
2021-12-04 16:36:08 GMT 43.132977 -73.229958 36,000 284 287 64
2021-12-04 16:36:05 GMT 43.132187 -73.225540 36,000 284 287 0
2021-12-04 16:36:02 GMT 43.131271 -73.220047 36,000 284 287 0
2021-12-04 16:35:59 GMT 43.130035 -73.212952 36,000 284 287 0
2021-12-04 16:35:56 GMT 43.129345 -73.208900 36,000 284 288 -64
2021-12-04 16:35:53 GMT 43.128323 -73.202888 36,000 283 288 0
2021-12-04 16:35:50 GMT 43.127380 -73.197372 36,000 283 288 0
2021-12-04 16:35:47 GMT 43.126644 -73.192947 36,000 283 287 64
2021-12-04 16:35:44 GMT 43.125946 -73.188698 36,000 284 288 -64
2021-12-04 16:35:41 GMT 43.124863 -73.182167 36,000 284 287 64
2021-12-04 16:35:38 GMT 43.123943 -73.176659 36,000 284 287 -128
2021-12-04 16:35:35 GMT 43.122940 -73.170860 36,000 284 287 -64
2021-12-04 16:35:32 GMT 43.122299 -73.167351 36,000 284 287 -128
2021-12-04 16:35:29 GMT 43.121017 -73.159943 36,000 284 287 -64
2021-12-04 16:35:26 GMT 43.120010 -73.154251 36,000 284 287 0
2021-12-04 16:35:23 GMT 43.119232 -73.149658 36,000 284 287 0
2021-12-04 16:35:20 GMT 43.118359 -73.144554 36,000 284 287 64
2021-12-04 16:35:17 GMT 43.117241 -73.138206 36,000 284 288 64
2021-12-04 16:35:14 GMT 43.116760 -73.135155 36,000 284 288 -128
2021-12-04 16:35:11 GMT 43.115936 -73.130363 36,000 283 289 -64
2021-12-04 16:35:08 GMT 43.114914 -73.124344 36,000 284 288 -64
2021-12-04 16:35:05 GMT 43.112915 -73.112480 36,000 283 289 -64
2021-12-04 16:35:02 GMT 43.112915 -73.112480 36,000 283 289 -64
2021-12-04 16:34:59 GMT 43.112320 -73.108902 36,000 284 289 -64
2021-12-04 16:34:56 GMT 43.111038 -73.101433 36,000 284 288 -128
2021-12-04 16:34:53 GMT 43.110210 -73.096687 36,000 284 289 0
2021-12-04 16:34:48 GMT 43.108768 -73.088509 36,000 283 289 64
2021-12-04 16:34:45 GMT 43.107971 -73.083672 36,000 283 289 0
2021-12-04 16:34:42 GMT 43.107056 -73.078369 36,000 283 289 0
2021-12-04 16:34:39 GMT 43.106369 -73.074089 36,000 283 290 -64
2021-12-04 16:34:36 GMT 43.105225 -73.067322 36,000 283 290 -64
2021-12-04 16:34:33 GMT 43.104218 -73.061256 36,000 284 290 -64
2021-12-04 16:34:30 GMT 43.103302 -73.055885 36,000 284 290 -64
2021-12-04 16:34:25 GMT 43.101837 -73.047333 36,000 284 290 -64
2021-12-04 16:34:22 GMT 43.100761 -73.041100 36,000 284 290 -64
2021-12-04 16:34:19 GMT 43.098808 -73.029655 36,025 283 291 -64
2021-12-04 16:34:16 GMT 43.098808 -73.029655 36,025 283 291 -64
2021-12-04 16:34:13 GMT 43.098312 -73.026634 36,000 283 291 0
2021-12-04 16:34:10 GMT 43.097168 -73.019798 36,000 283 291 0
2021-12-04 16:34:07 GMT 43.096527 -73.016052 36,000 284 292 64
2021-12-04 16:34:04 GMT 43.095314 -73.008858 36,000 283 293 0
2021-12-04 16:34:01 GMT 43.094616 -73.004608 36,000 283 293 0
2021-12-04 16:33:58 GMT 43.093506 -72.997894 36,000 283 293 0
2021-12-04 16:33:55 GMT 43.092567 -72.992317 36,000 283 294 128
2021-12-04 16:33:51 GMT 43.091499 -72.985771 36,000 283 294 128
2021-12-04 16:33:47 GMT 43.090622 -72.980583 36,000 283 294 64
2021-12-04 16:33:44 GMT 43.089386 -72.973297 36,000 284 295 -64
2021-12-04 16:33:41 GMT 43.088287 -72.966782 36,000 284 295 -64
2021-12-04 16:33:38 GMT 43.087555 -72.962440 36,000 284 295 0
2021-12-04 16:33:35 GMT 43.086411 -72.955864 36,000 284 297 -128
2021-12-04 16:33:32 GMT 43.085541 -72.950752 36,000 284 296 -128
2021-12-04 16:33:29 GMT 43.084606 -72.945488 36,000 284 296 0
2021-12-04 16:33:26 GMT 43.083939 -72.941681 36,000 284 296 0
2021-12-04 16:33:23 GMT 43.082932 -72.935684 36,000 284 296 0
2021-12-04 16:33:20 GMT 43.081863 -72.929466 36,000 284 297 0
2021-12-04 16:33:17 GMT 43.080837 -72.923653 36,000 284 297 64
2021-12-04 16:33:14 GMT 43.079910 -72.918304 36,000 284 298 0
2021-12-04 16:33:11 GMT 43.079132 -72.913963 36,000 284 298 0
2021-12-04 16:33:08 GMT 43.077209 -72.902588 36,000 284 297 0
2021-12-04 16:33:05 GMT 43.077209 -72.902588 36,000 284 297 -64
2021-12-04 16:33:02 GMT 43.076294 -72.897484 36,000 284 299 -64
2021-12-04 16:33:01 GMT 43.075905 -72.895134 36,000 284 299 -64
2021-12-04 16:32:58 GMT 43.074833 -72.888863 36,000 284 299 -128
2021-12-04 16:32:54 GMT 43.073624 -72.881927 36,000 284 299 0
2021-12-04 16:32:51 GMT 43.073135 -72.879150 36,000 284 299 0
2021-12-04 16:32:50 GMT 43.072495 -72.875511 36,000 284 299 64
2021-12-04 16:32:47 GMT 43.071396 -72.869247 36,000 284 299 0
2021-12-04 16:32:44 GMT 43.070595 -72.864662 36,000 284 299 0
2021-12-04 16:32:41 GMT 43.069519 -72.858643 36,000 284 299 0
2021-12-04 16:32:40 GMT 43.069340 -72.857735 36,000 284 300 0
2021-12-04 16:32:37 GMT 43.068420 -72.852386 36,000 284 300 0
2021-12-04 16:32:34 GMT 43.066406 -72.840950 36,000 284 300 0
2021-12-04 16:32:31 GMT 43.066406 -72.840950 36,000 284 301 64
2021-12-04 16:32:28 GMT 43.065056 -72.833405 36,000 284 301 64
2021-12-04 16:32:25 GMT 43.064117 -72.828049 36,000 284 301 64
2021-12-04 16:32:22 GMT 43.063427 -72.824181 36,000 284 301 0
2021-12-04 16:32:19 GMT 43.062450 -72.818626 36,000 284 301 -64
2021-12-04 16:32:16 GMT 43.061237 -72.811958 36,000 284 302 -64
2021-12-04 16:32:13 GMT 43.059540 -72.802376 36,000 284 302 -64
2021-12-04 16:32:10 GMT 43.059540 -72.802376 36,000 284 302 -64
2021-12-04 16:32:09 GMT 43.059219 -72.800652 36,000 284 302 0
2021-12-04 16:32:06 GMT 43.058167 -72.794754 36,000 284 303 0
2021-12-04 16:32:04 GMT 43.056305 -72.784164 36,000 284 303 0
2021-12-04 16:32:01 GMT 43.055466 -72.779320 36,000 284 303 0
2021-12-04 16:31:58 GMT 43.055466 -72.779320 36,000 284 303 -64
2021-12-04 16:31:54 GMT 43.054256 -72.772591 36,000 284 303 0
2021-12-04 16:31:51 GMT 43.053230 -72.767029 36,000 284 303 0
2021-12-04 16:31:48 GMT 43.052254 -72.761467 36,000 284 302 0
2021-12-04 16:31:45 GMT 43.051090 -72.755196 36,000 284 302 0
2021-12-04 16:31:41 GMT 43.049744 -72.747566 36,000 284 303 0
2021-12-04 16:31:38 GMT 43.047638 -72.735687 36,000 284 303 0
2021-12-04 16:31:35 GMT 43.047638 -72.735687 36,000 284 303 0
2021-12-04 16:31:32 GMT 43.046860 -72.731216 36,000 284 303 -64
2021-12-04 16:31:28 GMT 43.045364 -72.722824 36,000 284 302 64
2021-12-04 16:31:25 GMT 43.044571 -72.718185 36,000 284 302 0
2021-12-04 16:31:22 GMT 43.043457 -72.711708 36,000 284 302 0
2021-12-04 16:31:19 GMT 43.042328 -72.705223 36,000 284 302 0
2021-12-04 16:31:16 GMT 43.041500 -72.700584 36,000 284 301 0
2021-12-04 16:31:13 GMT 43.041000 -72.697807 36,000 284 288 0
2021-12-04 16:31:10 GMT 43.039352 -72.688614 36,000 284 300 -64
2021-12-04 16:31:07 GMT 43.038662 -72.684761 36,000 284 300 0
2021-12-04 16:31:04 GMT 43.037498 -72.678093 36,000 284 299 0
2021-12-04 16:31:01 GMT 43.036469 -72.672455 36,000 284 299 -64
2021-12-04 16:30:57 GMT 43.035187 -72.665108 36,000 284 298 -64
2021-12-04 16:30:53 GMT 43.034100 -72.659065 36,000 284 298 0
2021-12-04 16:30:51 GMT 43.032330 -72.648857 36,000 284 296 0
2021-12-04 16:30:48 GMT 43.032330 -72.648857 36,000 284 295 -64
2021-12-04 16:30:45 GMT 43.031525 -72.644348 36,000 284 293 -64
2021-12-04 16:30:41 GMT 43.030560 -72.638725 36,000 284 294 -64
2021-12-04 16:30:38 GMT 43.029629 -72.633293 36,000 284 294 -64
2021-12-04 16:30:35 GMT 43.028641 -72.627678 36,025 284 293 0
2021-12-04 16:30:32 GMT 43.027405 -72.620461 36,000 284 293 -64
2021-12-04 16:30:29 GMT 43.026558 -72.615578 36,000 284 293 -64
2021-12-04 16:30:26 GMT 43.025394 -72.609100 36,025 284 291 -64
2021-12-04 16:30:21 GMT 43.024155 -72.601807 36,025 284 291 0
2021-12-04 16:30:18 GMT 43.023193 -72.596443 36,000 284 290 64
2021-12-04 16:30:15 GMT 43.022182 -72.590530 36,000 284 288 0
2021-12-04 16:30:12 GMT 43.021271 -72.585396 36,000 284 289 0
2021-12-04 16:30:08 GMT 43.020126 -72.578621 36,000 284 288 -64
2021-12-04 16:30:05 GMT 43.019157 -72.573135 36,025 284 288 0
2021-12-04 16:30:02 GMT 43.017929 -72.565849 36,000 284 287 0
2021-12-04 16:29:59 GMT 43.017334 -72.562332 36,000 284 287 0
2021-12-04 16:29:56 GMT 43.016411 -72.557243 36,000 284 286 0
2021-12-04 16:29:53 GMT 43.015385 -72.551224 36,000 284 286 0
2021-12-04 16:29:50 GMT 43.013672 -72.541573 36,000 284 285 64
2021-12-04 16:29:47 GMT 43.012405 -72.534416 36,000 284 285 64
2021-12-04 16:29:44 GMT 43.012405 -72.534416 36,000 284 285 0
2021-12-04 16:29:41 GMT 43.011566 -72.529694 36,000 284 285 0
2021-12-04 16:29:38 GMT 43.010963 -72.526314 36,000 284 285 0
2021-12-04 16:29:35 GMT 43.009552 -72.518456 36,000 284 286 0
2021-12-04 16:29:32 GMT 43.008865 -72.514236 36,000 284 285 0
2021-12-04 16:29:28 GMT 43.007812 -72.508301 36,000 284 285 0
2021-12-04 16:29:25 GMT 43.007008 -72.503555 36,000 284 285 64
2021-12-04 16:29:22 GMT 43.005615 -72.495651 36,000 284 286 0
2021-12-04 16:29:19 GMT 43.005283 -72.493744 36,000 284 286 0
2021-12-04 16:29:16 GMT 43.004257 -72.487793 36,000 284 287 64
2021-12-04 16:29:13 GMT 43.002869 -72.479874 36,000 284 287 64
2021-12-04 16:29:09 GMT 43.001862 -72.474251 36,000 284 288 0
2021-12-04 16:29:06 GMT 43.000168 -72.464737 36,000 284 289 0
2021-12-04 16:29:03 GMT 43.000168 -72.464737 36,000 284 289 0
2021-12-04 16:29:00 GMT 42.999325 -72.459938 36,000 284 289 0
2021-12-04 16:28:56 GMT 42.996765 -72.445808 36,000 284 289 0
2021-12-04 16:28:53 GMT 42.995693 -72.439796 36,000 284 290 0
2021-12-04 16:28:50 GMT 42.995693 -72.439796 36,000 284 290 0
2021-12-04 16:28:46 GMT 42.994812 -72.434967 36,000 284 290 64
2021-12-04 16:28:43 GMT 42.993439 -72.427498 36,000 284 291 0
2021-12-04 16:28:40 GMT 42.992390 -72.421616 36,000 284 292 0
2021-12-04 16:28:37 GMT 42.991562 -72.417145 36,000 284 292 0
2021-12-04 16:28:34 GMT 42.990761 -72.412651 36,000 284 293 0
2021-12-04 16:28:31 GMT 42.989410 -72.405334 36,000 284 293 -64
2021-12-04 16:28:28 GMT 42.988403 -72.399582 36,000 284 294 -64
2021-12-04 16:28:25 GMT 42.987782 -72.396172 36,000 284 294 -64
2021-12-04 16:28:22 GMT 42.986664 -72.389702 36,000 284 294 0
2021-12-04 16:28:18 GMT 42.985359 -72.382439 36,000 284 295 0
2021-12-04 16:28:15 GMT 42.984848 -72.379562 36,000 284 295 -64
2021-12-04 16:28:12 GMT 42.982727 -72.367836 36,000 284 295 -64
2021-12-04 16:28:09 GMT 42.982727 -72.367836 36,000 284 295 -64
2021-12-04 16:28:06 GMT 42.981495 -72.361122 36,000 284 296 64
2021-12-04 16:28:03 GMT 42.980667 -72.356598 36,000 284 296 64
2021-12-04 16:28:00 GMT 42.979542 -72.350075 36,000 284 297 0
2021-12-04 16:27:57 GMT 42.978470 -72.344208 36,000 284 297 0
2021-12-04 16:27:54 GMT 42.977829 -72.340561 36,000 284 298 0
2021-12-04 16:27:51 GMT 42.976547 -72.333664 36,000 284 299 0
2021-12-04 16:27:48 GMT 42.975677 -72.328873 36,000 284 299 0
2021-12-04 16:27:44 GMT 42.974213 -72.320824 36,000 284 299 -64
2021-12-04 16:27:41 GMT 42.973022 -72.314247 36,000 284 300 -64
2021-12-04 16:27:38 GMT 42.971996 -72.308548 36,000 284 300 -64
2021-12-04 16:27:33 GMT 42.970787 -72.301941 36,000 284 301 0
2021-12-04 16:27:30 GMT 42.969223 -72.292915 36,000 284 302 -64
2021-12-04 16:27:27 GMT 42.969067 -72.291939 36,000 284 302 64
2021-12-04 16:27:25 GMT 42.967896 -72.285507 36,000 284 302 0
2021-12-04 16:27:22 GMT 42.967297 -72.281998 36,000 284 302 0
2021-12-04 16:27:19 GMT 42.966225 -72.276047 36,000 284 302 0
2021-12-04 16:27:16 GMT 42.965561 -72.272156 36,000 284 302 -64
2021-12-04 16:27:13 GMT 42.964039 -72.263878 36,000 284 302 -64
2021-12-04 16:27:09 GMT 42.962540 -72.255547 36,000 285 303 64
2021-12-04 16:27:06 GMT 42.961990 -72.252548 36,000 285 303 64
2021-12-04 16:27:03 GMT 42.960846 -72.246284 36,000 285 303 64
2021-12-04 16:27:00 GMT 42.959614 -72.239426 36,000 285 303 0
2021-12-04 16:26:57 GMT 42.957642 -72.228912 36,000 285 303 0
2021-12-04 16:26:54 GMT 42.956772 -72.224060 36,000 285 303 -64
2021-12-04 16:26:51 GMT 42.956772 -72.224060 36,000 285 304 -64
2021-12-04 16:26:46 GMT 42.954849 -72.213707 36,000 284 303 -64
2021-12-04 16:26:43 GMT 42.953842 -72.208153 36,000 284 302 -64
2021-12-04 16:26:40 GMT 42.953156 -72.204445 36,025 284 300 0
2021-12-04 16:26:37 GMT 42.951935 -72.197571 36,025 284 302 -64
2021-12-04 16:26:34 GMT 42.951096 -72.192947 36,025 284 302 -64
2021-12-04 16:26:31 GMT 42.949677 -72.185158 36,025 284 302 64
2021-12-04 16:26:27 GMT 42.948486 -72.178513 36,000 284 301 0
2021-12-04 16:26:23 GMT 42.947205 -72.171173 36,025 284 299 0
2021-12-04 16:26:20 GMT 42.946198 -72.165611 36,025 284 298 0
2021-12-04 16:26:17 GMT 42.945183 -72.159966 36,025 284 297 0
2021-12-04 16:26:14 GMT 42.944229 -72.154694 36,025 284 296 0
2021-12-04 16:26:10 GMT 42.943043 -72.148331 36,025 284 295 0
2021-12-04 16:26:05 GMT 42.940853 -72.136101 36,000 284 293 192
2021-12-04 16:26:03 GMT 42.940853 -72.136101 36,000 284 293 192
2021-12-04 16:26:00 GMT 42.939514 -72.128754 36,000 284 292 128
2021-12-04 16:25:57 GMT 42.938690 -72.124092 36,000 284 291 128
2021-12-04 16:25:54 GMT 42.937923 -72.119682 36,000 284 290 64
2021-12-04 16:25:50 GMT 42.936447 -72.111702 36,000 284 288 0
2021-12-04 16:25:46 GMT 42.935268 -72.105171 35,975 284 286 448
2021-12-04 16:25:43 GMT 42.934113 -72.098671 35,925 284 285 704
2021-12-04 16:25:40 GMT 42.933472 -72.095222 35,950 284 285 640
2021-12-04 16:25:37 GMT 42.932476 -72.089798 35,900 284 285 640
2021-12-04 16:25:34 GMT 42.931499 -72.084572 35,825 284 285 704
2021-12-04 16:25:31 GMT 42.930405 -72.078491 35,850 284 285 640
2021-12-04 16:25:28 GMT 42.929306 -72.072548 35,800 284 284 704
2021-12-04 16:25:25 GMT 42.928482 -72.068016 35,775 284 284 704
2021-12-04 16:25:21 GMT 42.927307 -72.061615 35,725 284 284 704
2021-12-04 16:25:18 GMT 42.925186 -72.050003 35,700 284 283 640
2021-12-04 16:25:15 GMT 42.925186 -72.050003 35,650 285 283 640
2021-12-04 16:25:12 GMT 42.924282 -72.045006 35,600 285 282 704
2021-12-04 16:25:08 GMT 42.922302 -72.034096 35,575 285 282 640
2021-12-04 16:25:05 GMT 42.922302 -72.034096 35,550 284 282 704
2021-12-04 16:25:02 GMT 42.921387 -72.029305 35,500 284 282 704
2021-12-04 16:24:58 GMT 42.919952 -72.021202 35,450 284 281 704
2021-12-04 16:24:54 GMT 42.917767 -72.009171 35,375 284 280 704
2021-12-04 16:24:51 GMT 42.917767 -72.009171 35,350 284 280 704
2021-12-04 16:24:48 GMT 42.917019 -72.005051 35,325 285 280 704
2021-12-04 16:24:45 GMT 42.915810 -71.998573 35,300 285 279 704
2021-12-04 16:24:42 GMT 42.915344 -71.995827 35,275 285 279 704
2021-12-04 16:24:39 GMT 42.914368 -71.990730 35,225 285 279 704
2021-12-04 16:24:36 GMT 42.912926 -71.982880 35,200 285 278 704
2021-12-04 16:24:33 GMT 42.912319 -71.979546 35,175 285 278 704
2021-12-04 16:24:30 GMT 42.911343 -71.974442 35,125 285 277 704
2021-12-04 16:24:27 GMT 42.910362 -71.969017 35,075 284 277 704
2021-12-04 16:24:24 GMT 42.909431 -71.963913 35,075 284 277 704
2021-12-04 16:24:21 GMT 42.908455 -71.958488 35,025 284 276 704
2021-12-04 16:24:18 GMT 42.906548 -71.948021 34,975 284 275 704
2021-12-04 16:24:15 GMT 42.906548 -71.948021 34,950 284 275 768
2021-12-04 16:24:11 GMT 42.905640 -71.942818 34,900 284 275 704
2021-12-04 16:24:09 GMT 42.904636 -71.937302 34,850 284 274 832
2021-12-04 16:24:06 GMT 42.904034 -71.933899 34,800 284 275 960
2021-12-04 16:24:03 GMT 42.903259 -71.929726 34,800 284 275 960
2021-12-04 16:24:00 GMT 42.902355 -71.924812 34,750 285 275 960
2021-12-04 16:23:58 GMT 42.901424 -71.919838 34,700 285 274 1088
2021-12-04 16:23:55 GMT 42.900494 -71.914803 34,650 285 274 1024
2021-12-04 16:23:51 GMT 42.899239 -71.908066 34,550 285 274 1152
2021-12-04 16:23:48 GMT 42.898308 -71.903030 34,475 285 275 1216
2021-12-04 16:23:45 GMT 42.897514 -71.899040 34,450 285 275 1216
2021-12-04 16:23:42 GMT 42.896622 -71.894150 34,425 285 275 1216
2021-12-04 16:23:39 GMT 42.895744 -71.889297 34,325 284 276 1216
2021-12-04 16:23:35 GMT 42.894424 -71.882072 34,175 284 276 1216
2021-12-04 16:23:30 GMT 42.892860 -71.873474 34,175 284 276 1216
2021-12-04 16:23:26 GMT 42.891697 -71.866997 34,100 284 277 1216
2021-12-04 16:23:22 GMT 42.890347 -71.859612 34,000 284 277 1216
2021-12-04 16:23:19 GMT 42.889320 -71.854179 33,925 285 277 1216
2021-12-04 16:23:16 GMT 42.888252 -71.848427 33,875 285 277 1216
2021-12-04 16:23:13 GMT 42.887329 -71.843559 33,625 284 278 1216
2021-12-04 16:23:10 GMT 42.886436 -71.838615 33,725 284 278 1216
2021-12-04 16:23:07 GMT 42.885551 -71.833908 33,675 285 277 1152
2021-12-04 16:23:04 GMT 42.884811 -71.830017 33,650 285 278 1216
2021-12-04 16:23:00 GMT 42.883255 -71.821526 33,475 284 278 1152
2021-12-04 16:22:57 GMT 42.882477 -71.817116 33,475 284 278 1152
2021-12-04 16:22:54 GMT 42.881641 -71.812523 33,425 284 278 1216
2021-12-04 16:22:51 GMT 42.880600 -71.806961 33,375 285 278 1216
2021-12-04 16:22:47 GMT 42.879498 -71.801018 33,275 285 278 1216
2021-12-04 16:22:44 GMT 42.878403 -71.795082 33,250 285 278 1216
2021-12-04 16:22:40 GMT 42.877258 -71.788948 33,125 285 278 1216
2021-12-04 16:22:37 GMT 42.876427 -71.784340 33,100 285 278 1216
2021-12-04 16:22:34 GMT 42.875427 -71.779114 33,050 285 278 1152
2021-12-04 16:22:31 GMT 42.874424 -71.773880 32,975 285 278 1216
2021-12-04 16:22:28 GMT 42.873539 -71.769104 32,925 284 278 1216
2021-12-04 16:22:25 GMT 42.872360 -71.762505 32,825 284 278 1216
2021-12-04 16:22:22 GMT 42.871719 -71.759056 32,700 284 278 1216
2021-12-04 16:22:19 GMT 42.870392 -71.751961 32,725 284 278 1216
2021-12-04 16:22:16 GMT 42.869751 -71.748199 32,675 285 278 1280
2021-12-04 16:22:13 GMT 42.868607 -71.742126 32,550 285 278 1280
2021-12-04 16:22:09 GMT 42.866730 -71.731911 32,450 285 278 1408
2021-12-04 16:22:06 GMT 42.866730 -71.731911 32,375 285 279 1408
2021-12-04 16:22:03 GMT 42.865402 -71.724754 32,375 285 279 1408
2021-12-04 16:21:59 GMT 42.864414 -71.719536 32,275 285 279 1408
2021-12-04 16:21:56 GMT 42.863571 -71.714920 32,250 285 279 1408
2021-12-04 16:21:53 GMT 42.862518 -71.709427 32,150 285 280 1472
2021-12-04 16:21:50 GMT 42.861420 -71.703293 32,050 285 280 1472
2021-12-04 16:21:47 GMT 42.860271 -71.697304 32,000 285 280 1536
2021-12-04 16:21:44 GMT 42.859955 -71.695435 31,975 285 281 1536
2021-12-04 16:21:42 GMT 42.858719 -71.688919 31,875 285 281 1664
2021-12-04 16:21:37 GMT 42.857574 -71.682724 31,775 285 282 1600
2021-12-04 16:21:34 GMT 42.856224 -71.675331 31,625 285 283 1600
2021-12-04 16:21:31 GMT 42.855377 -71.671036 31,550 285 283 1600
2021-12-04 16:21:28 GMT 42.854313 -71.665321 31,500 285 284 1600
2021-12-04 16:21:24 GMT 42.853455 -71.660622 31,375 285 284 1600
2021-12-04 16:21:21 GMT 42.852032 -71.653221 31,325 285 284 1536
2021-12-04 16:21:17 GMT 42.851028 -71.647789 31,225 285 285 1536
2021-12-04 16:21:13 GMT 42.848602 -71.634880 31,025 285 287 1600
2021-12-04 16:21:10 GMT 42.848602 -71.634880 31,000 285 286 1600
2021-12-04 16:21:07 GMT 42.847706 -71.630203 30,900 285 287 1600
2021-12-04 16:21:04 GMT 42.846771 -71.625298 30,900 285 287 1600
2021-12-04 16:21:01 GMT 42.845627 -71.619171 30,775 285 288 1600
2021-12-04 16:20:58 GMT 42.844494 -71.613007 30,650 285 288 1600
2021-12-04 16:20:55 GMT 42.843658 -71.608627 30,600 285 288 1600
2021-12-04 16:20:52 GMT 42.842628 -71.603134 30,550 285 290 1600
2021-12-04 16:20:49 GMT 42.841370 -71.596626 30,450 285 290 1600
2021-12-04 16:20:46 GMT 42.839447 -71.586403 30,350 285 290 1536
2021-12-04 16:20:43 GMT 42.839447 -71.586403 30,300 285 291 1536
2021-12-04 16:20:40 GMT 42.838577 -71.581802 30,200 285 291 1472
2021-12-04 16:20:37 GMT 42.837524 -71.576118 30,050 285 292 1536
2021-12-04 16:20:34 GMT 42.836380 -71.570114 30,075 285 291 1472
2021-12-04 16:20:31 GMT 42.835419 -71.565132 29,975 285 292 1472
2021-12-04 16:20:28 GMT 42.834576 -71.560692 29,925 285 292 1536
2021-12-04 16:20:24 GMT 42.833084 -71.552681 29,800 285 292 1536
2021-12-04 16:20:21 GMT 42.832340 -71.548988 29,725 285 292 1536
2021-12-04 16:20:19 GMT 42.831665 -71.545265 29,700 285 292 1536
2021-12-04 16:20:16 GMT 42.830292 -71.538322 29,575 285 292 1344
2021-12-04 16:20:13 GMT 42.828644 -71.529617 29,500 285 293 1536
2021-12-04 16:20:10 GMT 42.827595 -71.524071 29,475 285 293 1536
2021-12-04 16:20:08 GMT 42.827595 -71.524071 29,400 285 293 1472
2021-12-04 16:20:05 GMT 42.826847 -71.520149 29,200 285 293 1472
2021-12-04 16:20:02 GMT 42.825729 -71.514458 29,250 285 293 1408
2021-12-04 16:19:59 GMT 42.824566 -71.507980 29,200 285 293 1408
2021-12-04 16:19:56 GMT 42.822613 -71.497650 29,125 285 292 1344
2021-12-04 16:19:53 GMT 42.822613 -71.497650 29,050 285 292 1344
2021-12-04 16:19:50 GMT 42.821541 -71.491959 28,950 285 292 1344
2021-12-04 16:19:47 GMT 42.820564 -71.486595 28,925 285 292 1280
2021-12-04 16:19:44 GMT 42.819992 -71.483566 28,625 285 292 1344
2021-12-04 16:19:41 GMT 42.818420 -71.475220 28,800 285 291 1280
2021-12-04 16:19:38 GMT 42.817772 -71.471626 28,700 285 292 1280
2021-12-04 16:19:34 GMT 42.815350 -71.458481 28,600 285 292 1408
2021-12-04 16:19:31 GMT 42.815350 -71.458481 28,575 285 291 1344
2021-12-04 16:19:28 GMT 42.814140 -71.452133 28,500 285 291 1344
2021-12-04 16:19:23 GMT 42.812714 -71.444855 28,400 285 291 1344
2021-12-04 16:19:20 GMT 42.811626 -71.438988 28,350 285 290 1344
2021-12-04 16:19:17 GMT 42.810509 -71.433365 28,275 285 290 1344
2021-12-04 16:19:13 GMT 42.809052 -71.425743 28,175 285 290 1408
2021-12-04 16:19:10 GMT 42.808552 -71.423141 28,000 285 290 1408
2021-12-04 16:19:07 GMT 42.807575 -71.417839 28,050 285 289 1408
2021-12-04 16:19:05 GMT 42.806553 -71.412537 28,000 285 289 1408
2021-12-04 16:19:01 GMT 42.805527 -71.406853 27,875 285 290 1408
2021-12-04 16:18:58 GMT 42.804459 -71.401230 27,825 285 289 1408
2021-12-04 16:18:55 GMT 42.803146 -71.394341 27,750 285 289 1408
2021-12-04 16:18:52 GMT 42.802456 -71.390694 27,675 285 289 1408
2021-12-04 16:18:49 GMT 42.801178 -71.383789 27,600 285 289 1344
2021-12-04 16:18:46 GMT 42.800446 -71.379921 27,550 285 289 1344
2021-12-04 16:18:43 GMT 42.799438 -71.374680 27,475 285 288 1344
2021-12-04 16:18:40 GMT 42.798019 -71.367310 27,375 285 288 1472
2021-12-04 16:18:37 GMT 42.797333 -71.363609 27,300 285 288 1472
2021-12-04 16:18:34 GMT 42.796371 -71.358574 27,275 285 288 1472
2021-12-04 16:18:30 GMT 42.795090 -71.351891 27,225 285 288 1472
2021-12-04 16:18:27 GMT 42.794121 -71.346809 27,125 285 287 1408
2021-12-04 16:18:24 GMT 42.792938 -71.340721 27,025 285 287 1408
2021-12-04 16:18:21 GMT 42.792122 -71.336334 27,000 285 287 1408
2021-12-04 16:18:18 GMT 42.790958 -71.330399 26,875 285 286 1280
2021-12-04 16:18:15 GMT 42.789688 -71.323990 26,825 285 286 1280
2021-12-04 16:18:11 GMT 42.788445 -71.317558 26,650 285 285 1408
2021-12-04 16:18:08 GMT 42.787697 -71.313728 26,675 285 285 1408
2021-12-04 16:18:05 GMT 42.786346 -71.306824 26,575 285 285 1472
2021-12-04 16:18:02 GMT 42.785648 -71.303314 26,200 292 287 1344
2021-12-04 16:17:59 GMT 42.783554 -71.292969 26,200 291 286 1344
2021-12-04 16:17:56 GMT 42.783554 -71.292969 26,400 288 286 1344
2021-12-04 16:17:53 GMT 42.782043 -71.286659 26,325 291 286 1344
2021-12-04 16:17:50 GMT 42.779251 -71.276924 26,225 293 287 1408
2021-12-04 16:17:47 GMT 42.779251 -71.276924 26,150 294 288 1472
2021-12-04 16:17:44 GMT 42.777691 -71.272141 26,075 296 288 1408
2021-12-04 16:17:41 GMT 42.776340 -71.268181 26,000 297 290 1408
2021-12-04 16:17:38 GMT 42.774490 -71.263130 25,975 298 290 1344
2021-12-04 16:17:34 GMT 42.772011 -71.256874 25,850 302 292 1408
2021-12-04 16:17:31 GMT 42.767303 -71.246338 25,750 304 293 1408
2021-12-04 16:17:28 GMT 42.765381 -71.242340 25,675 304 293 1408
2021-12-04 16:17:25 GMT 42.763000 -71.237411 25,575 304 292 1408
2021-12-04 16:17:22 GMT 42.763000 -71.237411 25,600 304 292 1408
2021-12-04 16:17:18 GMT 42.759953 -71.231201 25,425 304 287 1664
2021-12-04 16:17:15 GMT 42.758278 -71.227814 25,400 304 290 1344
2021-12-04 16:17:12 GMT 42.755676 -71.222496 25,300 304 289 1536
2021-12-04 16:17:09 GMT 42.753716 -71.218361 25,175 304 289 1536
2021-12-04 16:17:05 GMT 42.750175 -71.211082 25,175 304 289 1600
2021-12-04 16:17:01 GMT 42.745834 -71.202141 25,050 304 288 1664
2021-12-04 16:16:58 GMT 42.745834 -71.202141 24,925 304 288 1664
2021-12-04 16:16:55 GMT 42.743225 -71.196709 24,900 304 288 1664
2021-12-04 16:16:52 GMT 42.741577 -71.193344 24,850 304 288 1664
2021-12-04 16:16:49 GMT 42.738167 -71.186295 24,725 304 287 1664
2021-12-04 16:16:46 GMT 42.737141 -71.184189 24,675 304 287 1664
2021-12-04 16:16:43 GMT 42.733978 -71.177673 24,425 304 287 1664
2021-12-04 16:16:40 GMT 42.732651 -71.174988 24,500 304 287 1664
2021-12-04 16:16:38 GMT 42.730728 -71.171059 24,400 304 286 1664
2021-12-04 16:16:35 GMT 42.728203 -71.165855 24,300 304 285 1664
2021-12-04 16:16:32 GMT 42.726791 -71.163002 24,225 303 284 1664
2021-12-04 16:16:29 GMT 42.724571 -71.158318 24,125 303 284 1728
2021-12-04 16:16:26 GMT 42.719872 -71.148422 24,050 303 284 1728
2021-12-04 16:16:23 GMT 42.719872 -71.148422 23,975 303 283 1664
2021-12-04 16:16:20 GMT 42.718369 -71.145279 23,950 304 284 1664
2021-12-04 16:16:17 GMT 42.713791 -71.135788 23,775 304 283 1728
2021-12-04 16:16:12 GMT 42.712704 -71.133537 23,650 304 281 1728
2021-12-04 16:16:09 GMT 42.709724 -71.127342 23,575 304 281 1728
2021-12-04 16:16:06 GMT 42.704956 -71.117371 23,475 303 281 1728
2021-12-04 16:16:03 GMT 42.704956 -71.117371 23,425 303 281 1728
2021-12-04 16:15:59 GMT 42.702255 -71.111816 23,275 303 279 1728
2021-12-04 16:15:55 GMT 42.700367 -71.107796 23,250 303 279 1792
2021-12-04 16:15:51 GMT 42.694794 -71.096214 22,975 304 279 1920
2021-12-04 16:15:48 GMT 42.694794 -71.096214 22,975 304 279 1920
2021-12-04 16:15:44 GMT 42.692451 -71.091316 22,725 304 279 1920
2021-12-04 16:15:41 GMT 42.689987 -71.086227 22,750 304 279 1920
2021-12-04 16:15:38 GMT 42.688354 -71.082817 22,625 304 278 1984
2021-12-04 16:15:35 GMT 42.685841 -71.077583 22,300 304 278 2112
2021-12-04 16:15:31 GMT 42.682663 -71.070992 22,400 304 279 2112
2021-12-04 16:15:28 GMT 42.678360 -71.062256 22,300 304 279 2112
2021-12-04 16:15:25 GMT 42.678360 -71.062256 22,200 304 279 2112
2021-12-04 16:15:20 GMT 42.675320 -71.055992 21,975 304 279 2112
2021-12-04 16:15:17 GMT 42.673141 -71.051453 21,925 304 279 2112
2021-12-04 16:15:14 GMT 42.671036 -71.047020 21,700 304 279 2176
2021-12-04 16:15:11 GMT 42.669128 -71.043091 21,725 304 279 2176
2021-12-04 16:15:07 GMT 42.666058 -71.036636 21,575 304 278 2240
2021-12-04 16:15:05 GMT 42.664894 -71.034279 21,400 304 278 2240
2021-12-04 16:15:02 GMT 42.661819 -71.027885 21,350 304 278 2240
2021-12-04 16:14:59 GMT 42.660187 -71.024490 21,225 304 278 2240
2021-12-04 16:14:56 GMT 42.658630 -71.021301 21,175 304 278 2176
2021-12-04 16:14:52 GMT 42.655582 -71.014984 21,025 304 279 2176
2021-12-04 16:14:49 GMT 42.651161 -71.005913 20,850 304 279 2176
2021-12-04 16:14:46 GMT 42.651161 -71.005913 20,750 304 279 2112
2021-12-04 16:14:43 GMT 42.649384 -71.002266 20,700 304 279 2112
2021-12-04 16:14:40 GMT 42.645016 -70.993401 20,550 304 279 2112
2021-12-04 16:14:37 GMT 42.645016 -70.993401 20,425 304 279 2176
2021-12-04 16:14:34 GMT 42.639988 -70.983238 20,300 304 278 2176
2021-12-04 16:14:31 GMT 42.639988 -70.983238 20,250 304 277 2176
2021-12-04 16:14:27 GMT 42.637253 -70.977547 20,100 304 278 2176
2021-12-04 16:14:24 GMT 42.635750 -70.974487 19,950 304 278 2240
2021-12-04 16:14:21 GMT 42.633240 -70.969254 19,850 304 278 2304
2021-12-04 16:14:18 GMT 42.631577 -70.965874 19,750 304 279 2304
2021-12-04 16:14:15 GMT 42.627373 -70.957306 19,400 305 278 2304
2021-12-04 16:14:12 GMT 42.627373 -70.957306 19,575 305 279 2304
2021-12-04 16:14:08 GMT 42.623600 -70.949837 19,350 305 279 2368
2021-12-04 16:14:05 GMT 42.621693 -70.946068 19,275 305 278 2368
2021-12-04 16:14:03 GMT 42.620251 -70.943192 19,150 304 279 2368
2021-12-04 16:13:59 GMT 42.617020 -70.936661 19,000 304 278 2368
2021-12-04 16:13:56 GMT 42.615601 -70.933723 18,925 304 279 2304
2021-12-04 16:13:53 GMT 42.612579 -70.927612 18,775 304 278 2304
2021-12-04 16:13:49 GMT 42.610336 -70.922928 18,625 303 278 2304
2021-12-04 16:13:45 GMT 42.607544 -70.917061 18,400 303 278 2304
2021-12-04 16:13:41 GMT 42.605026 -70.911751 18,375 303 278 2304
2021-12-04 16:13:38 GMT 42.603165 -70.907806 18,225 303 278 2368
2021-12-04 16:13:34 GMT 42.600094 -70.901352 18,050 304 278 2432
2021-12-04 16:13:32 GMT 42.598557 -70.898163 17,925 304 279 2432
2021-12-04 16:13:29 GMT 42.596786 -70.894463 17,850 304 280 2688
2021-12-04 16:13:26 GMT 42.594227 -70.889412 17,725 305 279 2496
2021-12-04 16:13:23 GMT 42.592503 -70.885963 17,625 305 279 2496
2021-12-04 16:13:21 GMT 42.590782 -70.882446 17,500 304 279 2624
2021-12-04 16:13:18 GMT 42.588177 -70.877213 17,300 304 279 2624
2021-12-04 16:13:15 GMT 42.586349 -70.873611 17,125 305 280 2624
2021-12-04 16:13:12 GMT 42.584267 -70.869415 17,050 305 280 2624
2021-12-04 16:13:09 GMT 42.579563 -70.860092 16,900 305 280 2624
2021-12-04 16:13:06 GMT 42.579563 -70.860092 16,825 305 281 2624
2021-12-04 16:13:03 GMT 42.577744 -70.856445 16,725 305 281 2560
2021-12-04 16:13:01 GMT 42.576233 -70.853577 16,500 305 282 2624
2021-12-04 16:12:56 GMT 42.572067 -70.845276 16,375 304 280 2688
2021-12-04 16:12:53 GMT 42.570019 -70.841187 16,250 304 281 2688
2021-12-04 16:12:48 GMT 42.566715 -70.834480 15,975 304 281 2752
2021-12-04 16:12:45 GMT 42.564526 -70.830070 15,850 304 281 2752
2021-12-04 16:12:42 GMT 42.562851 -70.826492 15,775 304 281 2688
2021-12-04 16:12:40 GMT 42.560802 -70.822403 15,675 304 281 2752
2021-12-04 16:12:36 GMT 42.558289 -70.817245 15,550 304 281 2752
2021-12-04 16:12:33 GMT 42.556137 -70.812813 15,375 304 281 3072
2021-12-04 16:12:31 GMT 42.551239 -70.802826 15,175 304 282 3072
2021-12-04 16:12:27 GMT 42.551239 -70.802826 15,025 304 284 3072
2021-12-04 16:12:24 GMT 42.549397 -70.799156 14,900 304 284 3072
2021-12-04 16:12:21 GMT 42.547211 -70.794746 14,675 305 285 3008
2021-12-04 16:12:18 GMT 42.544922 -70.790154 14,450 313 292 2880
2021-12-04 16:12:15 GMT 42.542038 -70.784973 14,400 310 289 2944
2021-12-04 16:12:12 GMT 42.539715 -70.781204 14,250 312 291 2880
2021-12-04 16:12:07 GMT 42.534576 -70.773926 13,975 318 298 2816
2021-12-04 16:12:04 GMT 42.533058 -70.772011 13,825 321 301 2688
2021-12-04 16:12:01 GMT 42.526260 -70.764282 13,725 322 301 2688
2021-12-04 16:11:59 GMT 42.526260 -70.764282 13,625 324 304 2624
2021-12-04 16:11:54 GMT 42.521576 -70.759758 13,400 330 308 2432
2021-12-04 16:11:51 GMT 42.517731 -70.756508 13,325 331 309 2432
2021-12-04 16:11:49 GMT 42.515598 -70.754829 13,200 334 311 2304
2021-12-04 16:11:46 GMT 42.511784 -70.752144 13,050 335 304 1536
2021-12-04 16:11:43 GMT 42.508385 -70.749908 13,050 335 304 1536
2021-12-04 16:11:40 GMT 42.501308 -70.745438 12,825 335 310 2112
2021-12-04 16:11:34 GMT 42.494328 -70.740967 12,600 335 307 1792
2021-12-04 16:11:31 GMT 42.491867 -70.739403 12,250 335 295 1280
2021-12-04 16:11:28 GMT 42.487621 -70.736687 12,525 335 305 1728
2021-12-04 16:11:24 GMT 42.482941 -70.733665 12,400 335 301 1344
2021-12-04 16:11:20 GMT 42.477287 -70.730042 12,300 335 296 1280
2021-12-04 16:11:17 GMT 42.474075 -70.727936 12,250 335 295 1280
2021-12-04 16:11:14 GMT 42.469803 -70.725174 12,150 335 290 1216
2021-12-04 16:11:11 GMT 42.465790 -70.722572 12,075 337 288 1408
2021-12-04 16:11:07 GMT 42.461975 -70.720367 12,000 342 288 1280
2021-12-04 16:11:04 GMT 42.458450 -70.718681 11,800 355 291 1344
2021-12-04 16:11:01 GMT 42.454430 -70.717270 11,875 350 291 1280
2021-12-04 16:10:57 GMT 42.448425 -70.716057 11,775 357 292 1344
2021-12-04 16:10:52 GMT 42.443573 -70.715752 11,575 4 293 1728
2021-12-04 16:10:49 GMT 42.436928 -70.716118 11,525 6 294 1792
2021-12-04 16:10:46 GMT 42.434227 -70.716568 11,500 7 294 1792
2021-12-04 16:10:43 GMT 42.430176 -70.717461 11,375 13 295 1728
2021-12-04 16:10:39 GMT 42.425941 -70.718933 11,225 17 294 1792
2021-12-04 16:10:36 GMT 42.421471 -70.720657 11,175 17 293 1792
2021-12-04 16:10:34 GMT 42.417328 -70.722443 11,050 17 292 1920
2021-12-04 16:10:30 GMT 42.409241 -70.725983 10,975 18 287 1984
2021-12-04 16:10:27 GMT 42.406620 -70.727173 10,850 18 287 2112
2021-12-04 16:10:24 GMT 42.406620 -70.727173 10,775 18 286 2176
2021-12-04 16:10:21 GMT 42.401230 -70.729607 10,550 17 282 2688
2021-12-04 16:10:18 GMT 42.396847 -70.731453 10,425 17 281 3136
2021-12-04 16:10:15 GMT 42.393913 -70.732727 10,300 17 280 3200
2021-12-04 16:10:13 GMT 42.391911 -70.733620 10,125 17 279 3456
2021-12-04 16:10:10 GMT 42.387589 -70.735413 9,950 17 280 4224
2021-12-04 16:09:54 GMT 42.346821 -70.727821 7,500 76 298 3328
2021-12-04 16:09:53 GMT 42.346169 -70.731438 7,500 76 298 3328
2021-12-04 16:09:51 GMT 42.345840 -70.733238 7,500 76 298 3328
2021-12-04 16:09:50 GMT 42.345520 -70.735046 7,500 76 298 3328
2021-12-04 16:09:49 GMT 42.344872 -70.738670 7,500 76 298 3328
2021-12-04 16:09:47 GMT 42.344540 -70.740479 7,500 76 298 3328
2021-12-04 16:09:46 GMT 42.344219 -70.742279 7,500 76 298 3328
2021-12-04 16:09:45 GMT 42.343571 -70.745903 7,500 76 298 3328
2021-12-04 16:09:43 GMT 42.343239 -70.747711 7,500 76 298 3328
2021-12-04 16:09:42 GMT 42.342918 -70.749519 7,500 76 298 3328
2021-12-04 16:09:40 GMT 42.342270 -70.753128 7,500 76 298 3328
2021-12-04 16:09:38 GMT 42.341621 -70.756752 7,500 76 298 3328
2021-12-04 16:09:37 GMT 42.341290 -70.758560 7,500 76 298 3328
2021-12-04 16:09:34 GMT 42.340309 -70.763977 7,500 76 298 3328
2021-12-04 16:09:33 GMT 42.339989 -70.765793 7,500 76 298 3328
2021-12-04 16:09:31 GMT 42.339340 -70.769402 7,500 76 298 3328
2021-12-04 16:09:30 GMT 42.339008 -70.771210 7,500 76 298 3328
2021-12-04 16:09:29 GMT 42.338692 -70.773018 7,500 76 298 3328
2021-12-04 16:09:28 GMT 42.338032 -70.776627 7,500 76 298 3328
2021-12-04 16:09:26 GMT 42.337711 -70.778442 7,500 76 298 3328
2021-12-04 16:09:25 GMT 42.337379 -70.780251 7,500 76 298 3328
2021-12-04 16:09:24 GMT 42.337059 -70.782059 7,500 76 298 3328
2021-12-04 16:09:22 GMT 42.336281 -70.785851 7,300 76 295 3328
2021-12-04 16:09:21 GMT 42.335960 -70.787643 7,300 76 295 3328
2021-12-04 16:09:19 GMT 42.334980 -70.793297 7,100 76 292 3328
2021-12-04 16:09:17 GMT 42.334660 -70.795067 7,100 76 292 3328
2021-12-04 16:09:16 GMT 42.334030 -70.798607 7,100 76 292 3328
2021-12-04 16:09:14 GMT 42.333710 -70.800369 7,100 76 292 3328
2021-12-04 16:09:13 GMT 42.333389 -70.802330 7,000 76 289 3328
2021-12-04 16:09:11 GMT 42.332748 -70.805832 7,000 76 289 3328
2021-12-04 16:09:10 GMT 42.332432 -70.807579 7,000 76 289 3328
2021-12-04 16:09:09 GMT 42.332111 -70.809334 7,000 76 289 3328
2021-12-04 16:09:07 GMT 42.331440 -70.812759 6,800 76 290 3328
2021-12-04 16:09:06 GMT 42.331120 -70.814507 6,800 76 290 3328
2021-12-04 16:09:05 GMT 42.330799 -70.816269 6,800 76 290 3328
2021-12-04 16:09:03 GMT 42.330120 -70.819748 6,500 76 291 3328
2021-12-04 16:09:02 GMT 42.329811 -70.821510 6,500 76 291 3328
2021-12-04 16:09:01 GMT 42.329182 -70.825043 6,500 76 291 3328
2021-12-04 16:08:59 GMT 42.328831 -70.826889 6,200 76 289 3328
2021-12-04 16:08:58 GMT 42.328522 -70.828651 6,200 76 289 192
2021-12-04 16:08:56 GMT 42.327900 -70.832153 6,200 76 289 192
2021-12-04 16:08:55 GMT 42.327541 -70.833687 5,900 76 292 192
2021-12-04 16:08:54 GMT 42.326920 -70.837242 5,900 76 292 192
2021-12-04 16:08:52 GMT 42.326611 -70.839012 5,900 76 292 192
2021-12-04 16:08:51 GMT 42.326302 -70.840790 5,900 76 292 192
2021-12-04 16:08:49 GMT 42.325691 -70.844589 5,400 76 288 192
2021-12-04 16:08:48 GMT 42.325069 -70.848083 5,400 76 288 192
2021-12-04 16:08:46 GMT 42.324791 -70.850128 5,400 76 284 192
2021-12-04 16:08:45 GMT 42.324478 -70.851852 5,400 76 284 192
2021-12-04 16:08:43 GMT 42.323849 -70.855301 5,400 76 284 192
2021-12-04 16:08:42 GMT 42.323540 -70.857018 5,400 76 284 192
2021-12-04 16:08:41 GMT 42.323219 -70.858871 5,200 76 283 192
2021-12-04 16:08:40 GMT 42.322590 -70.862289 5,200 76 283 192
2021-12-04 16:08:38 GMT 42.322269 -70.863998 5,200 76 283 192
2021-12-04 16:08:37 GMT 42.321960 -70.865707 5,200 76 283 192
2021-12-04 16:08:36 GMT 42.321331 -70.868790 5,000 76 289 192
2021-12-04 16:08:34 GMT 42.321030 -70.870552 5,000 76 289 192
2021-12-04 16:08:33 GMT 42.320728 -70.872299 5,000 76 289 192
2021-12-04 16:08:31 GMT 42.320030 -70.876389 4,800 75 276 192
2021-12-04 16:08:30 GMT 42.319721 -70.878059 4,800 75 276 192
2021-12-04 16:08:29 GMT 42.319092 -70.881401 4,800 75 276 192
2021-12-04 16:08:27 GMT 42.318680 -70.883553 4,300 75 270 192
2021-12-04 16:08:26 GMT 42.318062 -70.886810 4,300 75 270 192
2021-12-04 16:08:24 GMT 42.317749 -70.888443 4,300 75 270 192
2021-12-04 16:08:23 GMT 42.317719 -70.889977 4,300 75 270 192
2021-12-04 16:08:21 GMT 42.317101 -70.893250 4,300 75 270 192
2021-12-04 16:08:20 GMT 42.316799 -70.894882 4,300 75 270 192
2021-12-04 16:08:19 GMT 42.316490 -70.896507 4,300 75 270 192
2021-12-04 16:08:18 GMT 42.316010 -70.899429 4,200 74 277 192
2021-12-04 16:08:16 GMT 42.315689 -70.901100 4,200 74 277 192
2021-12-04 16:08:14 GMT 42.315029 -70.904442 4,200 74 277 192
2021-12-04 16:08:12 GMT 42.314671 -70.907806 4,000 73 273 192
2021-12-04 16:08:11 GMT 42.314308 -70.909439 4,000 73 273 192
2021-12-04 16:08:10 GMT 42.313950 -70.911072 4,000 73 273 192
2021-12-04 16:08:08 GMT 42.313679 -70.914467 3,900 72 267 192
2021-12-04 16:08:07 GMT 42.313278 -70.916054 3,900 72 267 192
2021-12-04 16:08:05 GMT 42.312489 -70.919197 3,900 72 267 192
2021-12-04 16:08:04 GMT 42.312309 -70.920982 3,600 74 257 192
2021-12-04 16:08:03 GMT 42.311939 -70.922508 3,600 74 257 192
2021-12-04 16:08:02 GMT 42.311569 -70.924026 3,600 74 257 192
2021-12-04 16:08:01 GMT 42.310349 -70.927132 3,600 80 245 192
2021-12-04 16:07:59 GMT 42.310108 -70.928627 3,600 80 245 192
2021-12-04 16:07:58 GMT 42.309620 -70.931618 3,600 80 245 192
2021-12-04 16:07:56 GMT 42.309380 -70.933113 3,600 80 245 192
2021-12-04 16:07:55 GMT 42.308369 -70.935043 3,500 88 228 -288
2021-12-04 16:07:54 GMT 42.308220 -70.937881 3,500 88 228 -288
2021-12-04 16:07:52 GMT 42.308140 -70.939301 3,500 88 228 -288
2021-12-04 16:07:50 GMT 42.307480 -70.942360 3,500 94 221 1568
2021-12-04 16:07:49 GMT 42.307541 -70.943733 3,500 94 221 1568
2021-12-04 16:07:48 GMT 42.307598 -70.945107 3,500 94 221 1568
2021-12-04 16:07:47 GMT 42.307652 -70.946480 3,500 94 221 1568
2021-12-04 16:07:45 GMT 42.307652 -70.948959 3,400 98 228 1568
2021-12-04 16:07:44 GMT 42.307789 -70.950371 3,400 98 228 1568
2021-12-04 16:07:43 GMT 42.307930 -70.951782 3,400 98 228 1568
2021-12-04 16:07:42 GMT 42.308041 -70.954292 3,200 99 237 1568
2021-12-04 16:07:40 GMT 42.308201 -70.955780 3,200 100 235 1568
2021-12-04 16:07:39 GMT 42.308392 -70.957237 3,200 102 232 1568
2021-12-04 16:07:38 GMT 42.308578 -70.958702 3,200 104 228 1568
2021-12-04 16:07:37 GMT 42.308922 -70.961342 3,175 109 233 1568
2021-12-04 16:07:35 GMT 42.309250 -70.962738 3,000 111 229 1568
2021-12-04 16:07:34 GMT 42.309971 -70.965469 3,000 114 222 1568
2021-12-04 16:07:32 GMT 42.310329 -70.966690 2,900 115 224 1568
2021-12-04 16:07:31 GMT 42.310741 -70.967972 2,900 117 222 1568
2021-12-04 16:07:30 GMT 42.311630 -70.970573 2,600 122 214 1568
2021-12-04 16:07:28 GMT 42.312130 -70.971718 2,600 123 213 1568
2021-12-04 16:07:27 GMT 42.312649 -70.972923 2,600 124 210 1568
2021-12-04 16:07:25 GMT 42.313702 -70.975082 2,600 127 211 1568
2021-12-04 16:07:24 GMT 42.314270 -70.976173 2,600 127 210 1568
2021-12-04 16:07:23 GMT 42.314869 -70.977203 2,350 127 209 1568
2021-12-04 16:07:21 GMT 42.316040 -70.979240 2,350 127 212 1568
2021-12-04 16:07:20 GMT 42.316662 -70.980293 2,350 127 209 1568
2021-12-04 16:07:19 GMT 42.317261 -70.981331 2,350 127 208 1568
2021-12-04 16:07:17 GMT 42.318439 -70.983330 2,350 128 210 1568
2021-12-04 16:07:16 GMT 42.319012 -70.984459 2,200 129 205 1568
2021-12-04 16:07:15 GMT 42.319641 -70.985458 2,200 129 202 1568
2021-12-04 16:07:13 GMT 42.320820 -70.987389 2,125 128 205 1568
2021-12-04 16:07:12 GMT 42.321449 -70.988373 2,125 127 202 1568
2021-12-04 16:07:11 GMT 42.322010 -70.989388 2,125 128 202 1568
2021-12-04 16:07:09 GMT 42.323181 -70.991318 1,900 127 201 1568
2021-12-04 16:07:08 GMT 42.323769 -70.992302 1,900 126 199 1568
2021-12-04 16:07:07 GMT 42.324329 -70.993332 1,900 127 197 1568
2021-12-04 16:07:05 GMT 42.325481 -70.995239 1,900 126 195 1568
2021-12-04 16:07:04 GMT 42.326038 -70.996231 1,900 126 193 1568
2021-12-04 16:07:03 GMT 42.326561 -70.997169 1,800 126 195 1568
2021-12-04 16:07:02 GMT 42.327679 -70.999062 1,800 125 194 1568
2021-12-04 16:07:00 GMT 42.328239 -71.000031 1,700 125 192 1568
2021-12-04 16:06:59 GMT 42.328789 -71.000977 1,700 124 191 1568
2021-12-04 16:06:57 GMT 42.329842 -71.002922 1,700 125 187 -96
2021-12-04 16:06:56 GMT 42.330330 -71.003738 1,650 125 192 -96
2021-12-04 16:06:55 GMT 42.330849 -71.004707 1,650 126 190 -96
2021-12-04 16:06:53 GMT 42.331909 -71.006599 1,600 128 184 -96
2021-12-04 16:06:52 GMT 42.332409 -71.007431 1,600 129 185 -96
2021-12-04 16:06:50 GMT 42.333462 -71.009171 1,600 134 181 288
2021-12-04 16:06:49 GMT 42.334061 -71.010017 1,600 136 176 288
2021-12-04 16:06:48 GMT 42.335159 -71.011497 1,375 142 174 288
2021-12-04 16:06:46 GMT 42.335800 -71.012192 1,375 144 171 288
2021-12-04 16:06:45 GMT 42.337101 -71.013496 1,375 149 162 288
2021-12-04 16:06:43 GMT 42.337650 -71.013977 1,375 151 167 288
2021-12-04 16:06:42 GMT 42.338291 -71.014481 1,375 154 167 288
2021-12-04 16:06:41 GMT 42.339642 -71.015404 1,300 159 165 288
2021-12-04 16:06:39 GMT 42.340370 -71.015823 1,300 161 161 288
2021-12-04 16:06:38 GMT 42.340950 -71.016159 1,250 164 165 288
2021-12-04 16:06:37 GMT 42.341702 -71.016487 1,250 166 161 288
2021-12-04 16:06:36 GMT 42.343201 -71.016983 1,050 170 150 288
2021-12-04 16:06:34 GMT 42.343719 -71.017159 1,050 173 158 288
2021-12-04 16:06:33 GMT 42.345181 -71.017380 1,050 176 152 288
2021-12-04 16:06:31 GMT 42.345909 -71.017433 1,050 177 148 288
2021-12-04 16:06:30 GMT 42.346680 -71.017502 1,000 180 139 288
2021-12-04 16:06:29 GMT 42.347858 -71.017593 900 185 149 288
2021-12-04 16:06:27 GMT 42.348610 -71.017517 900 187 141 288
2021-12-04 16:06:26 GMT 42.349350 -71.017410 900 190 132 288
2021-12-04 16:06:25 GMT 42.350460 -71.017212 850 193 141 288
2021-12-04 16:06:23 GMT 42.351131 -71.016998 825 194 137 288
2021-12-04 16:06:22 GMT 42.351791 -71.016769 800 194 132 288
2021-12-04 16:06:21 GMT 42.352928 -71.016418 725 197 137 288
2021-12-04 16:06:19 GMT 42.353550 -71.016151 675 198 135 288
2021-12-04 16:06:17 GMT 42.354729 -71.015640 600 198 136 288
2021-12-04 16:06:16 GMT 42.355370 -71.015381 575 199 131 288
2021-12-04 16:06:15 GMT 42.355919 -71.015099 525 198 134 288
2021-12-04 16:06:14 GMT 42.357090 -71.014610 450 198 141 288
2021-12-04 16:06:12 GMT 42.357719 -71.014320 400 199 135 288
2021-12-04 16:06:11 GMT 42.358910 -71.013748 325 199 136 288
2021-12-04 16:06:09 GMT 42.359509 -71.013443 175 198 136 288
2021-12-04 16:06:08 GMT 42.360119 -71.013184 175 199 137 288
2021-12-04 16:06:06 GMT 42.361309 -71.012611 50 198 140 288
2021-12-04 16:06:05 GMT 42.361919 -71.012321 50 198 142 288
2021-12-04 16:06:04 GMT 42.362480 -71.012077 -50 198 151 288
2021-12-04 16:06:03 GMT 42.363098 -71.011810 -50 199 154 288
2021-12-04 16:06:01 GMT 42.364429 -71.011162 -150 198 151 288
2021-12-04 16:06:00 GMT 42.365742 -71.010559 -150 199 148 -512
2021-12-04 16:05:58 GMT 42.366371 -71.010269 -125 199 146 -512
2021-12-04 16:05:57 GMT 42.367020 -71.009956 -125 199 141 -512
2021-12-04 16:05:55 GMT 42.368240 -71.009369 -125 199 134
2021-12-04 16:05:54 GMT 42.368820 -71.009079 -125 199 131
2021-12-04 16:05:53 GMT 42.369400 -71.008812 -125 199 127
2021-12-04 16:05:51 GMT 42.370522 -71.008278 0 200 118
2021-12-04 16:05:50 GMT 42.371029 -71.008034 0 200 115
2021-12-04 16:05:49 GMT 42.372002 -71.007530 0 199 108
2021-12-04 16:05:47 GMT 42.372478 -71.007309 0 199 102
2021-12-04 16:05:46 GMT 42.372929 -71.007050 0 198 98
2021-12-04 16:05:44 GMT 42.373791 -71.006668 0 199 89
2021-12-04 16:05:43 GMT 42.374191 -71.006477 0 199 85
2021-12-04 16:05:42 GMT 42.374561 -71.006310 0 199 81
2021-12-04 16:05:40 GMT 42.375259 -71.005959 0 199 72
2021-12-04 16:05:39 GMT 42.375580 -71.005836 0 200 67
2021-12-04 16:05:38 GMT 42.376148 -71.005539 0 199 55
2021-12-04 16:05:36 GMT 42.376411 -71.005386 0 199 49
2021-12-04 16:05:35 GMT 42.376640 -71.005310 0 200 44
2021-12-04 16:05:34 GMT 42.377060 -71.005112 0 202 29
2021-12-04 16:05:32 GMT 42.377232 -71.005043 0 202 22
2021-12-04 16:05:31 GMT 42.377361 -71.004967 0 200 17
2021-12-04 16:05:29 GMT 42.377529 -71.004829 0 180 8
2021-12-04 16:05:28 GMT 42.377609 -71.004829 0 183 4
2021-12-04 16:05:27 GMT 42.377628 -71.004822 0 197 5
2021-12-04 16:05:26 GMT 42.377682 -71.004837 0 208 0
2021-12-04 16:05:24 GMT 42.377689 -71.004837 0 208 0
2021-12-04 16:05:23 GMT 42.377701 -71.004822 0 208 1
2021-12-04 16:05:20 GMT 42.377682 -71.004829 0 207 1
2021-12-04 16:05:19 GMT 42.377659 -71.004784 0 208 2
2021-12-04 16:05:18 GMT 42.377689 -71.004837 0 205 1
2021-12-04 16:05:16 GMT 42.377682 -71.004822 0 204 0
2021-12-04 16:05:15 GMT 42.377682 -71.004837 0 204 0
2021-12-04 16:05:14 GMT 42.377682 -71.004829 0 204 0
2021-12-04 16:05:13 GMT 42.377670 -71.004829 0 204 2
2021-12-04 16:05:11 GMT 42.377659 -71.004822 0 201 4
2021-12-04 16:05:10 GMT 42.377701 -71.004799 0 202 4
2021-12-04 16:05:08 GMT 42.377701 -71.004791 0 207 5
2021-12-04 16:05:07 GMT 42.377731 -71.004807 0 204 6
2021-12-04 16:05:06 GMT 42.377762 -71.004730 0 192 6
2021-12-04 16:05:04 GMT 42.377789 -71.004723 0 195 7
2021-12-04 16:05:03 GMT 42.377819 -71.004723 0 194 7
2021-12-04 16:05:02 GMT 42.377838 -71.004700 0 193 7
2021-12-04 16:05:00 GMT 42.377911 -71.004707 0 201 7
2021-12-04 16:04:59 GMT 42.377930 -71.004692 0 188 7
2021-12-04 16:04:58 GMT 42.377991 -71.004623 0 142 5
2021-12-04 16:04:56 GMT 42.378021 -71.004639 0 128 5
2021-12-04 16:04:55 GMT 42.378040 -71.004608 0 123 6
2021-12-04 16:04:54 GMT 42.378052 -71.004608 0 114 7
2021-12-04 16:04:52 GMT 42.378101 -71.004677 0 106 8
2021-12-04 16:04:51 GMT 42.378109 -71.004723 0 110 9
2021-12-04 16:04:50 GMT 42.378101 -71.004761 0 113 9
2021-12-04 16:04:48 GMT 42.378132 -71.004829 0 110 12
2021-12-04 16:04:47 GMT 42.378170 -71.004967 0 109 8
2021-12-04 16:04:46 GMT 42.378189 -71.005043 0 109 10
2021-12-04 16:04:44 GMT 42.378231 -71.005173 0 109 7
2021-12-04 16:04:43 GMT 42.378239 -71.005211 0 109 7
2021-12-04 16:04:42 GMT 42.378262 -71.005280 0 109 7
2021-12-04 16:04:40 GMT 42.378269 -71.005310 0 109 7
2021-12-04 16:04:38 GMT 42.378288 -71.005440 0 110 6
2021-12-04 16:04:37 GMT 42.378300 -71.005470 0 109 6
2021-12-04 16:04:36 GMT 42.378311 -71.005501 0 107 6
2021-12-04 16:04:34 GMT 42.378330 -71.005547 0 104 8
2021-12-04 16:04:33 GMT 42.378349 -71.005653 0 101 6
2021-12-04 16:04:32 GMT 42.378368 -71.005676 0 98 6
2021-12-04 16:04:30 GMT 42.378380 -71.005730 0 91 7
2021-12-04 16:04:29 GMT 42.378391 -71.005760 0 87 7
2021-12-04 16:04:28 GMT 42.378422 -71.005867 0 72 6
2021-12-04 16:04:26 GMT 42.378441 -71.005890 0 66 7
2021-12-04 16:04:25 GMT 42.378429 -71.005928 0 64 7
2021-12-04 16:04:24 GMT 42.378422 -71.005959 0 58 8
2021-12-04 16:04:22 GMT 42.378368 -71.006119 0 44 4
2021-12-04 16:04:20 GMT 42.378410 -71.006180 0 43 6
2021-12-04 16:04:19 GMT 42.378410 -71.006187 0 41 7
2021-12-04 16:04:18 GMT 42.378410 -71.006210 0 39 9
2021-12-04 16:04:16 GMT 42.378368 -71.006264 0 36 11
2021-12-04 16:04:15 GMT 42.378330 -71.006401 0 22 9
2021-12-04 16:04:14 GMT 42.378281 -71.006470 0 18 10
2021-12-04 16:04:12 GMT 42.378239 -71.006477 0 18 11
2021-12-04 16:04:11 GMT 42.378208 -71.006500 0 18 11
2021-12-04 16:04:09 GMT 42.378139 -71.006531 0 20 14
2021-12-04 16:04:08 GMT 42.378078 -71.006554 0 21 14
2021-12-04 16:04:07 GMT 42.378029 -71.006577 0 21 15
2021-12-04 16:04:05 GMT 42.377899 -71.006660 0 19 14
2021-12-04 16:04:04 GMT 42.377850 -71.006683 0 20 15
2021-12-04 16:04:03 GMT 42.377731 -71.006729 0 22 16
2021-12-04 16:04:01 GMT 42.377621 -71.006821 0 18 14
2021-12-04 16:04:00 GMT 42.377560 -71.006851 0 18 14
2021-12-04 16:03:59 GMT 42.377449 -71.006897 0 19 14
2021-12-04 16:03:57 GMT 42.377392 -71.006920 0 19 15
2021-12-04 16:03:56 GMT 42.377331 -71.006950 0 18 15
2021-12-04 16:03:55 GMT 42.377190 -71.007042 0 16 13
2021-12-04 16:03:53 GMT 42.377129 -71.007057 0 17 14
2021-12-04 16:03:52 GMT 42.377071 -71.007080 0 17 14
2021-12-04 16:03:50 GMT 42.376911 -71.007156 0 17 12
2021-12-04 16:03:49 GMT 42.376801 -71.007187 0 19 12
2021-12-04 16:03:47 GMT 42.376751 -71.007210 0 19 12
2021-12-04 16:03:46 GMT 42.376701 -71.007233 0 19 12
2021-12-04 16:03:44 GMT 42.376579 -71.007309 0 17 11
2021-12-04 16:03:43 GMT 42.376541 -71.007317 0 19 12
2021-12-04 16:03:42 GMT 42.376438 -71.007347 0 21 14
2021-12-04 16:03:40 GMT 42.376389 -71.007378 0 21 15
2021-12-04 16:03:39 GMT 42.376339 -71.007401 0 23 16
2021-12-04 16:03:37 GMT 42.376202 -71.007507 0 15 15
2021-12-04 16:03:36 GMT 42.376129 -71.007538 0 14 14
2021-12-04 16:03:35 GMT 42.376049 -71.007553 0 16 14
2021-12-04 16:03:34 GMT 42.375992 -71.007561 0 21 14
2021-12-04 16:03:32 GMT 42.375858 -71.007622 0 24 14
2021-12-04 16:03:31 GMT 42.375729 -71.007713 0 18 13
2021-12-04 16:03:29 GMT 42.375671 -71.007759 0 16 12
2021-12-04 16:03:28 GMT 42.375629 -71.007767 0 20 13
2021-12-04 16:03:27 GMT 42.375519 -71.007797 0 22 15
2021-12-04 16:03:25 GMT 42.375450 -71.007858 0 17 14
2021-12-04 16:03:24 GMT 42.375401 -71.007889 0 18 14
2021-12-04 16:03:23 GMT 42.375278 -71.007942 0 18 15
2021-12-04 16:03:21 GMT 42.375210 -71.007973 0 18 15
2021-12-04 16:03:20 GMT 42.375149 -71.008011 0 16 15
2021-12-04 16:03:18 GMT 42.375011 -71.008057 0 18 16
2021-12-04 16:03:17 GMT 42.374950 -71.008087 0 20 17
2021-12-04 16:03:16 GMT 42.374809 -71.008171 0 17 17
2021-12-04 16:03:14 GMT 42.374741 -71.008202 0 16 17
2021-12-04 16:03:12 GMT 42.374599 -71.008247 0 20 19
2021-12-04 16:03:11 GMT 42.374512 -71.008308 0 18 18
2021-12-04 16:03:10 GMT 42.374420 -71.008347 0 16 16
2021-12-04 16:03:09 GMT 42.374279 -71.008400 0 21 18
2021-12-04 16:03:07 GMT 42.374222 -71.008430 0 22 20
2021-12-04 16:03:06 GMT 42.374039 -71.008537 0 18 18
2021-12-04 16:03:04 GMT 42.373981 -71.008591 0 15 19
2021-12-04 16:03:03 GMT 42.373890 -71.008598 0 20 18
2021-12-04 16:03:02 GMT 42.373791 -71.008621 0 24 17
2021-12-04 16:02:59 GMT 42.373508 -71.008789 0 19 16
2021-12-04 16:02:57 GMT 42.373440 -71.008820 0 16 15
2021-12-04 16:02:56 GMT 42.373371 -71.008850 0 17 15
2021-12-04 16:02:55 GMT 42.373291 -71.008873 0 21 15
2021-12-04 16:02:53 GMT 42.373161 -71.008926 0 24 14
2021-12-04 16:02:52 GMT 42.373100 -71.008957 0 30 14
2021-12-04 16:02:51 GMT 42.373039 -71.009003 0 29 15
2021-12-04 16:02:50 GMT 42.372952 -71.009109 0 18 15
2021-12-04 16:02:48 GMT 42.372879 -71.009117 0 21 15
2021-12-04 16:02:47 GMT 42.372799 -71.009163 0 23 14
2021-12-04 16:02:46 GMT 42.372669 -71.009209 0 28 14
2021-12-04 16:02:44 GMT 42.372601 -71.009262 0 30 12
2021-12-04 16:02:43 GMT 42.372520 -71.009361 0 17 12
2021-12-04 16:02:41 GMT 42.372471 -71.009399 0 14 12
2021-12-04 16:02:40 GMT 42.372421 -71.009399 0 19 13
2021-12-04 16:02:39 GMT 42.372299 -71.009453 0 27 15
2021-12-04 16:02:37 GMT 42.372231 -71.009468 0 33 15
2021-12-04 16:02:36 GMT 42.372169 -71.009537 0 28 14
2021-12-04 16:02:35 GMT 42.372108 -71.009598 0 24 14
2021-12-04 16:02:33 GMT 42.371990 -71.009666 0 25 12
2021-12-04 16:02:32 GMT 42.371971 -71.009743 0 18 14
2021-12-04 16:02:31 GMT 42.371841 -71.009789 0 22 13
2021-12-04 16:02:29 GMT 42.371792 -71.009842 0 19 13
2021-12-04 16:02:28 GMT 42.371731 -71.009850 0 22 14
2021-12-04 16:02:27 GMT 42.371601 -71.009880 0 33 13
2021-12-04 16:02:25 GMT 42.371552 -71.009949 0 27 13
2021-12-04 16:02:24 GMT 42.371498 -71.010017 0 23 12
2021-12-04 16:02:22 GMT 42.371399 -71.010063 0 27 12
2021-12-04 16:02:21 GMT 42.371349 -71.010101 0 25 11
2021-12-04 16:02:20 GMT 42.371300 -71.010132 0 26 11
2021-12-04 16:02:18 GMT 42.371231 -71.010193 0 26 12
2021-12-04 16:02:17 GMT 42.371170 -71.010208 0 30 12
2021-12-04 16:02:16 GMT 42.371120 -71.010231 0 29 12
2021-12-04 16:02:14 GMT 42.371029 -71.010330 0 16 10
2021-12-04 16:02:13 GMT 42.370991 -71.010361 0 19 10
2021-12-04 16:02:11 GMT 42.370899 -71.010361 0 28 12
2021-12-04 16:02:10 GMT 42.370850 -71.010429 0 25 11
2021-12-04 16:02:09 GMT 42.370811 -71.010460 0 26 10
2021-12-04 16:02:08 GMT 42.370762 -71.010483 0 31 10
2021-12-04 16:02:07 GMT 42.370720 -71.010498 0 35 10
2021-12-04 16:02:05 GMT 42.370651 -71.010597 0 21 10
2021-12-04 16:02:04 GMT 42.370602 -71.010643 0 18 10
2021-12-04 16:02:02 GMT 42.370522 -71.010658 0 21 11
2021-12-04 16:02:01 GMT 42.370491 -71.010689 0 21 12
2021-12-04 16:02:00 GMT 42.370449 -71.010712 0 22 14
2021-12-04 16:01:59 GMT 42.370369 -71.010727 0 26 12
2021-12-04 16:01:57 GMT 42.370289 -71.010803 0 21 13
2021-12-04 16:01:56 GMT 42.370232 -71.010834 0 21 13
2021-12-04 16:01:55 GMT 42.370110 -71.010872 0 30 12
2021-12-04 16:01:54 GMT 42.370060 -71.010902 0 36 12
2021-12-04 16:01:52 GMT 42.370010 -71.010902 0 39 14
2021-12-04 16:01:50 GMT 42.369911 -71.011017 0 39 15
2021-12-04 16:01:49 GMT 42.369862 -71.011078 0 39 15
2021-12-04 16:01:48 GMT 42.369808 -71.011139 0 37 16
2021-12-04 16:01:47 GMT 42.369678 -71.011269 0 38 15
2021-12-04 16:01:45 GMT 42.369629 -71.011330 0 38 14
2021-12-04 16:01:44 GMT 42.369572 -71.011383 0 41 14
2021-12-04 16:01:42 GMT 42.369469 -71.011497 0 44 14
2021-12-04 16:01:41 GMT 42.369431 -71.011574 0 40 14
2021-12-04 16:01:40 GMT 42.369370 -71.011627 0 38 14
2021-12-04 16:01:38 GMT 42.369270 -71.011742 0 43 14
2021-12-04 16:01:37 GMT 42.369221 -71.011757 0 48 16
2021-12-04 16:01:36 GMT 42.369179 -71.011864 0 42 13
2021-12-04 16:01:34 GMT 42.369091 -71.011940 0 41 17
2021-12-04 16:01:33 GMT 42.369030 -71.011993 0 43 16
2021-12-04 16:01:31 GMT 42.368938 -71.012138 0 23 14
2021-12-04 16:01:30 GMT 42.368881 -71.012177 0 14 14
2021-12-04 16:01:29 GMT 42.368832 -71.012268 0 355 13
2021-12-04 16:01:27 GMT 42.368698 -71.012238 0 349 11
2021-12-04 16:01:26 GMT 42.368629 -71.012230 0 338 11
2021-12-04 16:01:25 GMT 42.368591 -71.012207 0 332 11
2021-12-04 16:01:23 GMT 42.368481 -71.012222 0 313 14
2021-12-04 16:01:22 GMT 42.368401 -71.012093 0 316 16
2021-12-04 16:01:20 GMT 42.368340 -71.012039 0 310 16
2021-12-04 16:01:19 GMT 42.368290 -71.011971 0 307 17
2021-12-04 16:01:17 GMT 42.368191 -71.011787 0 313 16
2021-12-04 16:01:16 GMT 42.368141 -71.011726 0 316 17
2021-12-04 16:01:15 GMT 42.368080 -71.011627 0 326 15
2021-12-04 16:01:14 GMT 42.367989 -71.011543 0 334 17
2021-12-04 16:01:12 GMT 42.367931 -71.011497 0 338 18
2021-12-04 16:01:11 GMT 42.367851 -71.011436 0 345 16
2021-12-04 16:01:09 GMT 42.367691 -71.011368 0 357 15
2021-12-04 16:01:08 GMT 42.367630 -71.011337 0 6 16
2021-12-04 16:01:07 GMT 42.367561 -71.011360 0 4 16
2021-12-04 16:01:05 GMT 42.367401 -71.011368 0 11 16
2021-12-04 16:01:04 GMT 42.367310 -71.011353 0 26 15
2021-12-04 16:01:02 GMT 42.367199 -71.011429 0 25 16
2021-12-04 16:01:01 GMT 42.367149 -71.011490 0 19 18
2021-12-04 16:01:00 GMT 42.367081 -71.011528 0 17 19
2021-12-04 16:00:58 GMT 42.366901 -71.011597 0 18 16
2021-12-04 16:00:57 GMT 42.366829 -71.011627 0 17 15
2021-12-04 16:00:56 GMT 42.366692 -71.011681 0 20 16
2021-12-04 16:00:54 GMT 42.366619 -71.011726 0 17 15
2021-12-04 16:00:53 GMT 42.366562 -71.011757 0 14 16
2021-12-04 16:00:51 GMT 42.366409 -71.011810 0 21 16
2021-12-04 16:00:50 GMT 42.366341 -71.011848 0 20 17
2021-12-04 16:00:49 GMT 42.366261 -71.011879 0 23 16
2021-12-04 16:00:48 GMT 42.366131 -71.011963 0 22 16
2021-12-04 16:00:45 GMT 42.365990 -71.012016 0 24 17
2021-12-04 16:00:44 GMT 42.365929 -71.012093 0 17 18
2021-12-04 16:00:43 GMT 42.365849 -71.012131 0 15 18
2021-12-04 16:00:41 GMT 42.365681 -71.012192 0 15 16
2021-12-04 16:00:40 GMT 42.365608 -71.012222 0 15 16
2021-12-04 16:00:39 GMT 42.365471 -71.012268 0 17 16
2021-12-04 16:00:37 GMT 42.365391 -71.012291 0 19 16
2021-12-04 16:00:36 GMT 42.365330 -71.012306 0 23 17
2021-12-04 16:00:35 GMT 42.365269 -71.012367 0 17 17
2021-12-04 16:00:33 GMT 42.365120 -71.012444 0 19 18
2021-12-04 16:00:32 GMT 42.365040 -71.012482 0 17 17
2021-12-04 16:00:30 GMT 42.364868 -71.012543 0 23 16
2021-12-04 16:00:29 GMT 42.364731 -71.012650 0 14 14
2021-12-04 16:00:27 GMT 42.364681 -71.012672 0 15 16
2021-12-04 16:00:26 GMT 42.364609 -71.012657 0 23 16
2021-12-04 16:00:25 GMT 42.364471 -71.012749 0 20 17
2021-12-04 16:00:24 GMT 42.364399 -71.012787 0 21 17
2021-12-04 16:00:22 GMT 42.364330 -71.012810 0 25 18
2021-12-04 16:00:21 GMT 42.364239 -71.012840 0 28 17
2021-12-04 16:00:19 GMT 42.364109 -71.012978 0 15 18
2021-12-04 16:00:18 GMT 42.364052 -71.013000 0 16 19
2021-12-04 16:00:17 GMT 42.363972 -71.013023 0 18 20
2021-12-04 16:00:15 GMT 42.363781 -71.013107 0 17 18
2021-12-04 16:00:13 GMT 42.363602 -71.013168 0 23 16
2021-12-04 16:00:12 GMT 42.363529 -71.013206 0 25 16
2021-12-04 16:00:11 GMT 42.363461 -71.013260 0 25 15
2021-12-04 16:00:10 GMT 42.363338 -71.013359 0 17 17
2021-12-04 16:00:08 GMT 42.363281 -71.013390 0 16 18
2021-12-04 16:00:07 GMT 42.363190 -71.013420 0 18 17
2021-12-04 16:00:05 GMT 42.363029 -71.013489 0 18 15
2021-12-04 16:00:04 GMT 42.362961 -71.013519 0 17 15
2021-12-04 16:00:03 GMT 42.362820 -71.013588 0 15 15
2021-12-04 16:00:01 GMT 42.362740 -71.013611 0 17 15
2021-12-04 16:00:00 GMT 42.362679 -71.013649 0 17 15
2021-12-04 15:59:59 GMT 42.362621 -71.013680 0 15 17
2021-12-04 15:59:57 GMT 42.362469 -71.013733 0 20 17
2021-12-04 15:59:55 GMT 42.362320 -71.013802 0 22 16
2021-12-04 15:59:54 GMT 42.362240 -71.013840 0 24 15
2021-12-04 15:59:53 GMT 42.362171 -71.013870 0 30 15
2021-12-04 15:59:51 GMT 42.362061 -71.013969 0 17 15
2021-12-04 15:59:50 GMT 42.362011 -71.014000 0 16 17
2021-12-04 15:59:48 GMT 42.361851 -71.014076 0 14 17
2021-12-04 15:59:47 GMT 42.361759 -71.014122 0 11 15
2021-12-04 15:59:46 GMT 42.361691 -71.014107 0 21 16
2021-12-04 15:59:45 GMT 42.361542 -71.014198 0 19 14
2021-12-04 15:59:43 GMT 42.361488 -71.014214 0 21 15
2021-12-04 15:59:42 GMT 42.361431 -71.014252 0 19 16
2021-12-04 15:59:40 GMT 42.361301 -71.014328 0 16 17
2021-12-04 15:59:39 GMT 42.361229 -71.014343 0 19 17
2021-12-04 15:59:37 GMT 42.361061 -71.014412 0 17 15
2021-12-04 15:59:36 GMT 42.361019 -71.014412 0 21 19
2021-12-04 15:59:35 GMT 42.360920 -71.014481 0 18 17
2021-12-04 15:59:34 GMT 42.360748 -71.014526 0 26 15
2021-12-04 15:59:32 GMT 42.360691 -71.014572 0 27 15
2021-12-04 15:59:31 GMT 42.360630 -71.014633 0 21 16
2021-12-04 15:59:29 GMT 42.360489 -71.014702 0 21 16
2021-12-04 15:59:27 GMT 42.360359 -71.014793 0 16 16
2021-12-04 15:59:26 GMT 42.360291 -71.014793 0 21 18
2021-12-04 15:59:25 GMT 42.360222 -71.014839 0 19 18
2021-12-04 15:59:24 GMT 42.360119 -71.014893 0 19 15
2021-12-04 15:59:23 GMT 42.360050 -71.014938 0 14 15
2021-12-04 15:59:21 GMT 42.359909 -71.014969 0 23 17
2021-12-04 15:59:20 GMT 42.359829 -71.015007 0 24 16
2021-12-04 15:59:19 GMT 42.359779 -71.015038 0 26 17
2021-12-04 15:59:17 GMT 42.359638 -71.015182 0 8 15
2021-12-04 15:59:16 GMT 42.359589 -71.015152 0 18 18
2021-12-04 15:59:14 GMT 42.359409 -71.015221 0 17 16
2021-12-04 15:59:13 GMT 42.359341 -71.015266 0 12 14
2021-12-04 15:59:12 GMT 42.359268 -71.015282 0 18 13
2021-12-04 15:59:11 GMT 42.359211 -71.015289 0 21 14
2021-12-04 15:59:09 GMT 42.359089 -71.015343 0 29 14
2021-12-04 15:59:08 GMT 42.359032 -71.015411 0 21 14
2021-12-04 15:59:07 GMT 42.358990 -71.015450 0 18 16
2021-12-04 15:59:05 GMT 42.358849 -71.015503 0 21 16
2021-12-04 15:59:04 GMT 42.358780 -71.015572 0 7 14
2021-12-04 15:59:03 GMT 42.358711 -71.015587 0 359 13
2021-12-04 15:59:02 GMT 42.358631 -71.015633 0 9 12
2021-12-04 15:59:00 GMT 42.358570 -71.015572 0 29 16
2021-12-04 15:58:59 GMT 42.358490 -71.015579 0 39 16
2021-12-04 15:58:58 GMT 42.358429 -71.015640 0 44 15
2021-12-04 15:58:56 GMT 42.358341 -71.015739 0 56 16
2021-12-04 15:58:55 GMT 42.358261 -71.015808 0 74 14
2021-12-04 15:58:54 GMT 42.358231 -71.015892 0 79 14
2021-12-04 15:58:52 GMT 42.358200 -71.016060 0 95 14
2021-12-04 15:58:51 GMT 42.358200 -71.016167 0 99 13
2021-12-04 15:58:50 GMT 42.358200 -71.016243 0 99 14
2021-12-04 15:58:48 GMT 42.358212 -71.016434 0 108 13
2021-12-04 15:58:47 GMT 42.358219 -71.016502 0 109 14
2021-12-04 15:58:46 GMT 42.358280 -71.016663 0 94 13
2021-12-04 15:58:44 GMT 42.358292 -71.016731 0 94 14
2021-12-04 15:58:43 GMT 42.358292 -71.016823 0 98 15
2021-12-04 15:58:42 GMT 42.358292 -71.016983 0 104 17
2021-12-04 15:58:40 GMT 42.358299 -71.017090 0 109 18
2021-12-04 15:58:39 GMT 42.358318 -71.017220 0 111 16
2021-12-04 15:58:37 GMT 42.358398 -71.017441 0 100 13
2021-12-04 15:58:36 GMT 42.358421 -71.017509 0 99 13
2021-12-04 15:58:35 GMT 42.358440 -71.017639 0 97 15
2021-12-04 15:58:32 GMT 42.358471 -71.017792 0 95 17
2021-12-04 15:58:31 GMT 42.358490 -71.017883 0 92 18
2021-12-04 15:58:30 GMT 42.358471 -71.018143 0 104 13
2021-12-04 15:58:28 GMT 42.358459 -71.018242 0 109 12
2021-12-04 15:58:27 GMT 42.358471 -71.018288 0 110 15
2021-12-04 15:58:26 GMT 42.358501 -71.018471 0 115 15
2021-12-04 15:58:24 GMT 42.358509 -71.018547 0 118 16
2021-12-04 15:58:23 GMT 42.358570 -71.018692 0 119 12
2021-12-04 15:58:22 GMT 42.358582 -71.018791 0 125 16
2021-12-04 15:58:20 GMT 42.358608 -71.018860 0 128 17
2021-12-04 15:58:19 GMT 42.358650 -71.018959 0 130 16
2021-12-04 15:58:18 GMT 42.358780 -71.019096 0 122 14
2021-12-04 15:58:16 GMT 42.358810 -71.019157 0 123 15
2021-12-04 15:58:15 GMT 42.358841 -71.019241 0 123 16
2021-12-04 15:58:13 GMT 42.358940 -71.019402 0 119 15
2021-12-04 15:58:12 GMT 42.358959 -71.019463 0 119 16
2021-12-04 15:58:11 GMT 42.359051 -71.019669 0 120 14
2021-12-04 15:58:09 GMT 42.359081 -71.019737 0 120 14
2021-12-04 15:58:08 GMT 42.359119 -71.019829 0 120 14
2021-12-04 15:58:06 GMT 42.359192 -71.019981 0 121 13
2021-12-04 15:58:05 GMT 42.359211 -71.020050 0 120 14
2021-12-04 15:58:04 GMT 42.359249 -71.020119 0 120 14
2021-12-04 15:58:02 GMT 42.359322 -71.020271 0 120 14
2021-12-04 15:58:01 GMT 42.359348 -71.020340 0 120 13
2021-12-04 15:58:00 GMT 42.359379 -71.020416 0 120 13
2021-12-04 15:57:58 GMT 42.359440 -71.020561 0 120 13
2021-12-04 15:57:57 GMT 42.359470 -71.020630 0 120 13
2021-12-04 15:57:56 GMT 42.359501 -71.020699 0 120 13
2021-12-04 15:57:54 GMT 42.359558 -71.020844 0 120 14
2021-12-04 15:57:53 GMT 42.359600 -71.020912 0 119 14
2021-12-04 15:57:52 GMT 42.359631 -71.020981 0 119 14
2021-12-04 15:57:50 GMT 42.359692 -71.021141 0 121 14
2021-12-04 15:57:49 GMT 42.359718 -71.021210 0 121 14
2021-12-04 15:57:48 GMT 42.359791 -71.021362 0 120 13
2021-12-04 15:57:46 GMT 42.359829 -71.021431 0 120 13
2021-12-04 15:57:45 GMT 42.359859 -71.021500 0 120 13
2021-12-04 15:57:43 GMT 42.359928 -71.021637 0 119 13
2021-12-04 15:57:41 GMT 42.359989 -71.021790 0 120 13
2021-12-04 15:57:40 GMT 42.360020 -71.021873 0 121 13
2021-12-04 15:57:39 GMT 42.360039 -71.021942 0 121 14
2021-12-04 15:57:38 GMT 42.360100 -71.022079 0 122 14
2021-12-04 15:57:36 GMT 42.360130 -71.022163 0 123 14
2021-12-04 15:57:35 GMT 42.360191 -71.022308 0 126 14
2021-12-04 15:57:34 GMT 42.360222 -71.022392 0 127 14
2021-12-04 15:57:32 GMT 42.360260 -71.022461 0 128 14
2021-12-04 15:57:31 GMT 42.360291 -71.022530 0 130 14
2021-12-04 15:57:29 GMT 42.360359 -71.022690 0 135 14
2021-12-04 15:57:28 GMT 42.360390 -71.022743 0 137 14
2021-12-04 15:57:27 GMT 42.360439 -71.022812 0 138 15
2021-12-04 15:57:21 GMT 42.361938 -71.023468 0 163 13
2021-12-04 15:57:18 GMT 42.360889 -71.023224 0 163 13
2021-12-04 15:57:09 GMT 42.361938 -71.023468 0 163 13
2021-12-04 15:56:56 GMT 42.361759 -71.023399 0 163 13
2021-12-04 15:56:54 GMT 42.361809 -71.023430 0 163 13
2021-12-04 15:56:52 GMT 42.361900 -71.023460 0 162 14

Making use of Plane Finder data

You are free to use the raw flight data, aircraft information and images provided in this report for your own purposes provided the data is correctly attributed to Plane Finder. We ask that you please credit Plane Finder and link to planefinder.net in close proximity to the content.

Optionally one of the following logos (no smaller then 150x24px) can be used and must link to planefinder.net

Embedding the Plane Finder map

You are welcome to embed the Plane Finder playback map on your website to offer visitors a more interactive experience. We suggest using the following HTML code:

<iframe src="//planefinder.net/data/report/DL5344-N181GJ-7700-squawk-2021-12-04/map" width="800" height="600" seamless="seamless"></iframe>

Where our data comes from

Plane Finder has a global network of data feeds and antenna radars that receive data broadcast directly from aircraft. The primary technologies used are ADS-B and MLAT. We also show feeds from the FAA and a FLARM glider feed.

Click here to find out more about the Plane Finder network.

How we collect our data